GFSMW_500_spd_000.txt.gz
Wind_Speed
23 24 27 29 32 34 37 41 43 44 44 45 48 49 51 52 53 55 57 56 55 57 59 61 60 62 62 61 61 63 65 68 70 69 69 68 65 60 61 60 62 64 62
27 28 28 34 35 34 37 40 44 46 48 49 52 55 55 55 56 57 58 60 60 60 60 61 63 63 61 61 63 65 67 69 71 71 73 71 65 65 60 62 64 67 68
30 31 28 28 29 33 33 34 37 44 49 52 54 55 57 56 56 59 59 59 60 61 61 62 63 64 63 63 64 67 69 70 72 72 72 70 68 61 59 61 63 68 72
29 30 31 32 32 32 34 35 38 43 47 49 51 56 58 60 61 60 59 60 61 61 62 62 62 62 65 67 68 69 69 65 64 64 68 69 70 65 61 55 60 65 69
32 33 37 39 40 42 45 46 48 48 52 53 53 57 57 55 56 57 58 59 59 57 58 63 66 67 66 66 70 72 72 67 65 65 67 65 65 66 65 62 57 57 64
39 43 46 49 48 51 48 47 49 52 54 57 58 55 57 59 61 60 59 60 61 64 67 66 65 67 69 69 69 69 69 69 68 67 67 66 64 60 62 62 58 60 58
42 46 51 50 55 54 52 53 54 57 58 60 61 61 59 61 60 61 62 66 68 69 67 68 68 67 67 65 62 68 66 67 70 68 67 68 69 68 65 63 59 59 61
47 49 51 54 54 57 60 59 59 60 61 61 61 62 62 61 61 63 67 67 69 71 71 70 68 65 62 64 65 66 61 65 71 69 69 70 71 69 67 63 61 58 58
44 47 51 51 54 57 58 59 57 56 58 60 62 62 63 64 66 68 70 69 70 70 69 67 60 64 54 62 68 69 69 71 70 68 66 65 65 63 62 61 58 54 53
47 49 52 56 53 53 53 53 57 59 62 64 65 66 68 70 71 72 74 75 76 76 71 62 58 60 65 70 71 69 70 70 67 65 63 61 61 62 60 57 54 52 52
48 53 54 53 55 56 55 57 59 61 63 65 67 69 71 72 74 77 79 79 79 76 68 62 58 59 61 66 68 68 66 65 63 62 62 60 61 60 60 60 58 57 57
51 52 51 52 54 56 60 60 61 65 68 68 68 70 73 76 79 79 80 79 76 70 62 57 55 56 58 59 60 61 61 60 60 61 62 62 64 65 66 67 66 66 66
48 55 53 52 59 63 61 63 66 67 69 72 75 75 76 77 76 79 78 73 66 60 54 51 51 51 53 55 57 57 57 58 60 60 61 62 64 65 67 69 69 70 70
55 58 56 57 65 63 66 69 72 74 75 75 77 77 78 78 78 76 72 62 56 52 49 48 49 50 50 52 55 56 56 57 58 61 63 64 65 66 66 67 68 69 70
54 58 58 62 66 68 72 77 80 79 79 79 79 80 81 79 76 72 64 54 48 48 47 47 48 49 53 53 52 54 56 57 56 56 56 57 56 55 53 52 52 56 58
53 62 67 65 67 74 80 81 79 79 81 82 84 84 82 75 70 62 54 49 49 47 48 48 50 53 51 51 54 56 55 53 53 50 42 39 36 33 31 31 32 32 31
58 66 67 69 75 78 79 80 82 82 83 86 87 84 77 64 52 49 48 48 47 47 46 50 53 50 50 53 55 54 52 52 40 33 28 27 26 29 30 32 33 31 31
60 66 71 74 74 78 80 83 83 85 87 89 85 77 64 55 48 45 45 46 46 45 49 51 50 49 52 54 52 52 48 34 27 25 26 30 33 36 36 35 36 36 36
74 76 76 76 78 83 84 85 86 90 95 91 81 65 53 48 45 43 43 43 45 50 51 50 50 51 53 52 51 47 32 21 22 28 33 36 37 37 38 38 39 39 38
79 80 81 81 83 89 90 90 93 98 98 84 65 54 49 46 46 45 45 47 51 51 50 50 51 52 50 48 46 33 22 20 26 31 32 35 37 37 35 33 29 27 32
78 82 82 82 87 92 89 92 92 94 82 62 54 51 49 47 46 46 49 52 53 52 51 51 51 49 47 44 34 24 20 24 28 29 30 33 33 30 24 23 20 21 27
77 80 82 82 83 82 89 93 90 75 60 53 53 51 48 46 47 51 54 54 53 53 52 50 47 45 44 38 25 19 23 26 24 25 23 22 23 24 21 19 17 15 13
81 83 84 85 89 92 87 84 64 56 52 54 52 49 48 50 54 56 56 56 56 53 50 46 43 38 36 27 19 20 23 22 20 18 15 15 18 16 12 12 9 10 12
83 85 88 86 88 87 85 61 53 52 54 53 50 50 53 56 57 58 58 57 55 52 47 43 38 31 27 18 15 17 16 17 19 18 17 17 21 17 9 5 6 7 9
81 84 87 91 91 78 58 50 52 53 52 50 52 55 57 58 59 59 57 55 52 49 43 36 28 22 21 14 13 8 9 10 11 13 10 14 16 18 12 10 10 14 15
86 87 84 83 67 52 47 51 52 50 50 54 56 58 59 60 58 54 50 49 46 44 36 26 16 17 17 13 7 3 4 6 8 7 7 9 9 10 14 15 19 19 16

GFSMW_500_spd_003.txt.gz
Wind_Speed
24 26 25 25 27 31 32 34 36 39 43 45 47 48 50 51 53 55 56 56 58 60 61 61 61 62 60 61 61 62 63 64 64 64 63 63 63 64 64 63 61 60 60
24 25 27 29 30 31 31 32 34 39 44 46 48 49 51 52 53 55 59 62 64 64 63 61 60 61 62 62 61 60 59 60 61 62 62 63 65 69 69 68 66 65 64
28 30 29 26 29 30 33 36 40 44 48 49 52 52 52 55 55 56 58 60 62 62 63 63 62 61 60 60 60 60 59 60 62 63 65 66 67 69 69 69 70 68 65
26 28 26 30 32 33 38 41 44 49 51 51 52 54 56 57 57 59 60 60 60 61 62 61 59 60 62 66 66 66 65 65 63 64 64 65 69 72 68 62 64 66 67
29 30 30 34 36 41 43 47 52 54 53 54 56 59 60 59 57 57 57 58 59 59 59 60 62 64 65 66 69 67 67 67 67 71 72 70 68 69 69 69 61 60 63
32 34 40 39 41 47 49 52 54 57 59 59 60 59 58 58 59 61 62 62 63 64 66 67 68 65 65 64 65 66 67 70 70 70 69 71 69 70 68 64 63 61 57
38 42 41 46 48 52 55 56 58 58 57 57 56 56 57 59 61 63 65 67 69 69 67 68 69 70 67 67 67 68 67 67 68 66 65 70 68 69 68 66 63 62 61
45 47 48 49 51 54 55 57 56 57 57 58 59 61 63 64 67 70 71 71 72 74 75 76 76 75 71 66 65 64 66 65 65 63 68 70 71 73 73 71 68 64 63
48 49 49 48 53 53 53 55 54 53 57 60 63 64 66 69 71 72 74 76 79 81 81 79 75 72 68 67 61 66 61 68 71 71 70 68 77 78 74 71 68 65 61
45 46 48 50 52 52 57 55 57 60 63 65 67 69 70 71 74 77 81 83 84 83 81 78 75 70 65 61 56 64 67 67 68 73 78 81 80 78 74 70 66 65 63
45 47 48 49 51 57 59 59 61 64 67 69 69 71 76 80 78 78 78 77 79 79 77 72 69 65 61 57 58 62 64 69 72 76 78 76 73 70 68 67 66 66 65
45 43 48 53 57 59 60 61 63 66 68 70 74 80 80 82 81 82 81 80 76 72 69 65 61 58 54 52 52 54 57 58 59 61 63 64 65 65 66 68 68 69 68
50 52 55 59 58 62 65 67 73 74 75 78 82 83 83 82 83 80 81 74 70 65 59 55 52 48 48 50 51 52 53 54 54 57 59 60 61 61 63 65 66 67 68
54 56 57 59 59 58 64 70 74 77 80 83 84 85 86 87 86 88 88 76 64 53 49 48 47 48 49 48 48 47 49 54 56 55 57 60 62 64 65 66 66 67 68
56 56 59 60 60 60 65 73 77 78 81 84 86 87 93 89 86 86 81 64 51 46 46 45 45 45 46 47 47 50 53 52 54 57 57 58 59 60 62 63 62 62 63
57 59 60 60 64 69 73 77 82 84 86 86 87 88 86 87 87 84 60 47 45 43 49 50 48 46 45 47 50 50 50 53 53 52 53 57 59 52 46 40 36 34 35
59 59 63 69 73 73 75 81 86 89 88 87 84 83 88 88 67 51 46 45 46 48 48 47 44 44 47 49 49 50 51 51 49 51 54 47 37 33 32 33 34 34 35
62 65 69 72 73 73 74 84 88 89 92 90 83 88 85 75 52 46 44 44 46 46 45 45 46 49 49 48 49 50 49 46 48 48 38 28 28 32 37 39 39 40 40
66 72 73 73 70 73 80 89 91 90 91 88 88 85 73 57 48 47 46 45 44 44 45 49 51 50 49 49 50 48 43 43 40 32 27 29 32 37 40 40 39 38 38
73 75 63 73 79 85 89 88 90 91 90 86 79 60 51 50 48 46 45 44 46 49 51 52 52 51 50 49 46 42 39 36 28 24 27 32 35 35 36 36 34 29 29
77 80 78 80 86 94 96 92 93 87 82 74 56 52 51 50 47 46 47 50 52 53 53 53 53 52 49 45 41 37 35 25 20 22 27 31 31 31 31 30 23 19 19
69 77 90 87 88 89 88 95 88 77 65 55 51 51 49 49 49 52 54 55 55 56 56 54 52 50 46 41 35 31 23 16 17 22 25 24 23 23 24 19 12 12 13
79 90 90 91 85 85 93 92 71 59 54 51 52 50 50 53 54 55 57 58 58 57 55 52 48 44 42 36 29 20 13 14 16 19 15 12 9 12 13 11 8 7 10
86 88 86 85 88 88 90 64 56 50 51 51 49 51 53 56 58 60 59 56 54 51 48 43 37 33 31 26 18 10 8 9 8 13 12 9 6 14 12 13 14 14 15
85 82 84 90 93 87 61 52 49 51 51 49 51 54 57 59 57 54 51 48 45 42 37 33 29 24 22 19 9 6 4 2 6 10 10 4 2 6 8 12 17 18 17
80 89 91 88 74 53 46 46 51 48 48 50 54 57 56 52 49 46 44 43 41 40 36 33 27 20 12 11 6 8 7 4 3 7 4 0 1 5 9 11 13 19 21

GFSMW_500_spd_006.txt.gz
Wind_Speed
24 28 28 29 32 34 33 36 39 39 42 45 46 47 51 51 51 52 53 55 57 59 59 58 58 58 59 59 58 58 59 60 61 60 59 60 61 60 60 62 61 61 61
26 27 29 29 30 30 32 37 40 43 48 49 49 52 52 52 52 53 52 54 56 57 58 59 59 59 61 63 62 59 55 55 55 58 58 59 60 61 63 64 62 61 59
26 29 29 29 32 33 36 40 43 46 52 52 54 56 54 54 54 54 54 55 54 56 58 60 61 62 62 61 62 62 62 61 59 57 60 63 62 60 60 63 65 64 62
30 31 29 33 30 36 40 42 44 51 52 54 55 54 53 53 53 54 55 56 57 59 60 61 63 63 65 65 65 64 66 66 66 65 60 57 60 62 62 61 64 65 65
32 31 33 35 38 42 44 47 50 50 51 53 53 54 56 57 57 57 59 60 62 64 66 67 68 67 68 67 67 67 67 69 70 70 68 65 60 61 63 63 62 62 63
34 36 38 39 43 44 45 49 48 49 53 53 56 58 58 60 61 62 63 64 65 67 69 70 72 73 74 75 76 75 74 72 65 66 65 65 65 66 66 66 65 62 54
38 38 39 42 44 46 48 50 51 52 52 57 58 59 61 65 68 69 70 71 71 70 72 76 78 78 79 79 78 76 73 71 69 63 61 64 63 64 66 67 67 67 66
43 44 46 47 47 49 51 53 53 55 60 61 62 63 65 67 71 73 72 74 77 80 79 76 78 79 79 80 79 76 72 68 65 59 63 67 63 66 67 65 67 65 66
45 46 46 48 50 52 54 57 60 58 62 66 67 65 68 71 76 77 79 82 84 84 86 85 82 84 83 80 75 66 63 59 58 62 53 61 71 78 75 73 72 77 78
44 45 45 47 51 54 55 57 61 63 65 69 73 75 78 82 81 83 85 88 89 89 88 88 85 82 82 73 63 61 59 55 51 58 62 63 68 70 74 78 80 82 85
45 44 45 49 55 54 60 63 64 66 67 69 70 71 74 80 84 86 88 90 90 88 88 84 79 75 65 59 55 54 52 51 53 64 68 71 74 73 78 81 81 79 75
42 46 51 55 59 63 65 67 67 68 70 70 73 76 81 85 89 91 92 91 90 88 84 75 65 56 53 52 49 48 48 49 50 52 54 57 59 61 63 64 64 65 66
49 53 57 61 64 66 67 68 69 70 73 78 82 82 83 84 90 94 96 94 89 83 73 61 46 46 46 47 47 47 48 50 50 50 51 52 53 55 59 60 60 61 62
57 61 62 64 67 69 70 70 72 76 80 83 81 82 82 83 91 97 98 90 79 68 52 41 41 42 43 45 47 47 45 45 44 45 47 50 53 55 56 59 61 63 64
61 62 64 66 66 69 71 73 76 80 79 79 80 82 89 98 100 100 89 76 60 44 40 41 44 51 52 54 53 49 46 45 47 50 51 52 54 56 59 60 59 59 62
62 62 64 68 69 71 74 75 78 69 71 77 88 93 102 100 95 88 71 55 43 43 45 46 48 49 49 48 47 44 45 47 49 49 50 52 55 56 56 56 59 59 52
65 67 66 69 73 74 76 77 77 75 78 87 91 88 88 97 80 65 52 46 44 44 45 46 47 46 45 44 44 47 48 48 47 49 50 50 51 51 52 48 38 33 33
69 71 75 80 79 81 79 80 80 82 92 93 87 88 94 81 63 54 49 47 45 44 44 44 44 45 47 49 49 50 48 47 48 48 47 47 45 45 37 32 33 37 41
76 80 83 84 84 84 81 80 87 93 92 92 95 92 74 58 52 51 50 47 46 47 48 50 51 51 51 52 51 49 47 46 46 45 45 41 39 30 31 34 37 37 38
80 84 83 79 79 83 82 87 88 94 89 93 89 67 55 52 53 51 49 49 52 53 53 53 54 54 53 53 52 49 46 42 40 40 38 35 27 28 32 33 30 29 32
83 82 80 79 82 86 87 89 94 91 87 79 60 53 53 55 52 52 54 55 56 57 57 55 55 55 55 53 51 48 41 36 33 31 28 25 25 28 26 26 27 23 20
84 80 79 82 84 85 86 91 90 81 68 56 50 54 54 52 55 57 59 59 58 55 52 50 46 45 45 47 44 37 31 27 23 22 19 18 21 18 14 10 10 10 9
76 78 78 81 83 83 81 81 74 64 55 50 54 52 53 55 59 60 58 54 51 49 46 43 39 37 37 37 33 23 18 15 15 12 13 15 11 4 3 6 11 15 14
76 76 81 81 80 80 75 69 60 52 48 51 50 51 55 59 58 54 51 49 47 45 41 39 37 34 32 28 23 13 10 10 7 6 6 6 6 5 3 9 14 14 15
77 78 76 78 75 70 64 58 51 45 47 48 49 54 56 55 49 47 46 45 45 43 40 36 34 30 24 19 9 9 12 10 5 2 7 5 6 5 1 8 11 16 16
76 74 74 72 66 62 56 46 42 44 45 46 50 51 51 47 45 44 41 44 44 41 37 35 27 18 13 6 6 10 10 7 3 2 4 3 6 5 0 5 11 14 16

GFSMW_500_spd_009.txt.gz
Wind_Speed
22 26 29 30 32 34 36 38 40 41 42 44 48 48 50 53 52 51 51 50 50 51 53 55 55 55 56 55 56 58 58 58 57 58 57 56 55 54 54 54 56 57 56
28 30 32 33 35 34 36 38 38 41 46 48 49 50 52 52 52 51 51 53 54 55 54 54 56 57 58 58 58 58 60 61 62 63 63 61 58 58 57 59 58 59 59
30 32 32 34 35 35 38 39 41 45 48 49 52 52 51 52 52 53 55 56 56 57 58 59 61 61 62 63 63 64 65 65 65 61 63 64 62 60 59 59 60 61 63
29 30 33 33 35 38 40 42 45 49 50 49 49 51 53 53 54 58 59 60 61 63 63 64 65 66 67 67 69 70 69 70 70 70 65 67 64 66 62 61 61 62 62
28 32 33 35 39 42 43 45 47 48 49 50 52 54 56 57 60 62 63 64 65 66 67 68 68 69 70 70 72 74 73 70 72 72 72 70 73 70 68 65 62 63 67
33 34 36 40 42 44 45 46 47 49 51 54 56 57 59 62 65 67 69 70 71 71 74 77 75 75 76 77 76 76 77 75 74 75 75 71 72 72 69 66 66 66 67
37 39 41 42 41 42 44 47 48 50 53 56 58 61 65 68 69 71 73 75 76 77 79 80 82 81 80 79 78 77 76 76 77 76 75 72 70 70 68 68 68 69 68
40 40 42 44 47 48 50 51 52 56 60 61 65 69 71 73 74 75 75 76 79 81 84 86 87 87 83 81 82 81 81 80 77 75 72 64 62 63 65 62 66 71 69
42 43 45 48 49 51 53 55 60 63 65 67 70 73 74 76 78 78 79 81 85 87 88 88 89 90 90 90 92 90 85 76 72 67 57 50 69 71 66 61 74 76 67
41 44 48 50 51 55 57 60 65 67 69 72 73 75 77 78 79 80 83 85 81 85 89 90 92 94 97 98 91 79 70 63 56 52 52 61 65 67 65 67 71 75 72
45 48 50 51 54 58 63 66 69 71 73 75 76 77 79 80 81 84 86 82 87 89 92 97 100 103 89 72 67 62 54 49 48 47 47 46 58 58 62 66 70 71 71
50 50 50 54 59 63 66 70 72 75 76 76 77 78 81 85 85 85 86 87 86 94 97 93 89 76 59 52 45 46 48 49 47 45 45 47 49 53 57 61 65 71 73
50 52 56 61 63 66 69 71 74 76 77 78 80 79 81 81 85 83 89 95 100 103 93 80 60 50 45 42 44 46 49 49 47 46 48 48 48 49 52 54 54 55 56
55 58 60 63 66 68 69 72 74 76 81 79 80 82 86 84 82 88 94 99 95 89 64 50 44 42 42 44 46 47 47 50 51 50 47 44 43 44 46 48 50 51 52
58 60 63 67 69 70 73 77 80 83 82 78 80 84 82 84 92 95 99 84 72 55 47 45 45 46 46 48 49 49 48 47 46 45 45 45 47 49 49 49 49 51 54
61 65 68 71 72 75 79 82 83 82 78 78 82 85 91 95 95 95 76 58 48 46 47 47 46 46 46 46 45 45 44 44 44 44 46 48 49 49 49 49 51 53 53
68 70 71 74 79 80 82 82 84 85 84 83 87 90 89 88 81 66 53 49 49 48 46 45 44 45 46 47 48 48 47 47 48 48 48 48 48 47 48 48 48 48 49
72 73 74 76 79 87 85 88 88 87 88 88 90 86 79 68 60 51 52 52 49 48 49 51 52 53 53 53 53 52 51 50 50 48 47 45 43 44 43 42 42 41 32
72 75 68 74 87 88 89 87 85 86 89 87 81 72 61 54 49 52 50 50 52 54 56 57 58 58 57 57 56 55 54 53 51 49 46 43 40 40 39 37 29 27 32
76 80 79 88 92 91 89 88 87 85 83 77 66 57 49 47 50 50 52 54 57 58 57 55 53 52 51 50 48 47 47 47 47 45 42 38 35 33 31 21 23 24 25
73 78 86 90 89 86 84 84 82 79 73 64 58 49 47 49 50 52 55 57 56 53 52 50 48 47 46 44 41 39 37 34 30 30 29 27 26 24 15 16 12 11 10
81 85 84 82 81 79 80 78 77 70 62 57 47 46 47 48 51 54 56 54 52 50 47 44 44 43 42 41 37 34 31 26 20 19 17 18 19 12 11 10 8 9 12
78 78 79 75 76 78 77 74 66 61 58 46 44 45 46 49 51 54 53 50 48 46 43 44 39 37 38 37 34 28 22 15 12 11 10 12 12 9 10 6 5 10 13
78 77 77 78 77 75 72 65 59 56 46 41 43 43 46 47 50 51 49 48 47 46 42 38 36 34 32 30 26 18 10 7 11 9 6 8 8 11 10 3 3 11 12
79 78 79 78 74 70 62 58 55 48 40 40 40 42 43 46 49 48 47 46 43 41 37 35 29 26 26 24 17 5 6 10 10 7 5 4 3 7 6 3 3 8 11
79 80 77 75 71 64 60 56 48 36 37 37 38 40 41 44 46 45 43 42 41 40 36 32 27 26 22 16 5 6 10 9 7 6 6 6 7 8 7 4 2 6 10

GFSMW_500_spd_015.txt.gz
Wind_Speed
23 25 27 29 32 35 38 41 42 42 46 48 49 51 54 56 56 57 57 56 55 55 56 59 60 61 62 63 64 66 67 67 68 69 68 69 68 67 67 65 65 67 67
25 27 30 33 36 39 41 43 45 46 49 50 51 54 56 58 58 58 59 60 58 59 62 64 66 66 67 69 71 72 72 71 72 73 73 73 72 72 73 73 68 66 67
28 30 34 37 40 42 43 46 47 48 50 52 54 57 58 58 58 59 59 59 61 64 67 68 68 70 72 74 74 75 74 74 73 72 73 73 74 72 71 74 75 74 70
30 34 37 40 42 42 45 47 50 51 52 53 56 55 56 58 58 60 61 62 66 69 70 71 72 73 74 74 75 75 76 76 75 75 75 76 74 72 74 68 73 75 74
34 37 40 43 43 45 47 51 52 52 51 52 54 56 57 58 60 63 65 68 70 71 72 73 73 74 75 77 79 79 78 78 79 79 79 79 76 74 75 73 70 68 73
39 41 43 44 45 47 49 48 48 48 52 54 56 57 58 60 63 66 69 71 72 73 73 75 76 78 79 78 78 77 77 77 79 81 82 81 80 80 79 80 78 76 74
41 42 44 46 47 45 45 45 48 53 56 56 58 60 63 65 68 71 73 74 73 74 77 79 79 78 78 79 79 80 81 80 81 82 84 85 84 87 87 86 88 89 86
42 42 43 43 43 45 48 49 53 56 58 61 62 65 68 71 72 75 77 76 75 78 82 81 80 81 81 83 84 85 87 87 85 86 90 92 89 89 83 79 75 73 76
40 40 40 44 43 47 51 52 55 58 61 63 65 68 70 72 73 77 81 83 84 85 91 86 84 83 81 82 88 92 93 93 87 80 77 75 69 59 48 46 49 50 54
39 40 41 44 47 50 53 57 58 60 65 69 73 75 75 75 77 77 82 83 84 93 91 87 85 82 83 86 83 77 72 68 63 59 53 45 42 42 47 47 48 53 44
40 43 45 47 48 52 56 59 63 67 71 74 75 76 79 80 82 85 82 85 92 93 92 88 84 80 74 68 64 56 51 50 48 46 45 48 47 47 48 53 51 56 52
41 45 47 51 54 58 60 64 69 74 78 79 80 79 80 81 83 85 99 94 94 91 88 83 75 66 57 50 49 48 47 47 47 47 47 46 48 48 49 47 47 49 51
44 46 48 52 58 63 66 71 76 79 81 80 79 77 80 81 88 94 95 93 90 84 77 66 60 52 48 49 50 50 48 47 48 48 48 49 49 49 49 48 49 51 53
46 49 54 59 62 68 74 78 81 81 80 78 76 80 84 87 88 90 91 89 82 73 64 55 49 48 50 49 48 49 49 49 49 49 48 48 48 47 45 45 44 45 45
50 55 59 63 69 73 77 79 79 78 77 78 79 82 84 86 87 87 84 76 68 61 54 50 50 51 51 52 51 53 52 53 53 53 53 52 51 49 48 46 43 42 42
54 59 63 69 75 79 81 82 79 80 81 82 83 85 85 84 83 80 73 65 61 52 50 51 52 53 55 56 55 55 53 52 50 50 51 52 53 52 50 48 46 44 43
60 66 72 77 80 81 81 82 83 83 84 86 85 82 84 82 78 71 64 62 53 50 51 52 53 57 58 56 53 52 51 49 48 48 48 48 47 48 49 48 46 45 44
68 73 77 78 78 78 80 82 83 84 85 86 84 83 81 77 70 64 62 55 50 50 52 54 58 59 57 55 50 49 48 46 45 45 44 43 43 44 43 42 43 43 42
74 78 80 80 80 80 81 83 85 85 84 82 80 79 76 70 65 63 56 50 48 50 51 56 58 56 51 50 48 46 42 39 39 40 40 40 37 36 36 35 35 36 35
78 80 82 82 82 82 83 84 83 81 80 81 78 73 70 68 62 54 47 46 47 48 52 56 55 49 48 49 47 44 38 35 35 37 36 35 32 29 27 26 26 24 27
83 83 83 83 83 83 83 82 81 80 78 77 75 72 69 62 49 41 44 45 46 48 53 54 48 47 47 46 44 43 39 37 35 33 28 27 24 22 19 18 18 18 18
82 81 82 83 83 83 83 82 80 76 74 74 73 65 54 45 36 41 41 44 45 49 52 50 45 47 47 45 43 39 34 30 26 19 16 13 9 6 9 12 14 14 13
80 81 82 84 84 83 83 81 77 75 74 69 58 48 35 29 35 35 39 41 43 48 49 46 44 44 43 40 36 30 25 19 12 7 4 3 2 2 5 9 13 14 9
80 83 85 84 84 83 78 77 75 74 65 52 39 27 24 28 30 35 38 39 43 47 46 43 42 41 37 35 29 21 13 10 8 6 4 4 4 2 3 10 13 10 9
83 83 83 82 80 77 73 73 69 60 44 30 20 22 23 24 30 35 36 39 42 44 44 41 40 36 32 28 21 13 11 10 9 7 7 7 6 6 10 12 10 9 11
82 82 81 77 73 70 69 63 53 36 25 18 22 20 22 27 33 36 37 38 41 41 40 39 38 34 29 23 13 9 10 11 9 7 7 8 9 9 11 10 9 9 11

GFSMW_500_spd_021.txt.gz
Wind_Speed
26 28 29 29 29 33 36 36 39 42 45 48 49 51 52 55 57 58 57 57 57 58 57 57 59 62 62 63 65 67 68 69 71 73 72 71 70 69 70 70 70 71 72
29 30 31 32 34 35 38 39 42 45 48 49 50 52 54 56 54 54 56 58 60 60 62 63 64 65 68 70 72 73 74 75 77 80 80 79 77 76 74 73 73 74 76
27 29 31 35 36 39 41 44 46 47 49 51 51 52 51 50 52 54 56 59 61 61 64 67 69 73 76 78 80 80 80 79 79 81 82 82 83 82 78 74 74 75 75
26 25 33 37 40 42 44 45 47 46 47 49 50 50 49 51 53 55 58 60 63 67 70 74 78 79 81 82 82 83 84 84 84 81 82 83 84 84 81 78 76 74 74
29 33 36 38 41 41 43 46 48 50 50 47 46 47 49 52 54 57 60 64 68 73 77 80 82 82 83 83 83 84 84 84 84 84 83 84 86 92 90 82 78 77 78
41 40 40 41 41 41 41 42 44 47 51 51 52 52 51 53 56 60 66 72 76 79 82 84 84 84 82 83 83 83 84 84 84 86 89 92 91 92 96 94 88 84 82
43 42 43 46 46 44 41 42 41 43 47 50 51 54 59 63 67 73 77 80 82 85 86 85 85 84 85 85 84 83 84 87 87 88 88 89 90 88 88 90 90 89 86
43 44 46 44 44 43 43 43 44 46 47 50 55 58 63 68 73 79 82 83 85 84 81 81 81 81 82 82 82 82 83 84 83 81 80 76 70 65 65 67 69 67 67
47 41 38 38 37 37 40 42 44 46 51 56 61 66 72 76 80 84 85 84 81 81 79 81 82 82 83 83 82 79 74 69 63 58 55 51 48 44 48 50 48 47 46
42 37 37 39 40 41 42 46 51 56 60 65 71 76 80 83 86 86 83 81 81 81 81 81 83 83 81 77 71 63 57 52 49 42 41 42 43 45 47 50 51 49 45
36 34 34 37 39 42 46 51 56 62 67 70 75 80 84 87 88 86 81 82 82 82 83 81 77 74 69 63 60 56 49 43 44 44 44 44 45 45 47 48 48 47 46
32 33 37 40 44 49 53 58 62 67 72 76 81 84 86 87 85 79 78 80 83 82 78 73 69 66 63 60 55 47 42 43 45 45 47 49 50 50 51 51 50 50 48
35 37 41 43 48 52 56 62 67 72 76 80 84 87 88 89 90 89 90 91 89 85 68 69 68 64 58 51 43 41 43 44 46 50 52 53 53 51 51 52 53 53 52
38 41 44 49 53 57 62 68 72 77 81 86 88 90 90 90 88 91 90 87 83 74 70 72 63 52 44 39 39 42 44 47 51 53 52 51 50 50 50 51 51 51 51
42 45 49 54 58 62 68 73 77 80 84 87 89 91 89 89 91 86 82 76 65 65 66 68 49 43 40 40 42 44 49 53 53 50 48 47 46 47 47 47 46 47 46
45 49 53 57 62 68 72 76 81 86 89 90 93 90 89 89 84 77 64 53 54 62 71 49 42 42 41 44 46 50 52 52 50 47 44 44 44 43 42 40 40 40 41
48 53 57 63 68 73 78 83 86 89 90 90 90 90 88 85 80 72 67 59 54 60 51 37 40 42 44 47 51 52 50 49 47 45 45 44 44 43 42 39 34 32 33
54 58 63 69 74 78 81 84 87 88 89 89 91 90 85 77 71 66 55 39 49 56 36 36 42 43 46 51 51 50 48 46 46 47 47 44 40 39 38 35 34 34 33
59 64 69 73 76 78 82 86 89 88 88 90 90 87 76 69 64 55 42 32 48 32 35 39 40 42 48 49 48 46 44 43 43 41 39 36 32 29 30 31 32 32 28
62 66 70 74 78 82 85 89 88 87 89 90 87 79 70 60 46 34 21 20 23 29 35 37 40 44 45 46 44 42 40 35 32 32 32 29 24 21 21 21 20 18 21
66 69 73 78 82 84 86 88 88 89 90 87 77 66 55 42 26 23 22 23 27 32 34 36 41 43 41 41 40 38 29 26 29 30 29 26 23 18 14 12 11 12 16
68 72 76 80 83 84 87 86 87 89 86 77 64 50 37 25 27 24 22 26 30 34 35 37 42 40 39 39 37 30 25 27 28 28 26 25 23 19 14 9 5 3 8
72 75 78 80 82 85 85 87 89 85 76 62 49 38 27 27 28 25 25 29 33 36 36 38 42 37 36 35 33 25 24 27 28 26 25 24 20 16 13 8 2 3 8
74 77 79 81 82 84 85 87 83 72 61 50 40 30 26 27 29 26 27 31 35 37 37 39 42 35 34 31 28 21 23 25 25 23 22 21 19 19 18 12 6 6 11
74 76 78 80 81 82 83 82 75 61 51 40 34 27 26 27 27 26 28 31 35 36 36 39 43 34 33 30 25 19 18 20 21 20 18 18 18 18 18 16 9 7 10
74 76 78 80 80 82 81 76 64 52 42 34 30 26 26 28 26 26 28 31 34 36 35 38 42 35 33 29 25 21 17 17 18 19 16 15 14 14 14 12 9 8 11

GFSMW_500_spd_027.txt.gz
Wind_Speed
15 17 20 20 22 22 24 27 30 39 43 47 45 49 48 53 53 55 55 53 50 49 48 50 52 55 58 60 62 64 67 69 71 71 72 72 73 75 75 74 74 75 75
21 25 26 25 24 26 27 34 39 43 48 50 52 52 54 56 57 56 54 52 51 52 54 57 61 65 68 71 74 76 78 79 81 81 81 81 79 79 79 80 81 81 81
22 24 23 21 23 25 31 37 41 45 49 52 54 56 55 55 54 52 50 50 53 57 61 65 69 72 76 79 82 84 86 86 87 88 89 89 88 88 83 80 81 81 83
21 29 23 24 25 32 40 44 44 48 52 54 59 58 55 53 52 50 53 56 60 64 67 71 74 77 81 83 86 87 88 89 88 86 86 85 87 88 92 89 84 83 85
23 27 32 29 37 39 42 45 46 51 54 54 48 47 46 47 50 52 55 59 63 68 71 75 79 83 86 88 89 90 90 89 87 88 87 88 89 91 92 88 88 89 90
25 31 31 34 40 38 37 45 48 54 48 44 43 43 45 48 52 56 61 65 68 73 78 82 86 89 90 89 89 88 88 88 89 90 92 93 93 93 95 96 93 97 95
28 28 32 35 34 41 46 48 53 44 38 38 39 43 47 52 57 61 67 71 76 81 85 87 88 90 90 90 90 90 89 90 90 88 86 85 86 85 82 82 80 79 75
32 30 34 40 47 48 49 52 39 35 37 40 44 48 54 58 63 68 72 77 80 84 88 91 93 95 94 94 95 96 94 87 79 70 66 74 69 65 66 65 64 61 58
35 40 44 43 42 44 41 34 37 39 42 45 50 55 60 65 69 73 78 81 85 88 91 94 96 97 98 99 98 96 84 74 72 62 65 57 52 50 49 49 50 52 50
31 33 35 36 37 34 36 39 41 44 47 52 57 61 66 70 75 78 81 84 89 93 97 99 100 100 99 93 87 71 68 70 65 62 67 48 46 46 45 45 45 47 49
29 32 35 36 36 39 42 44 46 50 53 57 62 67 70 74 77 81 85 89 92 96 99 100 99 95 87 68 72 69 66 62 65 66 56 50 50 49 49 49 49 50 53
34 38 40 40 42 43 45 47 50 54 57 61 66 69 73 76 80 84 88 92 95 99 99 100 97 86 75 67 59 54 63 65 68 62 53 52 52 53 54 55 55 56 57
34 38 41 41 42 44 48 51 54 56 60 64 68 72 74 78 83 87 91 94 99 99 100 98 84 70 63 57 48 46 49 55 52 54 53 54 56 55 54 54 54 54 54
35 38 40 42 44 47 51 54 55 59 63 67 70 74 79 85 88 91 95 97 97 98 95 80 65 58 50 43 41 50 53 52 52 54 56 55 55 53 51 50 51 51 52
37 39 40 42 45 49 52 55 59 62 65 69 74 80 86 88 90 91 95 96 96 92 75 56 46 36 31 37 45 49 50 50 53 53 53 52 49 42 39 41 41 44 49
43 44 44 45 48 52 53 58 63 66 70 75 80 86 87 89 90 93 93 93 89 71 54 40 34 31 33 37 43 46 46 51 49 49 47 42 37 42 44 45 45 44 43
46 49 48 49 52 54 58 63 67 70 75 78 82 85 87 88 90 91 91 88 69 53 40 36 35 36 37 40 42 45 49 49 47 46 38 35 41 43 44 43 42 41 39
49 49 49 51 53 58 63 67 71 74 78 82 85 86 86 87 88 90 87 72 54 43 34 35 35 37 40 42 43 46 48 44 44 39 35 39 40 40 40 39 37 36 35
52 51 51 53 57 61 66 70 75 78 81 83 85 85 85 87 89 85 78 56 44 36 35 35 37 40 42 43 44 46 43 40 38 34 36 38 37 38 39 39 35 31 30
54 51 52 56 60 65 70 74 78 80 82 83 85 86 86 88 84 79 62 47 38 33 34 36 37 40 42 44 44 46 41 37 34 32 34 35 36 37 38 38 33 28 25
54 53 56 60 65 69 73 76 79 82 83 84 85 86 86 83 77 66 49 40 34 33 35 36 38 41 42 43 44 45 40 35 30 28 30 32 33 35 36 37 31 25 21
55 57 61 66 70 72 76 77 80 81 82 84 86 86 80 75 66 54 41 35 32 33 35 36 38 39 41 42 43 44 40 35 28 25 27 29 30 32 34 34 30 23 19
59 62 66 71 73 76 77 79 80 80 82 84 85 77 73 66 57 46 38 34 32 32 34 36 38 39 40 41 42 43 40 35 31 24 24 26 27 29 30 30 29 23 21
63 67 71 73 74 76 78 79 79 81 84 83 75 70 65 58 50 42 36 33 31 31 33 35 36 37 38 40 41 42 40 34 32 26 24 24 25 25 26 27 25 24 20
67 70 72 74 75 77 77 77 80 83 81 74 70 64 58 51 44 38 34 32 31 31 34 35 35 35 37 38 40 41 38 31 29 27 23 22 22 23 22 22 21 18 18
70 72 73 75 75 75 76 80 82 80 73 69 64 59 53 46 40 35 33 31 29 30 31 33 33 33 34 37 39 40 36 29 27 27 24 21 19 19 20 18 17 15 12

GFSMW_500_spd_030.txt.gz
Wind_Speed
11 13 16 18 19 20 22 23 16 24 35 40 45 46 51 53 54 56 56 52 50 46 43 46 50 54 57 60 62 65 68 70 73 75 76 78 79 80 79 80 80 81 80
14 15 17 20 19 17 22 21 32 38 43 48 51 52 53 57 56 54 51 47 44 46 50 54 58 62 65 68 71 74 76 79 81 83 84 84 83 81 81 81 82 83 83
15 18 20 20 24 23 31 35 39 43 47 48 51 52 58 55 52 49 45 45 49 54 59 63 66 69 70 72 75 78 81 83 84 87 90 92 93 95 92 88 86 84 82
22 21 21 25 24 33 38 39 41 45 48 50 55 58 57 52 50 49 50 53 57 59 62 65 68 71 75 79 82 83 84 87 91 92 94 96 97 98 99 97 97 91 87
26 23 23 27 33 35 38 42 45 46 42 50 54 58 55 48 48 51 53 56 58 61 66 69 74 78 81 83 85 87 91 95 98 97 96 97 96 96 96 96 95 96 95
23 27 29 32 38 36 44 38 38 53 53 50 51 50 47 47 49 52 56 59 63 67 71 74 77 81 85 88 91 94 98 99 97 97 100 96 93 87 82 81 81 81 76
23 28 31 32 39 40 42 47 52 52 48 50 47 47 49 51 54 57 61 65 68 72 75 78 83 86 89 93 95 98 99 101 103 100 91 81 72 69 67 64 65 62 54
23 25 28 33 39 42 45 48 49 47 48 46 48 48 50 54 57 60 64 68 72 75 79 84 88 92 94 95 99 101 104 103 92 80 69 66 67 66 59 58 53 45 40
19 23 28 32 35 39 42 44 44 43 45 47 47 50 54 57 60 64 68 72 75 80 86 90 93 97 100 103 103 105 100 87 72 65 65 60 62 57 54 57 51 51 44
24 27 30 33 35 37 38 39 41 44 46 48 52 56 59 62 66 70 74 78 83 88 92 95 98 100 99 101 103 91 76 67 60 55 51 54 52 51 50 52 53 53 53
26 27 29 32 35 39 42 44 45 47 49 53 56 58 61 67 71 75 80 85 89 94 95 97 99 98 100 101 86 67 59 48 36 42 49 49 51 52 52 54 54 54 54
31 33 35 37 40 42 45 48 50 52 54 56 58 61 67 71 75 80 84 87 91 93 96 96 96 97 95 81 62 55 41 33 38 46 49 51 52 53 53 51 52 52 52
34 37 38 40 43 46 49 51 53 55 56 58 61 66 70 75 79 82 86 90 92 93 94 96 96 91 74 57 46 40 38 40 43 48 50 51 53 49 51 49 45 42 43
36 38 39 41 43 46 49 51 53 55 57 59 64 69 73 77 81 84 87 90 92 92 94 93 89 71 53 44 42 40 43 44 46 50 52 52 49 48 42 38 42 45 47
39 40 41 44 46 50 52 52 52 55 58 63 68 72 76 80 83 85 87 91 92 92 91 86 73 53 43 40 40 41 44 46 48 50 51 47 45 38 40 43 44 45 46
43 44 46 48 50 53 53 53 54 57 62 66 71 76 80 83 85 87 89 90 92 89 85 74 53 41 39 40 41 43 46 47 48 50 45 44 38 37 41 42 44 46 47
46 47 51 52 52 54 53 54 56 60 64 70 76 79 82 85 87 88 89 92 88 82 73 55 41 36 38 40 42 44 47 49 49 49 43 39 34 37 38 40 44 46 47
49 51 53 53 54 55 55 56 60 64 70 75 78 81 83 85 87 89 92 87 79 73 58 44 36 35 37 40 42 44 47 48 48 45 41 34 33 36 37 40 44 45 44
52 53 54 54 56 57 57 59 64 69 75 77 79 81 84 85 87 91 85 78 72 61 47 37 34 34 37 39 42 44 46 46 47 42 40 33 32 35 37 41 43 44 39
53 54 55 56 58 59 60 65 69 74 76 78 81 83 84 86 89 85 76 70 61 51 40 34 33 34 36 39 41 43 45 44 44 38 36 32 30 33 35 39 41 40 33
54 56 57 59 60 62 65 69 73 75 78 80 82 82 85 88 85 77 69 61 53 44 37 33 32 33 35 38 41 43 43 43 43 34 31 29 28 31 33 36 38 38 30
56 58 60 60 61 65 69 72 75 76 79 81 81 85 87 84 77 69 61 53 47 40 35 32 31 32 35 37 39 41 42 43 42 34 30 27 25 27 30 32 34 34 30
58 59 60 62 66 70 72 74 75 78 79 79 84 86 83 77 69 61 55 48 41 36 33 31 31 33 35 37 38 39 41 43 42 35 28 28 23 24 27 28 29 28 28
59 60 63 67 70 72 73 74 76 77 77 82 84 81 75 69 63 56 49 43 36 34 32 30 30 32 34 35 36 37 40 41 40 33 28 28 24 22 23 24 24 24 24
59 63 67 70 71 72 73 75 75 76 80 82 79 72 67 64 57 51 44 38 33 31 29 28 28 30 32 33 34 35 38 39 37 32 26 27 28 23 21 21 21 21 20
63 66 70 72 72 72 74 74 75 79 80 77 69 65 65 61 52 45 40 35 31 29 27 27 27 29 30 31 31 33 36 37 36 32 27 25 25 24 21 19 19 18 17

GFSMW_500_spd_033.txt.gz
Wind_Speed
12 13 14 15 18 20 21 21 21 24 28 24 47 48 46 47 50 52 56 55 48 44 41 41 44 47 52 55 58 62 64 65 67 68 70 72 73 74 76 77 79 81 84
14 15 17 19 19 17 16 26 22 32 45 49 49 49 51 52 54 59 57 48 44 43 46 49 53 57 59 61 63 64 66 68 72 75 78 80 81 81 84 86 89 91 90
16 18 20 21 22 23 24 27 35 42 43 46 48 51 50 53 61 56 54 51 51 52 54 56 57 59 62 64 67 69 73 78 81 84 88 91 93 94 96 99 101 100 99
18 21 21 22 25 25 28 33 40 40 43 46 48 45 52 57 50 49 51 53 54 55 56 58 60 63 66 70 74 79 84 86 89 91 94 95 101 105 107 109 108 104 100
17 20 22 21 23 28 31 33 39 42 42 49 47 57 52 50 51 51 53 54 56 58 60 63 65 71 75 78 82 86 90 91 93 98 97 101 106 111 106 98 90 87 86
19 21 22 25 28 32 35 37 40 44 49 49 51 50 48 50 52 53 54 56 58 60 64 67 72 76 80 84 88 91 92 93 96 98 103 106 105 91 84 79 70 63 60
18 21 23 25 29 31 35 37 40 43 46 47 49 49 50 51 53 54 57 59 60 63 68 72 77 81 85 88 91 91 95 98 102 106 104 93 77 69 64 61 61 54 44
14 16 19 21 23 26 30 33 37 40 43 47 49 51 53 53 54 57 58 60 64 68 73 78 82 85 88 92 93 97 100 104 104 96 78 66 61 57 49 44 45 42 36
15 17 19 22 25 28 30 33 37 41 46 48 50 51 52 54 57 59 61 64 68 73 77 82 86 89 92 95 98 99 103 100 86 67 56 49 42 41 43 46 49 50 44
19 20 22 25 27 30 33 36 39 41 44 48 52 55 56 58 60 62 64 68 73 78 83 87 91 93 94 97 98 100 93 78 60 50 44 41 41 43 47 49 49 52 50
23 25 27 29 31 32 35 39 42 45 49 52 54 56 58 59 60 64 69 73 79 84 87 90 92 92 95 98 96 87 71 54 46 43 40 43 45 47 49 51 51 49 50
26 29 31 34 37 40 43 46 47 49 52 54 55 57 58 59 62 67 72 79 83 87 89 90 91 94 97 91 81 68 50 44 43 42 44 46 47 49 50 48 48 47 41
32 35 37 40 42 44 46 48 49 50 53 54 56 56 58 62 66 72 78 83 86 87 88 90 93 97 91 78 64 48 42 41 42 43 46 48 49 49 46 45 42 38 42
36 38 40 43 45 47 49 50 52 53 56 57 57 58 61 65 71 76 81 84 85 87 89 94 96 90 75 62 47 39 39 41 43 45 48 50 49 47 43 41 37 39 42
38 40 42 44 47 49 51 52 53 56 58 59 59 61 65 70 75 79 82 84 87 89 93 95 88 73 62 48 39 37 39 41 43 45 48 48 48 44 43 37 37 40 42
42 43 45 47 49 51 52 53 55 58 59 60 61 64 69 74 78 80 82 85 88 91 94 88 71 62 51 40 35 36 38 42 43 45 47 46 47 41 38 35 38 40 44
45 47 49 51 53 53 54 56 58 59 61 62 64 68 73 76 78 81 84 86 90 92 86 71 61 52 42 36 35 36 38 41 43 45 46 45 44 39 33 33 36 40 46
49 49 51 54 54 54 56 58 59 61 62 64 68 72 75 76 79 82 85 88 90 83 70 61 53 45 37 34 34 35 37 39 42 45 44 44 39 37 30 31 35 39 43
51 51 54 54 55 56 57 58 60 61 63 68 72 74 75 77 80 83 87 88 81 72 63 54 47 39 34 33 32 32 36 39 41 43 43 42 34 34 29 30 32 37 41
54 54 56 55 56 57 59 59 60 63 68 71 73 74 77 79 81 85 86 78 72 66 57 48 42 36 32 31 31 33 35 37 40 41 42 37 31 31 27 28 31 35 37
53 54 56 56 57 58 59 61 63 67 71 73 73 77 79 79 83 84 77 70 68 62 51 44 37 33 31 30 31 32 35 37 38 39 38 32 27 29 25 26 29 32 34
54 56 58 58 58 59 62 63 67 71 73 73 76 79 78 81 82 75 68 67 64 54 45 39 34 31 29 28 29 31 33 36 36 37 36 30 25 27 23 23 27 29 31
56 57 58 58 59 62 64 67 71 72 74 76 79 77 80 81 77 68 65 65 59 49 41 36 31 28 27 26 27 29 31 33 35 35 34 30 24 25 25 21 23 26 27
57 57 57 59 62 63 68 71 72 74 76 78 78 80 81 77 69 63 63 61 52 43 36 32 28 26 25 25 26 27 29 31 34 34 33 30 25 22 24 21 19 21 23
57 58 62 63 63 68 72 74 74 77 77 78 79 79 76 70 63 61 60 54 44 37 33 30 26 25 25 24 24 25 26 28 31 33 33 31 28 25 23 23 18 18 19
58 61 63 65 68 71 75 76 79 78 78 78 77 76 71 64 59 58 54 47 38 33 31 28 25 25 24 24 22 23 23 26 28 31 32 30 28 24 21 21 19 16 16

GFSMW_500_spd_036.txt.gz
Wind_Speed
13 15 17 20 21 23 23 26 24 30 29 28 40 42 45 46 47 49 48 52 55 49 41 41 44 47 50 53 55 56 57 57 61 63 66 68 71 72 73 76 79 81 82
14 15 16 18 17 21 24 25 26 25 33 35 42 45 47 50 54 54 53 50 48 47 48 50 53 55 58 58 58 59 61 66 69 71 74 77 80 84 86 86 86 89 91
15 16 18 19 21 25 28 29 30 30 35 39 43 46 50 55 58 58 55 51 51 52 53 54 56 57 58 59 62 65 68 72 76 79 81 84 87 89 90 93 95 96 99
17 18 17 19 23 26 27 29 31 36 41 45 46 48 50 55 51 51 51 53 53 54 56 57 58 60 61 64 68 72 76 79 82 85 87 90 93 95 96 98 105 108 106
18 18 19 23 26 27 29 32 34 34 34 35 40 44 46 50 53 54 55 55 56 58 58 60 61 63 66 69 74 78 82 85 89 93 95 96 96 99 105 109 104 93 84
17 18 22 24 24 24 24 23 26 29 31 35 37 42 45 50 53 55 57 59 59 59 62 62 64 67 70 75 80 85 89 92 95 96 96 98 102 107 102 91 76 64 60
15 16 16 15 16 17 20 23 26 30 34 36 39 42 46 50 54 56 57 58 59 61 62 64 67 71 75 81 86 90 93 95 96 98 102 106 101 86 71 61 54 49 42
9 11 13 16 17 20 24 27 31 34 37 40 43 46 48 50 53 56 59 60 61 62 64 67 70 76 81 86 90 93 95 96 98 102 100 89 74 59 51 49 49 47 44
12 15 17 20 22 25 29 32 35 38 41 43 46 48 50 53 55 58 60 60 61 63 65 69 75 81 86 90 92 93 95 98 101 94 80 66 53 47 43 45 47 50 47
18 20 22 25 28 31 34 36 39 41 43 46 48 50 53 57 58 61 61 61 63 65 70 75 81 85 89 90 91 94 98 100 86 72 59 49 46 45 46 48 49 50 48
23 25 27 30 32 35 38 40 43 44 46 49 51 54 57 57 60 62 62 63 66 70 75 80 84 86 88 90 93 96 97 80 68 56 46 43 44 45 46 49 50 48 47
27 30 32 35 37 39 41 43 46 48 50 52 55 57 58 60 63 64 64 66 70 75 80 83 84 87 88 92 96 92 75 64 53 43 41 42 44 45 48 50 47 46 43
33 35 37 39 41 44 45 46 49 51 52 55 58 59 60 62 64 65 67 70 75 79 82 83 85 87 91 95 87 71 61 50 41 39 41 43 44 46 48 47 46 43 41
38 40 42 44 46 47 48 50 51 53 54 57 59 60 62 63 65 66 70 74 78 79 82 83 86 90 93 84 70 60 50 41 37 38 41 43 45 47 47 45 43 41 36
44 45 46 47 49 50 52 53 53 55 56 58 60 61 63 64 65 69 73 76 78 81 81 85 89 91 81 71 61 51 42 36 37 39 41 42 45 47 46 46 39 38 35
47 48 48 50 52 53 54 54 55 56 58 60 61 62 62 64 68 72 75 76 79 80 83 87 89 80 71 63 52 44 37 36 37 38 39 43 44 45 45 43 38 34 34
49 49 50 52 54 55 55 55 56 57 59 60 61 61 64 68 71 75 75 79 80 82 86 87 79 71 66 55 45 39 35 35 35 37 40 42 44 43 42 36 35 32 34
49 49 51 54 56 55 55 55 57 58 59 60 61 65 68 71 75 76 77 80 81 85 86 79 70 68 58 47 40 35 33 33 35 37 40 41 42 41 37 33 31 29 33
50 51 53 55 54 53 53 56 58 59 59 61 64 70 71 74 76 77 80 82 83 84 80 71 67 61 50 41 36 33 32 33 34 36 38 39 39 38 33 30 27 27 30
52 53 53 53 52 53 56 58 59 60 61 63 71 74 75 77 77 78 81 83 83 80 72 67 64 54 43 37 34 32 30 31 33 34 36 36 35 33 29 28 25 24 27
50 50 50 51 53 56 57 58 59 60 63 71 75 76 77 78 77 78 84 84 82 75 67 63 57 46 38 34 32 29 29 29 30 32 34 34 32 29 26 26 25 22 25
47 48 51 53 55 56 56 57 58 61 69 72 75 79 80 80 79 81 83 80 76 68 63 58 49 40 35 32 29 27 27 28 28 29 31 31 30 28 25 23 24 21 23
51 53 55 54 54 56 58 58 59 69 72 74 76 79 81 80 80 83 80 77 70 62 58 52 42 36 32 29 27 26 26 26 26 28 29 30 29 27 25 23 24 22 20
54 55 56 57 58 59 61 64 66 70 72 75 79 81 82 82 81 79 75 72 62 57 53 45 38 34 31 27 26 25 25 24 25 25 27 29 29 27 25 22 21 22 18
54 55 57 59 60 62 60 66 72 77 77 77 82 84 83 82 79 75 70 63 56 51 46 40 35 32 29 26 25 24 24 23 23 24 25 27 30 30 27 23 21 20 19
55 57 60 61 64 63 62 68 74 76 73 79 82 82 83 78 72 69 64 56 51 46 40 36 32 30 26 24 23 23 22 22 22 22 24 25 28 30 29 25 22 20 19

GFSMW_500_spd_039.txt.gz
Wind_Speed
11 13 15 16 18 20 23 25 27 25 27 31 35 40 42 42 40 43 45 48 52 48 48 50 48 46 49 49 48 50 52 53 55 57 57 59 63 69 73 74 74 76 78
15 17 18 18 20 22 24 26 29 30 30 32 33 38 43 44 44 44 47 49 49 50 52 51 53 54 53 55 56 56 56 56 60 63 67 69 71 75 79 82 85 88 88
16 17 19 20 23 23 26 29 30 31 31 32 36 38 37 38 41 43 46 49 51 54 56 57 58 57 58 59 60 61 62 64 66 69 73 77 80 83 85 87 89 92 95
19 20 22 23 25 25 28 29 29 30 31 32 32 33 35 37 40 42 45 48 51 55 58 60 61 62 62 62 62 64 67 69 72 76 80 84 88 90 91 94 97 100 102
22 24 26 25 25 28 25 24 23 22 25 28 31 34 37 40 44 47 50 53 55 56 58 61 62 62 63 63 66 68 71 76 79 84 89 93 95 97 101 104 106 106 100
27 26 25 24 23 19 18 19 21 24 27 31 34 38 41 44 48 50 53 56 59 61 62 63 64 64 65 67 69 73 78 83 87 91 95 95 97 100 104 104 97 84 66
24 22 19 16 16 17 19 22 25 28 31 34 38 41 44 47 50 52 55 58 59 61 62 64 66 66 68 70 74 78 83 88 91 94 94 95 100 101 94 82 73 63 50
13 13 14 16 18 21 24 27 30 33 36 39 42 44 47 50 53 55 57 59 61 62 64 66 67 68 71 75 79 84 87 89 91 93 95 98 92 83 74 63 57 52 47
14 17 19 21 24 27 29 33 36 38 40 43 45 47 49 52 55 57 59 61 62 64 66 68 69 71 74 79 83 84 86 88 90 94 95 87 78 69 58 52 51 51 49
20 22 24 27 30 33 35 39 42 43 45 46 49 51 53 54 56 58 61 62 64 66 68 68 70 74 78 81 83 84 85 88 93 92 83 74 65 54 48 47 48 50 52
23 26 29 31 35 38 41 43 46 46 48 50 53 54 56 56 59 61 62 65 65 68 68 70 73 77 81 83 84 84 87 91 89 80 72 62 53 46 45 46 48 49 52
28 30 33 36 40 42 44 45 47 49 52 54 56 56 55 59 61 62 64 66 67 67 69 73 77 80 82 84 83 86 91 88 79 70 60 50 43 42 45 47 48 50 51
33 36 39 41 44 46 47 49 50 51 53 56 57 59 58 60 62 64 65 67 66 69 73 76 80 81 84 85 86 90 88 77 69 58 49 42 40 42 45 46 49 50 49
39 41 44 46 48 49 51 52 51 54 56 57 57 58 60 61 63 64 66 66 70 73 76 78 82 82 82 85 89 89 78 71 59 49 42 39 40 42 44 47 49 49 46
45 47 49 51 52 52 53 53 54 56 57 57 57 59 60 62 63 64 66 69 74 77 78 78 80 82 84 85 87 78 72 61 50 43 39 39 40 41 45 48 48 46 44
50 51 51 52 53 53 53 55 56 57 56 56 57 59 62 62 63 65 68 73 79 80 82 81 82 83 86 85 80 72 65 52 44 39 37 38 41 44 45 45 44 44 39
53 52 52 53 53 54 54 55 56 55 54 56 58 60 60 62 64 67 72 77 82 82 82 81 84 85 89 83 72 66 55 44 39 37 36 39 42 43 44 42 42 39 36
51 51 51 51 52 54 55 54 54 54 55 58 59 60 60 64 68 71 76 80 82 81 84 85 86 88 89 72 66 57 46 39 36 35 36 38 41 41 41 40 39 35 34
50 50 51 52 53 53 53 52 53 55 57 58 59 61 63 68 73 74 80 83 80 83 87 88 87 89 78 64 59 49 40 36 33 33 34 36 39 39 39 37 35 32 33
49 49 50 51 51 50 52 54 54 56 56 56 62 64 67 72 79 83 79 78 81 85 89 91 88 78 66 60 50 42 36 33 31 32 34 34 34 36 36 34 31 28 30
47 47 48 48 50 52 53 54 54 56 57 58 60 65 75 80 84 81 82 78 78 83 88 91 81 67 59 53 42 37 34 31 30 31 32 32 32 34 33 32 29 27 26
46 46 48 50 52 53 55 56 59 59 62 65 67 66 75 82 78 77 77 79 82 84 85 82 69 59 54 46 39 36 32 30 29 30 29 29 29 31 31 30 28 26 25
49 50 51 52 52 52 53 58 60 61 66 72 76 79 78 75 72 69 77 80 78 80 81 71 60 54 48 41 36 34 31 29 28 29 27 27 27 29 31 29 28 26 25
51 51 51 52 54 56 59 62 61 64 66 75 77 68 72 71 71 78 78 74 75 76 69 62 55 49 43 38 35 32 30 29 28 27 26 26 26 27 29 29 27 25 23
51 52 54 56 59 60 62 63 66 68 74 67 66 71 70 72 76 75 72 74 69 66 61 55 50 43 38 35 33 31 28 26 26 26 25 25 25 26 28 29 29 27 23
53 55 58 60 62 64 62 64 69 69 69 71 76 78 75 78 77 72 70 65 62 58 54 50 45 38 35 33 30 28 27 25 24 25 25 25 25 25 26 28 29 29 26

GFSMW_500_spd_042.txt.gz
Wind_Speed
8 9 10 12 11 12 17 20 22 25 24 25 30 33 34 34 37 38 35 36 37 37 39 41 43 45 48 51 53 52 51 51 51 51 51 52 55 56 60 62 66 69 73
10 11 13 15 19 14 20 23 26 27 27 29 26 26 29 30 31 34 37 38 41 43 45 47 51 53 54 55 57 58 57 54 54 55 56 57 58 63 68 72 75 78 81
11 15 16 18 22 21 22 25 25 25 24 23 24 25 27 30 33 37 41 44 47 49 51 52 53 55 58 59 59 60 61 60 60 63 65 67 69 72 76 80 85 88 90
20 19 21 21 24 26 26 26 25 22 22 21 24 27 30 34 37 40 42 45 48 51 53 55 57 58 59 60 61 63 63 64 65 68 72 76 79 82 83 87 90 90 92
27 26 24 25 27 26 26 22 21 19 22 24 27 31 35 38 41 45 47 51 53 53 53 55 57 61 63 63 64 65 65 67 70 74 78 82 86 89 92 92 95 97 102
32 31 30 24 24 22 19 19 21 21 25 29 33 37 40 43 46 48 50 53 55 57 60 60 63 66 67 67 68 67 68 71 75 80 84 87 90 92 96 101 102 98 83
25 26 25 18 16 17 20 22 25 27 30 35 39 41 45 47 49 51 53 55 55 58 61 62 64 66 66 67 67 68 72 76 82 87 89 91 92 95 99 96 87 78 68
15 15 14 15 17 20 24 27 31 34 36 40 43 46 48 50 53 54 56 56 56 59 61 63 65 66 67 67 69 73 77 82 86 88 90 91 92 94 90 81 75 67 57
14 16 18 21 24 26 29 32 36 39 40 45 47 50 52 53 56 58 60 61 62 62 63 64 67 68 67 69 73 77 80 84 86 87 86 91 93 84 76 69 62 56 50
18 21 22 25 27 29 32 36 41 43 44 48 50 53 54 55 57 58 58 53 61 63 64 66 67 66 68 72 77 80 82 83 85 84 89 91 81 75 68 58 51 47 48
22 24 27 29 33 35 38 39 44 48 49 50 52 54 55 57 58 58 55 61 63 64 66 67 67 69 72 77 79 80 82 81 84 88 92 83 74 67 57 49 44 44 48
27 29 31 34 36 41 44 45 46 50 51 51 53 54 57 58 58 58 57 60 62 65 66 66 67 70 75 77 76 80 81 84 86 93 88 74 66 56 48 43 42 45 48
33 36 38 40 43 46 49 51 49 52 52 53 54 57 58 58 57 56 58 60 62 65 66 68 70 74 76 77 77 81 85 87 91 97 79 68 56 47 41 40 42 45 48
36 41 45 49 50 53 53 54 53 52 52 53 56 57 57 56 57 58 60 62 65 67 68 71 74 78 78 76 79 86 88 90 93 88 70 57 47 41 39 40 43 47 48
44 44 49 52 56 55 54 52 53 51 53 55 56 57 55 56 58 60 61 64 67 69 72 78 80 79 76 75 82 86 91 90 80 72 61 47 42 38 38 41 43 47 46
50 52 49 51 53 54 53 51 53 52 54 55 55 53 55 57 60 60 62 65 69 72 78 82 82 81 77 75 82 89 89 78 69 65 50 42 39 37 38 40 42 42 43
49 53 53 52 52 55 54 53 54 54 53 53 53 56 57 60 60 63 64 70 81 83 82 82 81 72 78 81 85 85 82 69 65 54 42 38 36 35 38 41 41 42 41
50 52 53 54 54 56 56 53 54 53 53 54 56 57 58 60 64 65 68 72 73 78 87 83 79 80 83 81 78 74 74 63 57 45 38 34 34 34 37 38 39 39 40
53 54 53 52 51 52 52 52 53 54 57 57 57 56 59 62 66 70 76 75 80 81 78 77 79 84 83 73 71 70 69 57 46 39 35 32 32 35 36 37 38 37 37
51 50 49 50 50 50 51 52 56 57 56 57 55 61 67 71 69 76 79 80 79 74 75 76 83 83 79 75 67 66 58 49 40 36 32 29 31 33 34 33 35 34 33
51 47 46 48 49 50 52 52 53 54 55 58 59 58 68 74 84 81 77 70 73 77 80 78 76 71 71 68 62 56 50 42 36 32 30 29 29 30 32 32 34 34 31
50 48 49 49 50 50 51 53 54 55 60 62 60 61 75 79 80 82 75 73 77 77 76 73 72 69 62 57 55 51 45 37 33 30 28 28 29 29 30 30 33 33 32
50 50 50 50 51 52 53 56 58 59 62 65 63 66 75 83 84 77 76 77 75 70 68 68 63 57 54 54 50 43 39 35 32 28 27 27 27 27 28 29 30 32 33
51 50 50 51 53 55 58 60 62 64 66 67 72 72 78 78 75 77 75 79 78 73 64 59 54 52 52 51 47 40 35 32 30 27 25 25 25 26 26 27 28 30 31
51 51 52 54 58 62 64 65 66 67 65 69 73 75 75 76 79 79 74 69 65 61 59 56 53 51 49 46 41 37 33 29 27 27 25 25 25 25 25 26 26 28 30
51 53 57 60 63 67 69 67 65 64 65 69 73 76 79 77 73 72 71 70 65 60 56 53 53 49 46 42 38 33 30 29 27 26 24 25 25 24 24 25 25 26 27

GFSMW_500_spd_045.txt.gz
Wind_Speed
6 6 7 8 4 8 9 12 15 17 19 19 20 23 22 22 24 24 27 28 31 33 35 38 39 42 44 46 48 48 50 52 52 52 53 50 49 48 52 55 58 62 65
5 7 9 6 7 9 16 16 19 22 20 20 21 20 19 20 24 26 29 33 36 38 41 43 45 47 48 51 52 52 54 56 57 58 56 52 48 51 56 60 65 69 73
8 14 18 18 16 16 18 20 20 19 16 17 16 17 20 23 28 32 34 38 42 44 46 47 48 49 50 52 54 56 58 59 59 58 56 56 58 61 64 68 72 77 80
9 11 16 24 22 22 22 19 18 16 14 15 19 23 26 30 33 37 40 44 46 49 49 50 51 52 52 54 56 57 58 59 58 56 60 65 68 71 74 77 81 86 90
17 13 13 20 24 24 20 16 15 15 17 20 25 30 33 36 39 42 44 48 50 51 53 54 54 53 54 56 58 58 61 62 60 62 66 70 74 78 82 85 88 92 97
19 16 13 14 17 23 18 16 17 18 24 28 31 35 38 41 45 49 51 54 56 56 57 58 59 60 62 63 63 63 65 63 63 66 71 76 80 84 89 92 94 98 97
20 17 13 11 10 13 17 19 22 22 27 32 35 39 43 46 50 53 55 56 57 57 58 59 58 58 64 63 64 65 65 66 69 72 76 79 83 86 90 94 98 99 91
15 14 12 11 13 17 20 23 27 27 30 35 39 43 46 49 52 54 54 55 56 58 58 53 60 62 66 64 66 66 67 69 72 76 77 82 83 84 89 90 89 85 76
13 14 15 15 18 21 24 28 32 33 35 37 41 45 48 50 52 53 54 55 56 57 57 51 58 62 64 66 67 67 70 73 77 81 83 80 81 88 91 84 77 71 64
16 18 20 21 23 25 28 31 35 38 40 42 45 47 50 50 51 53 52 55 56 57 57 53 58 62 65 67 68 70 74 79 83 83 78 80 87 89 82 72 66 60 56
20 22 24 25 28 30 32 36 40 44 45 44 45 49 51 50 52 53 56 57 48 60 60 59 61 64 65 69 72 74 78 83 86 82 81 85 87 85 74 66 58 51 48
24 26 28 30 32 35 38 38 41 45 47 48 48 51 51 48 53 56 57 56 51 58 60 61 63 65 65 71 78 81 85 85 80 83 84 90 90 72 63 58 48 45 43
29 30 34 36 38 42 39 41 45 47 46 50 50 50 46 54 56 58 57 55 56 59 61 62 66 68 72 76 80 81 84 86 83 83 87 89 85 68 54 48 44 41 41
33 37 39 42 46 41 42 45 48 49 51 52 52 54 56 56 58 56 56 57 59 61 63 64 68 72 78 87 84 85 85 82 85 86 87 85 71 58 47 42 39 38 39
40 43 46 45 40 39 43 45 48 51 54 53 55 57 56 56 55 58 59 59 59 61 68 70 73 77 80 82 84 82 78 84 80 82 77 67 62 49 43 38 36 36 38
44 46 50 49 49 41 42 45 54 55 53 55 55 56 54 55 58 60 60 59 63 64 66 72 76 84 83 82 78 78 82 76 73 69 61 56 51 43 39 34 34 36 36
44 47 50 49 51 52 40 51 53 52 52 53 53 53 55 57 57 59 58 67 72 79 81 81 84 79 78 75 78 79 74 71 63 57 55 49 42 39 34 32 33 35 36
45 46 48 50 51 50 49 51 50 50 52 53 54 55 55 56 57 60 62 66 68 81 85 84 78 76 74 78 76 71 71 63 55 52 49 43 37 35 30 30 31 33 35
48 50 51 49 48 48 47 47 50 52 54 55 55 56 56 56 62 69 69 68 74 75 83 80 75 76 79 74 73 64 59 54 50 46 44 39 33 31 28 29 29 31 33
48 47 46 45 45 46 49 50 51 52 53 54 56 57 60 58 61 70 72 73 76 81 78 83 77 79 77 73 61 54 52 48 46 43 39 34 31 28 27 27 27 29 31
47 47 46 46 48 48 49 50 51 53 54 55 58 62 64 64 68 73 76 79 78 80 78 80 78 70 64 58 53 50 48 45 43 38 35 32 28 27 26 26 26 27 29
48 49 50 50 51 51 52 52 53 55 57 60 63 64 65 68 68 72 74 76 77 78 77 69 66 61 56 53 50 48 46 44 40 34 32 29 26 25 24 24 26 26 28
46 47 49 50 52 53 53 54 56 60 64 66 68 68 69 70 71 71 73 77 77 71 68 66 65 60 53 50 50 46 42 40 35 32 28 26 25 24 23 23 24 25 27
49 50 51 51 51 52 54 57 61 64 65 65 66 69 71 71 71 73 75 71 67 66 70 72 67 60 53 50 48 43 40 38 32 30 28 26 25 23 22 23 23 24 25
52 53 53 51 52 56 60 62 63 62 64 65 67 69 71 72 72 69 65 66 70 71 73 74 68 59 52 47 44 41 38 37 31 25 26 26 25 24 23 23 23 24 25
52 51 52 55 59 61 61 61 61 62 65 67 69 70 69 67 64 64 64 69 73 72 74 68 62 55 51 46 41 38 37 35 30 24 24 23 23 24 24 24 24 24 24

GFSMW_500_spd_048.txt.gz
Wind_Speed
2 5 5 2 5 6 8 8 11 13 14 15 15 17 16 15 14 16 19 23 26 29 33 35 38 40 43 44 45 47 47 47 48 49 50 52 52 50 46 46 49 52 56
1 3 6 6 7 10 13 13 16 15 15 16 15 14 12 14 19 23 26 30 32 36 38 40 43 45 47 48 50 51 50 50 53 54 54 54 52 50 50 53 57 60 64
3 3 4 4 4 7 13 17 14 13 13 14 13 14 16 20 25 28 31 35 38 41 44 45 47 49 50 51 53 54 54 54 58 57 57 58 56 54 56 59 62 66 70
6 7 7 8 7 9 12 15 12 12 12 14 16 19 22 26 30 33 36 39 42 44 45 49 50 51 52 52 53 52 52 56 59 57 59 59 59 62 64 68 72 74 78
5 5 6 7 11 11 10 9 8 11 13 15 20 24 27 31 35 38 40 43 46 47 46 48 51 53 55 54 55 54 59 62 62 61 60 62 66 68 71 72 74 77 84
5 6 2 3 5 8 9 9 9 14 18 21 26 28 31 35 39 42 44 46 47 48 52 52 53 53 55 55 54 53 58 61 64 63 64 67 71 73 75 76 77 80 87
4 4 4 4 3 7 10 14 15 18 22 25 28 31 35 40 43 45 47 48 51 54 54 55 58 56 57 56 58 60 62 64 64 64 67 71 75 77 79 81 85 89 84
3 5 3 5 9 12 15 19 19 22 26 29 32 34 40 44 47 49 50 53 54 53 55 56 59 63 58 61 65 65 65 65 65 67 72 74 76 78 82 86 89 84 82
7 6 7 10 14 17 20 22 25 29 31 33 36 39 45 48 50 50 52 51 51 51 57 59 60 57 58 67 67 67 66 66 69 73 76 80 84 85 86 85 82 85 84
10 11 12 14 18 21 26 29 32 35 39 40 41 43 44 41 46 48 46 49 51 57 59 61 60 57 59 64 67 67 68 71 74 79 81 86 86 84 84 81 83 82 78
13 14 16 18 21 25 30 34 38 42 43 41 40 42 45 47 48 49 49 53 56 60 62 61 60 62 63 66 67 69 72 75 78 82 87 87 81 79 76 77 77 75 68
17 19 21 22 25 28 32 37 41 42 42 45 45 48 50 46 50 51 54 56 60 60 59 62 64 64 65 67 72 75 76 79 82 86 81 79 78 76 75 70 69 66 59
23 25 25 28 31 33 36 36 35 37 39 41 47 50 47 57 53 57 53 56 58 60 60 63 63 62 66 73 78 84 89 87 84 80 78 79 78 75 71 66 63 57 52
23 27 30 32 33 33 33 32 40 39 41 44 42 43 56 52 57 55 54 58 61 63 62 63 64 68 71 74 79 87 88 84 78 78 79 81 79 68 61 60 56 49 43
28 31 32 35 36 36 41 42 40 41 45 45 49 55 48 56 55 57 59 60 61 61 62 66 70 75 77 80 82 84 83 76 76 83 81 72 65 60 58 54 48 44 39
34 36 38 38 40 41 43 42 43 41 44 45 53 51 50 56 57 59 59 58 60 62 65 74 76 76 80 83 83 79 75 80 83 76 68 59 57 55 54 47 41 39 36
37 39 42 45 45 46 39 41 36 41 48 50 49 51 54 57 58 58 58 59 64 67 67 73 80 83 86 82 79 78 81 77 69 61 57 57 55 53 49 41 37 35 34
38 40 42 44 47 48 48 47 48 49 47 49 53 54 55 56 58 59 63 67 71 70 73 76 80 84 81 79 79 77 69 62 60 57 55 54 52 46 42 37 34 32 31
39 41 44 46 48 50 49 47 48 50 50 52 52 54 56 57 60 62 64 70 73 75 79 80 79 77 78 79 71 68 66 62 56 54 52 51 47 42 38 34 31 29 29
41 44 47 48 46 44 46 48 48 49 50 51 52 54 57 62 64 65 68 71 72 76 78 77 76 78 66 69 65 67 66 58 53 50 48 46 40 38 35 31 29 27 27
45 47 46 46 46 48 48 48 48 49 51 52 54 57 59 65 66 66 68 71 74 77 77 75 68 65 65 66 66 68 62 53 49 47 45 41 37 35 31 29 27 26 25
46 47 48 49 50 50 50 51 51 50 52 55 59 62 62 63 66 68 70 72 74 75 71 67 63 63 68 67 69 68 59 51 46 44 42 37 34 32 29 28 26 26 24
46 47 47 49 50 50 51 51 50 52 57 60 61 61 62 65 68 70 72 74 74 73 68 64 62 65 68 70 71 64 54 49 45 42 39 35 32 30 28 27 25 25 24
47 48 49 50 50 51 51 51 54 58 60 61 62 63 65 68 71 73 74 73 70 68 67 65 66 69 70 71 68 58 50 46 43 41 36 33 31 28 26 26 25 25 24
49 50 50 51 51 51 53 56 59 60 61 62 63 66 69 71 73 74 73 70 67 68 67 69 71 73 72 69 63 54 49 45 41 39 35 32 30 28 25 24 25 24 25
51 51 52 52 53 55 58 60 59 59 61 64 67 70 72 74 75 74 71 68 67 68 71 74 76 76 73 65 58 51 48 43 40 36 34 34 30 29 27 26 25 23 24

GFSMW_500_spd_051.txt.gz
Wind_Speed
4 4 5 6 7 6 6 4 2 3 6 8 11 13 15 13 10 11 15 19 23 25 27 31 35 37 40 43 45 46 46 48 48 47 48 51 50 51 53 54 54 51 52
9 7 4 3 3 3 3 2 2 5 5 9 11 12 12 11 14 17 20 24 27 30 33 37 39 43 45 47 48 49 49 50 50 50 51 53 53 55 56 56 53 54 57
7 6 5 3 4 5 4 5 5 6 7 9 11 11 13 16 20 24 26 29 32 36 38 42 46 48 49 50 50 52 52 53 54 55 56 55 55 55 58 56 56 59 62
9 6 7 6 7 8 8 9 7 7 8 9 13 14 18 22 26 29 32 34 37 40 44 46 48 50 50 50 50 52 53 54 53 52 55 60 61 61 55 59 61 65 68
9 9 5 9 11 10 10 9 10 9 10 12 15 19 23 26 31 34 37 39 41 45 47 48 48 50 51 48 51 56 57 60 58 58 63 65 66 63 62 63 66 70 75
9 12 11 13 15 11 10 9 11 10 12 17 20 22 27 31 35 39 42 43 45 47 48 49 50 51 46 51 61 61 61 59 57 64 69 68 67 67 69 70 72 75 77
8 8 8 8 9 9 8 9 11 13 16 20 24 26 32 35 40 44 45 47 48 48 49 48 52 51 51 60 62 64 62 62 63 67 69 69 70 73 76 78 79 81 85
9 6 6 6 7 9 11 14 15 17 19 23 27 33 37 41 46 47 50 51 51 51 53 51 50 60 55 63 68 62 63 66 68 69 70 72 75 80 83 86 87 89 84
7 7 7 8 10 12 15 17 19 19 23 28 34 39 42 44 46 49 47 52 49 54 57 55 53 57 68 71 68 67 70 71 71 70 73 77 81 84 88 90 89 83 79
8 10 10 12 14 16 19 20 21 24 30 35 39 42 44 44 47 48 52 52 48 57 57 53 57 65 68 68 69 71 71 72 73 75 80 83 86 87 88 84 81 81 82
12 13 13 15 18 21 23 26 28 32 36 40 44 41 44 46 49 53 50 51 56 41 44 65 64 66 69 69 70 70 72 75 78 81 83 85 87 88 85 78 81 85 86
19 18 18 19 23 23 27 30 33 36 40 40 41 46 50 49 50 51 49 51 47 51 66 64 65 68 69 69 69 73 77 82 86 87 87 91 89 82 79 81 85 77 70
22 24 26 25 23 28 30 31 32 34 40 40 44 43 46 50 53 52 55 59 61 61 62 64 66 67 68 71 74 78 80 83 88 91 92 83 78 78 85 83 74 67 67
22 24 25 25 30 34 35 35 34 36 41 37 41 45 47 49 49 55 61 64 60 62 64 64 66 68 71 74 78 81 84 86 89 93 86 81 84 87 77 70 65 64 63
23 23 26 29 29 32 33 34 34 37 37 43 49 46 48 52 57 60 62 60 63 63 64 65 68 71 77 80 84 86 87 92 88 84 87 86 77 66 64 64 62 60 57
25 28 30 32 32 33 32 34 40 39 38 42 43 51 53 58 58 56 60 60 62 63 64 68 74 73 79 81 87 86 89 87 85 81 73 70 67 63 62 60 58 57 52
29 30 32 35 37 38 41 44 46 48 46 46 49 52 53 55 56 58 60 60 62 65 68 73 74 75 78 81 84 86 83 78 71 69 65 69 65 59 58 56 55 51 46
31 33 36 37 39 42 45 46 48 49 48 49 50 50 54 56 57 57 58 61 62 68 74 77 75 75 78 80 81 79 74 66 65 66 69 69 59 56 54 52 50 45 42
33 35 36 39 42 44 46 48 47 47 48 49 51 53 55 55 56 57 61 65 66 68 70 73 75 77 78 78 77 73 65 64 66 69 71 65 56 53 50 49 45 41 39
34 37 40 42 45 47 47 47 48 48 49 50 52 53 55 55 58 62 64 64 66 69 71 73 77 77 77 75 72 66 65 67 69 71 69 60 51 49 47 45 40 37 35
37 39 42 44 46 46 47 46 47 49 50 52 53 50 52 58 62 62 63 66 68 70 73 76 76 76 74 69 67 66 66 68 69 70 64 55 49 46 45 42 37 35 33
40 42 44 46 46 46 47 47 49 51 52 51 51 54 58 60 60 63 65 67 71 73 75 76 76 74 70 67 67 67 68 70 71 68 58 51 47 44 43 40 35 33 31
43 44 45 46 47 47 49 50 50 51 51 53 56 58 58 60 62 64 68 71 75 76 77 79 78 73 69 68 68 68 70 72 71 64 53 48 45 43 41 38 33 32 31
44 46 47 48 49 50 51 51 51 53 54 57 59 60 61 63 66 70 73 76 77 78 80 80 77 73 69 68 69 71 72 73 69 59 50 45 44 41 39 36 32 30 28
47 48 49 50 51 52 52 53 54 56 59 60 61 61 63 67 70 73 75 78 79 81 82 80 77 74 71 69 72 75 75 70 62 55 47 43 42 40 37 35 32 30 29
49 50 51 52 52 52 54 55 57 59 61 62 62 64 67 71 74 77 79 80 81 81 80 78 77 75 75 76 76 75 73 64 56 50 43 40 39 37 35 33 33 32 31

GFSMW_500_spd_054.txt.gz
Wind_Speed
7 7 7 8 9 9 9 8 8 8 8 9 9 8 8 7 8 8 10 15 18 22 25 28 31 35 39 42 44 46 46 47 48 50 51 52 53 53 51 50 51 54 56
9 10 11 12 13 13 13 12 10 9 9 10 9 8 8 7 9 11 16 21 24 26 30 33 36 39 43 45 47 48 49 49 49 51 53 54 56 55 53 54 56 58 59
8 11 12 11 10 10 10 11 11 10 10 10 10 9 8 9 13 18 22 26 28 31 34 38 40 43 46 49 50 50 49 49 50 56 58 58 57 55 56 60 61 61 61
10 10 9 10 11 11 13 11 10 12 12 10 12 12 11 14 19 21 26 30 33 36 39 42 44 46 49 49 50 48 48 47 53 58 64 61 60 61 62 62 64 64 64
14 13 10 9 12 14 15 15 14 13 13 13 12 14 16 19 21 24 31 36 39 42 45 45 45 47 50 49 51 48 52 54 57 66 68 65 65 66 67 67 67 68 71
16 18 17 17 18 20 17 17 15 15 15 15 14 16 19 21 22 29 38 42 45 46 48 44 49 50 53 53 53 53 58 60 65 70 69 69 70 71 71 71 72 75 79
21 22 22 23 23 21 18 16 13 14 17 18 16 20 22 25 26 35 42 46 45 46 47 48 53 53 54 51 59 57 64 69 71 73 72 71 73 73 76 78 80 82 84
17 21 20 19 19 19 16 13 14 17 20 20 18 22 26 29 32 41 44 43 44 47 47 51 53 55 56 48 59 64 67 65 69 74 73 74 75 78 82 85 87 89 91
17 18 17 17 17 15 14 14 16 19 21 21 23 28 31 36 41 41 42 46 45 48 49 56 48 47 47 61 63 72 71 72 74 75 74 76 80 84 87 90 92 93 95
17 18 17 16 16 17 18 17 20 22 24 26 29 32 35 38 38 40 44 41 46 52 57 56 53 58 53 66 72 72 73 74 74 75 78 81 83 86 89 91 94 92 88
20 18 17 17 18 19 19 20 24 27 30 32 34 35 38 39 38 40 44 48 51 57 60 57 59 58 67 67 71 74 74 74 77 79 83 88 88 94 92 92 90 88 87
21 21 21 21 22 22 24 27 30 31 32 34 34 37 39 41 42 43 44 54 55 59 57 61 65 67 67 71 72 71 73 77 80 83 85 86 89 91 89 86 84 81 77
25 25 25 26 27 30 32 33 34 36 37 38 37 39 40 45 45 46 49 59 61 62 64 70 69 67 72 70 72 73 76 80 83 84 85 85 86 85 83 81 74 71 71
23 22 27 30 31 33 35 35 35 33 35 36 38 40 45 46 49 49 61 59 61 64 60 65 69 70 69 71 74 76 81 86 82 82 83 83 83 81 76 71 71 71 66
22 23 25 27 30 32 33 33 34 34 34 34 42 42 42 44 52 52 57 58 61 61 62 65 67 68 70 73 76 80 83 82 82 82 82 82 80 75 71 70 71 67 61
24 25 27 29 30 30 33 34 33 33 37 39 42 46 44 45 51 54 57 57 61 61 62 63 67 70 74 75 76 78 81 81 81 82 82 79 72 69 69 70 69 61 57
29 28 29 30 32 33 34 35 37 40 42 45 47 48 49 51 52 55 57 58 61 60 56 65 71 73 73 74 76 78 79 81 81 82 78 72 69 68 69 69 65 57 53
29 29 30 31 33 33 35 38 41 43 46 48 49 50 51 53 55 56 58 59 60 61 65 68 71 71 74 75 78 79 80 82 81 77 72 68 67 68 69 68 58 53 49
29 30 31 32 33 36 38 41 43 45 47 49 50 51 52 54 55 57 57 57 56 70 70 70 71 73 75 77 80 82 82 81 76 72 70 69 67 69 70 64 54 50 47
31 32 31 33 36 38 41 43 46 48 49 50 51 52 53 54 55 57 58 60 63 67 68 70 73 74 76 81 82 83 82 79 75 71 69 70 68 70 69 59 50 47 45
31 32 34 36 38 41 43 46 47 48 49 51 53 54 54 55 56 57 59 62 65 66 69 72 74 77 80 81 82 81 80 78 74 70 69 70 71 71 65 55 47 45 42
32 34 36 39 41 43 45 46 48 50 51 52 53 53 55 56 58 61 63 65 66 68 71 74 76 79 82 84 83 81 80 77 73 69 69 70 71 69 59 50 45 43 39
34 36 39 41 43 45 47 49 51 51 53 53 53 55 57 59 61 64 65 66 68 71 75 78 80 82 84 84 82 81 78 75 74 72 72 72 69 62 53 47 43 41 36
37 39 41 43 46 48 51 52 53 53 53 53 55 57 59 62 65 66 67 68 72 76 79 82 85 88 89 87 80 78 79 79 79 77 73 68 62 53 47 43 41 39 34
41 43 45 48 50 53 54 54 54 53 53 55 57 60 63 65 67 67 69 72 76 80 84 87 90 92 90 83 79 79 79 79 76 73 67 57 54 46 43 41 39 37 33
45 47 50 52 53 54 55 55 54 54 55 56 59 63 66 68 68 69 71 74 77 81 85 89 89 86 86 85 80 76 74 70 64 60 55 53 50 43 41 40 37 35 32

GFSMW_500_spd_057.txt.gz
Wind_Speed
10 10 10 9 10 12 14 14 15 14 14 13 10 12 12 13 12 10 9 11 11 15 19 22 26 29 33 36 38 38 40 41 42 42 44 45 46 49 52 54 55 55 55
11 12 13 11 11 13 14 15 16 15 14 14 13 13 14 12 12 11 13 13 15 19 22 26 30 33 36 39 39 40 42 43 43 41 45 49 50 52 56 60 59 59 58
8 8 10 10 12 14 15 14 12 11 13 14 17 16 15 14 15 16 16 19 18 21 26 31 35 38 40 41 43 43 48 48 45 46 48 55 57 58 61 63 66 63 61
9 10 10 10 13 14 15 16 15 15 16 17 16 16 13 13 15 16 20 24 23 25 33 36 40 40 41 42 47 47 49 45 47 53 54 57 63 63 65 65 65 64 65
13 15 16 18 18 19 20 21 20 18 17 17 17 16 16 17 20 23 23 25 28 34 39 39 40 42 43 42 46 48 49 53 51 56 59 63 66 65 66 67 68 69 72
19 18 21 21 19 21 20 19 19 16 16 17 19 19 20 20 22 22 24 24 32 38 34 40 43 46 44 46 49 50 53 59 58 59 63 71 73 71 71 71 73 77 79
24 23 22 22 23 24 22 17 15 15 16 17 20 26 29 23 21 24 28 30 33 34 36 43 46 48 46 50 51 54 54 58 63 70 71 73 73 73 74 76 80 83 85
19 25 28 28 28 29 23 17 15 15 16 18 24 31 32 23 21 28 31 32 33 35 41 44 51 46 51 55 59 59 56 59 65 72 72 75 77 77 78 82 85 85 83
15 23 27 29 27 23 19 16 17 18 19 21 24 31 32 27 30 33 34 35 38 40 45 46 45 50 58 59 60 60 60 67 70 72 75 76 78 79 82 87 87 86 86
17 17 19 21 22 22 21 20 20 21 22 24 27 32 32 32 33 34 38 37 38 40 42 47 50 56 60 64 63 67 69 66 71 74 74 77 79 81 84 87 86 87 87
17 18 19 20 24 25 24 22 23 25 27 28 30 33 32 34 37 36 33 37 38 38 49 48 53 58 65 63 62 65 70 76 76 75 77 81 81 84 85 85 86 87 87
18 22 23 23 24 24 24 26 27 29 32 34 33 34 37 40 34 33 35 38 42 35 53 54 58 62 68 69 63 71 77 73 74 78 81 81 81 82 85 85 86 85 81
22 21 25 29 30 30 30 32 33 34 35 35 36 38 38 33 38 41 42 41 31 49 55 62 65 66 65 55 62 77 72 72 79 81 79 81 82 83 85 86 84 80 75
25 26 26 30 34 36 36 37 36 35 35 37 37 37 38 37 41 38 42 48 49 53 61 60 62 56 64 67 69 67 72 81 82 80 80 81 83 85 85 85 79 75 70
23 23 23 29 31 33 34 35 36 35 35 35 36 36 39 41 43 44 49 49 51 52 54 60 61 63 67 65 63 68 77 81 80 80 81 83 85 85 83 80 75 70 68
26 28 26 26 29 30 30 31 32 34 35 35 37 38 40 42 44 46 50 51 52 54 56 61 61 63 68 69 69 77 84 80 81 81 83 85 86 84 81 76 71 68 67
29 29 29 30 30 30 30 31 33 34 35 37 39 42 43 45 48 50 52 53 54 56 58 61 60 61 63 71 77 82 81 81 82 83 86 87 86 82 78 73 68 66 65
30 28 27 29 29 29 30 32 33 35 37 40 42 44 46 49 51 52 53 55 56 57 57 62 64 67 69 75 80 78 80 82 83 86 88 88 84 80 76 70 66 66 66
28 27 27 27 28 30 30 32 34 37 39 41 43 46 49 51 52 53 54 55 56 58 61 63 67 69 72 75 77 79 81 83 85 88 89 87 81 76 72 67 66 66 68
26 26 27 29 30 30 32 34 36 38 41 43 46 48 51 53 54 56 57 57 58 60 62 65 69 71 72 74 77 81 83 86 88 90 88 81 76 72 71 71 70 69 68
27 27 28 28 30 31 34 36 38 41 44 45 48 51 53 54 56 56 56 57 59 60 64 67 70 71 73 75 79 83 87 91 93 92 85 78 76 78 77 75 71 67 63
25 26 28 29 31 33 36 39 42 44 47 50 52 54 55 56 55 56 57 56 58 61 65 67 70 72 75 79 82 86 91 94 94 87 80 77 78 77 73 70 65 60 56
27 29 30 32 35 37 40 42 45 48 51 53 55 56 56 56 56 57 57 60 64 67 70 71 72 74 78 81 85 89 92 91 88 85 81 77 73 72 68 62 57 54 46
30 32 34 37 39 42 43 47 49 52 55 56 56 56 56 57 59 61 62 66 71 73 76 78 80 80 81 85 90 91 90 84 80 79 77 73 65 58 57 51 44 44 41
34 36 39 41 43 46 49 51 53 56 57 57 57 57 58 60 62 63 67 72 77 80 81 80 82 83 87 90 91 88 83 77 74 70 63 53 51 51 46 42 44 46 41
38 41 43 45 48 50 52 55 57 58 58 58 59 60 61 61 62 66 72 76 78 78 79 81 85 90 91 89 85 80 74 72 68 59 49 46 46 43 39 42 41 41 41

GFSMW_500_spd_063.txt.gz
Wind_Speed
4 2 2 4 6 5 4 5 9 8 7 4 3 4 5 7 9 11 13 14 19 20 16 16 15 16 18 20 24 27 31 33 32 35 37 38 37 40 44 46 46 47 49
5 6 5 4 5 5 5 5 5 5 4 5 7 8 10 11 13 15 17 20 21 19 18 19 21 20 23 23 26 32 35 29 30 34 38 41 45 47 46 48 51 51 54
5 4 4 5 5 5 6 6 7 8 10 11 12 12 14 16 17 18 19 20 19 20 20 24 24 25 28 29 36 40 40 35 31 36 42 46 48 51 56 58 58 58 58
4 4 4 5 6 7 8 9 10 11 13 13 15 16 17 17 18 18 19 20 20 22 24 26 29 32 37 40 42 44 39 40 38 38 46 51 54 57 61 63 64 64 64
5 6 7 8 9 9 10 11 12 13 14 15 17 18 18 20 20 20 22 24 23 25 27 30 27 31 35 35 41 42 43 44 41 47 48 52 56 59 61 64 61 65 72
9 11 13 14 15 15 15 15 16 15 14 17 19 21 22 22 22 24 26 27 29 29 34 32 30 31 35 38 40 42 45 49 44 52 51 58 61 66 64 74 69 70 71
14 15 17 18 16 17 19 18 18 18 17 16 17 19 19 21 20 22 25 28 40 33 37 27 30 36 39 40 39 42 46 50 51 52 53 59 63 64 71 73 74 74 78
24 25 23 21 19 17 19 21 20 20 18 19 18 18 19 21 22 27 28 29 38 41 32 32 37 39 40 33 41 46 50 52 51 56 54 61 61 70 78 77 75 79 82
23 21 19 18 17 17 20 22 21 20 18 21 22 22 23 24 26 27 31 35 39 39 31 38 44 33 39 42 45 51 53 50 50 54 62 71 75 75 73 74 75 83 79
25 21 18 17 16 18 18 19 20 21 21 21 23 25 28 30 31 31 34 39 41 42 42 45 35 39 44 44 44 53 54 45 55 66 79 78 74 75 74 75 77 81 83
24 22 21 19 21 21 22 20 22 24 25 25 26 27 31 31 34 38 40 40 41 43 44 44 40 35 39 39 41 51 59 58 61 68 79 81 77 75 73 76 80 84 86
24 25 23 22 22 26 26 24 25 28 29 29 31 30 32 35 38 42 46 45 44 45 46 43 38 47 44 54 55 52 61 66 73 77 80 75 72 76 76 82 83 88 88
23 24 25 26 27 29 30 30 29 31 32 32 33 35 38 41 43 46 46 46 47 48 46 47 44 45 55 55 58 57 61 67 68 70 71 72 76 79 82 85 84 86 87
23 23 23 24 27 30 33 36 38 38 39 40 41 43 45 45 46 45 46 47 48 48 48 48 48 50 52 54 57 59 61 63 65 65 63 70 73 78 80 84 85 86 87
26 24 25 25 26 28 29 31 35 38 41 40 39 39 41 43 45 46 44 45 46 47 47 48 49 51 54 56 59 61 63 63 64 65 66 68 70 74 79 82 83 86 88
27 27 28 29 30 31 30 31 33 35 36 33 34 35 39 38 40 41 42 43 44 45 47 49 52 56 58 60 62 63 63 64 65 64 65 70 74 79 82 82 81 84 89
29 29 31 33 34 33 34 33 33 35 37 38 38 36 37 38 39 39 40 43 45 47 50 53 56 59 61 62 62 63 63 65 65 66 69 73 79 82 83 84 87 88 90
28 29 30 32 32 32 33 33 34 35 36 37 38 39 39 39 40 41 43 45 48 51 54 57 60 62 62 62 63 63 65 65 65 67 72 78 82 83 84 87 89 92 93
27 28 29 31 31 31 31 31 32 33 34 36 38 38 39 40 41 43 46 48 51 53 57 60 62 62 63 62 63 65 66 66 67 72 77 83 85 85 85 89 90 89 85
29 30 31 31 31 30 30 31 32 33 35 36 36 37 39 41 43 45 48 51 53 57 61 63 62 63 63 64 66 68 67 69 72 76 82 85 87 87 89 90 90 88 80
30 30 31 31 31 31 32 32 33 33 34 35 37 39 41 43 45 48 51 53 57 61 63 63 63 64 66 69 68 66 70 73 77 81 85 87 87 88 90 89 87 81 74
33 32 33 32 32 32 33 33 34 35 36 38 40 42 44 46 49 52 55 58 61 64 64 63 65 67 67 65 66 69 73 78 82 86 88 88 89 90 89 86 81 74 69
35 34 34 35 36 36 34 35 37 38 40 42 44 45 47 50 54 57 60 63 65 64 63 65 66 65 64 67 70 73 77 82 85 88 88 89 90 89 85 79 72 67 59
37 36 36 37 38 36 37 38 39 41 43 45 46 49 52 55 58 61 64 65 63 64 65 66 65 66 68 72 74 77 81 85 88 89 88 90 89 86 80 72 66 61 51
36 36 36 35 36 38 39 41 43 45 46 48 51 54 57 59 62 63 64 63 64 67 68 67 68 70 72 75 79 83 86 89 91 89 90 90 87 81 72 67 61 55 47
40 39 37 38 39 41 43 45 47 48 50 53 56 58 61 61 63 64 63 65 68 69 69 70 72 74 76 80 84 87 89 90 89 89 87 84 78 72 68 65 58 51 45

GFSMW_500_spd_066.txt.gz
Wind_Speed
7 3 5 3 10 13 14 13 11 12 13 11 9 7 6 6 4 4 5 7 10 11 14 16 16 17 16 18 21 21 22 22 25 30 29 30 27 32 36 39 41 44 47
2 5 6 4 6 8 7 8 8 7 6 6 5 4 3 2 4 7 10 12 14 15 17 17 18 19 22 23 26 26 28 30 33 37 34 35 33 36 38 40 42 46 50
3 2 2 6 7 6 6 7 5 4 5 5 5 6 7 8 10 12 13 14 15 16 17 18 17 22 28 29 32 35 38 42 40 40 40 40 41 40 43 47 50 53 53
3 2 1 1 2 2 3 4 5 5 7 8 9 10 10 11 11 13 14 16 17 18 19 21 23 26 30 35 38 37 41 40 39 38 41 45 47 49 50 53 58 64 61
5 2 2 3 5 5 5 6 6 7 7 10 12 14 14 15 14 15 16 17 17 20 22 25 29 32 36 35 36 38 37 40 42 40 46 49 49 52 53 55 55 61 66
7 5 1 3 7 6 5 7 8 9 8 10 14 16 17 16 16 16 16 17 21 23 29 28 33 39 38 39 36 37 43 46 35 43 53 56 57 54 55 54 57 61 68
9 9 9 12 14 10 10 7 8 9 9 10 13 15 15 17 16 16 16 19 19 28 31 29 33 27 31 37 41 42 45 38 39 42 56 59 61 55 59 62 68 72 70
14 15 17 16 14 12 13 12 11 11 10 11 13 14 16 16 19 20 21 24 24 27 29 31 31 33 31 31 30 30 35 33 38 46 53 58 59 61 63 68 76 74 71
20 19 17 19 18 16 15 14 15 14 13 13 16 23 17 19 29 28 26 29 28 31 34 35 35 34 36 36 34 40 36 40 42 47 55 60 61 64 69 77 73 75 74
21 22 24 23 22 20 17 16 16 16 16 17 18 20 24 27 29 31 29 31 31 35 39 40 40 40 40 37 41 34 34 46 46 56 64 59 68 69 72 80 77 74 76
21 23 24 26 24 23 22 19 18 20 22 24 24 23 26 31 34 28 32 35 37 39 41 43 43 43 44 42 41 45 47 44 57 57 61 61 65 70 76 74 73 70 74
19 22 24 24 27 25 24 25 21 24 27 29 33 29 26 31 32 36 39 40 43 44 44 44 45 46 46 45 46 47 48 53 56 58 60 62 64 66 68 70 70 70 72
22 22 22 24 27 29 29 29 27 30 30 32 31 31 35 36 37 39 42 46 48 47 47 48 48 48 47 48 48 48 50 54 58 60 61 63 64 65 67 68 68 70 75
19 25 26 24 26 27 29 32 33 33 34 33 35 39 41 42 45 44 44 44 46 46 49 46 47 48 48 49 50 52 55 58 61 62 63 65 66 66 67 69 71 73 78
26 24 27 27 24 25 25 27 30 31 32 35 36 40 41 40 39 39 39 43 44 45 45 46 47 47 48 49 52 56 59 62 63 64 65 65 66 69 69 70 72 76 81
27 27 28 34 28 26 28 30 31 33 34 36 37 38 37 35 38 41 42 41 42 43 44 45 46 47 49 53 56 60 63 65 65 65 66 67 69 70 70 72 77 81 84
28 30 31 35 32 26 29 34 35 37 38 37 37 37 38 40 41 40 40 42 43 43 44 45 47 50 53 56 60 63 65 65 64 65 67 69 70 70 72 76 79 83 87
24 26 27 31 32 32 32 35 37 38 38 38 39 40 41 40 40 41 43 43 43 43 46 47 50 53 56 60 63 65 65 65 66 67 68 69 68 72 76 79 82 86 90
26 27 29 31 31 32 33 34 35 37 37 38 38 39 40 41 43 43 43 43 44 46 48 50 53 56 59 63 65 65 64 66 67 66 66 69 71 75 79 83 87 90 89
28 29 30 32 33 34 35 35 35 35 35 36 37 39 40 41 41 42 43 45 47 48 50 54 57 61 64 64 63 65 66 67 66 65 68 71 75 78 83 88 91 92 89
32 33 34 35 35 36 36 36 35 36 37 37 38 38 39 40 41 43 45 47 49 51 55 59 62 64 64 63 64 65 66 65 66 69 71 74 79 83 87 90 91 91 90
33 34 35 36 37 38 38 36 36 37 38 39 39 41 42 43 44 46 48 49 52 56 59 63 63 64 65 64 65 66 67 68 70 72 75 79 82 86 88 91 91 90 89
35 37 37 37 39 39 39 40 39 40 40 41 42 43 44 46 48 50 52 54 56 60 63 63 65 65 64 67 68 69 70 71 73 76 79 83 86 88 89 89 87 87 83
37 35 35 39 41 39 39 40 42 41 40 42 44 46 48 50 52 53 55 58 62 64 64 66 65 66 68 69 71 72 74 75 77 79 83 86 88 89 89 87 86 83 77
35 37 39 41 41 40 41 43 42 42 43 45 48 50 52 54 56 58 60 64 63 64 66 67 67 68 70 70 73 75 77 78 80 83 87 89 90 89 87 85 82 76 70
41 41 40 41 41 41 44 45 47 48 48 49 52 54 56 59 62 63 64 65 65 67 68 69 70 71 73 74 76 77 80 82 85 88 90 91 89 87 85 82 76 69 63

GFSMW_500_spd_069.txt.gz
Wind_Speed
5 6 8 12 10 10 13 17 19 20 19 18 18 18 17 16 14 13 11 6 4 3 7 10 14 14 15 18 20 20 21 22 23 25 24 27 31 29 31 34 34 34 36
1 2 8 9 9 10 12 14 16 15 14 14 15 15 13 11 7 4 2 2 3 6 10 12 14 14 17 19 22 23 25 27 29 33 37 38 38 35 35 36 38 42 47
4 2 2 7 9 10 9 9 10 10 10 10 9 9 7 5 2 0 2 5 6 7 10 11 11 15 18 19 22 29 32 33 36 38 43 42 38 34 36 40 45 48 47
4 3 3 6 7 7 8 8 8 8 7 6 4 3 3 3 3 3 4 7 8 9 10 11 12 14 21 26 29 30 31 34 38 42 43 39 42 41 30 42 48 48 54
3 2 6 6 5 3 4 5 6 6 3 1 2 3 4 5 6 6 5 7 10 9 10 15 18 22 24 28 34 39 39 34 38 46 44 44 42 44 41 44 52 55 54
2 4 2 2 5 3 1 2 4 4 2 1 3 4 4 5 6 8 6 9 12 12 13 16 17 17 25 28 31 28 30 33 37 36 41 47 44 47 45 51 55 57 56
7 6 6 6 8 4 4 2 2 4 4 5 7 7 9 7 9 10 10 13 14 13 17 17 17 20 22 25 26 30 31 31 30 34 39 41 34 42 49 55 61 56 62
9 10 12 9 9 8 8 9 9 9 10 11 13 13 13 12 14 16 13 19 19 21 21 21 21 24 27 28 28 30 32 34 35 40 44 35 42 48 54 60 58 57 60
13 15 12 13 7 9 11 13 14 15 15 17 16 16 19 20 20 24 22 25 24 25 25 24 27 30 31 33 34 34 36 36 37 32 39 49 44 50 58 59 60 56 64
15 13 15 14 14 16 17 17 17 17 18 18 19 19 22 24 26 28 28 29 31 26 25 26 32 35 37 38 38 38 38 39 40 42 43 45 50 57 58 60 61 63 64
13 13 16 20 20 19 20 21 20 21 23 24 21 23 26 27 31 33 36 38 28 30 32 34 35 40 40 40 42 40 40 42 44 43 44 47 51 56 60 62 63 63 64
14 16 17 18 18 15 14 15 23 25 25 27 26 29 31 30 37 40 44 31 32 37 38 38 39 38 40 41 40 42 43 44 45 46 49 52 56 60 62 63 63 64 66
20 15 17 19 21 21 19 20 25 31 26 33 26 29 29 34 29 29 34 36 38 39 39 39 40 41 42 42 43 44 44 45 47 50 53 57 60 63 64 64 64 66 69
25 24 17 20 23 22 23 24 30 28 22 24 23 29 29 35 35 36 38 39 39 37 37 39 42 41 42 43 43 44 44 47 50 53 57 61 64 64 64 65 68 69 68
30 28 24 26 18 19 24 26 30 31 31 28 28 29 32 35 37 39 39 39 38 39 42 41 41 42 43 43 43 45 47 50 54 57 61 64 64 64 64 65 65 66 68
33 31 32 32 23 18 22 25 29 32 32 32 33 34 37 39 39 39 38 39 41 44 42 42 43 43 44 45 45 48 51 54 58 62 64 64 65 64 65 65 66 69 71
17 23 29 31 31 22 23 25 28 30 32 34 36 38 40 40 41 41 41 44 46 43 42 42 43 44 45 46 49 52 56 59 62 63 63 64 65 66 66 66 67 70 74
22 31 31 28 26 24 23 26 28 30 32 34 36 38 39 40 41 42 43 42 42 42 43 43 44 45 47 50 52 56 59 62 64 64 64 64 65 66 67 68 69 72 75
28 25 26 26 28 28 28 29 31 33 35 36 38 38 38 39 41 41 41 42 43 43 44 45 46 48 51 53 57 60 63 64 65 64 66 66 67 69 71 72 74 76 79
30 27 27 28 29 31 32 34 35 36 38 39 40 39 38 40 41 41 42 43 44 45 46 48 50 52 54 57 60 63 63 65 65 66 67 69 70 71 73 77 79 81 83
31 32 31 30 31 34 34 34 35 37 38 39 39 39 40 42 43 42 43 44 46 47 49 51 54 55 57 60 63 64 65 66 68 69 70 70 72 74 76 79 83 86 88
30 33 35 35 35 35 34 35 36 38 39 39 40 41 43 44 44 44 45 47 48 51 53 55 56 58 61 64 66 66 67 68 69 71 72 73 75 77 79 82 87 91 94
33 34 35 35 35 36 35 35 35 37 38 39 40 41 43 44 45 46 48 50 52 54 56 58 60 64 67 67 68 68 69 69 71 73 75 76 78 81 84 87 91 94 96
37 37 36 37 37 36 37 39 38 38 39 40 40 41 43 45 47 50 53 54 55 55 59 62 64 67 68 70 67 68 69 71 75 78 80 81 84 86 88 91 95 96 94
41 41 38 38 39 40 40 40 39 38 40 40 42 44 47 48 50 52 55 57 58 62 61 63 67 68 70 68 70 73 74 78 81 83 85 87 88 89 91 94 95 91 87
43 42 41 40 41 40 41 43 43 43 43 44 46 49 51 51 52 55 57 60 63 64 64 66 70 73 74 71 73 75 78 82 85 87 87 89 91 92 94 94 91 86 83

GFSMW_500_spd_072.txt.gz
Wind_Speed
1 7 7 7 7 10 12 5 6 8 10 11 13 15 16 18 17 18 16 15 14 13 13 12 11 10 10 14 18 20 23 25 23 24 26 25 28 32 35 36 33 32 30
3 5 6 6 10 7 13 16 20 18 16 17 16 18 18 18 17 15 13 11 11 10 9 11 10 13 15 17 20 24 26 27 28 28 31 31 34 32 36 37 36 34 31
4 7 6 6 8 8 8 11 13 15 15 14 13 13 12 12 11 11 10 10 9 8 9 11 13 15 15 15 18 21 23 28 31 34 33 34 36 35 36 39 37 41 39
6 8 6 6 7 8 9 10 11 12 13 14 12 12 11 8 6 6 6 7 8 8 10 11 10 12 14 15 17 22 26 29 32 36 38 37 42 47 39 43 43 42 43
7 10 8 8 9 10 8 8 7 7 7 8 9 9 9 10 8 7 8 9 10 12 13 11 9 13 14 15 17 21 22 23 26 30 29 34 41 42 39 37 44 39 38
4 7 8 6 5 8 12 10 8 8 9 10 9 9 10 10 10 11 12 11 12 12 11 13 14 11 12 12 14 18 21 24 26 29 30 33 38 38 42 39 37 40 41
6 7 8 7 4 3 6 8 9 10 10 9 9 10 11 9 11 12 12 14 13 13 16 16 18 19 18 17 17 20 22 26 30 32 34 37 40 39 38 38 47 43 46
6 6 8 11 12 7 5 4 6 8 9 11 12 14 14 12 13 14 16 17 19 20 21 20 22 25 23 22 25 26 25 28 31 34 34 37 38 37 43 43 42 44 49
2 7 12 10 10 10 6 6 7 9 10 14 17 17 16 16 18 21 20 21 23 26 29 28 25 23 24 23 25 27 30 32 34 36 35 36 37 39 40 43 47 50 53
5 5 5 12 11 10 11 11 11 13 15 16 17 18 22 23 24 27 25 24 29 31 33 35 30 25 27 26 29 31 32 34 34 35 37 37 38 40 42 46 49 52 56
9 7 5 6 11 12 11 11 14 17 19 20 22 25 26 28 29 30 29 33 33 41 32 29 27 27 26 30 32 33 35 35 36 37 37 38 40 43 45 49 53 58 58
17 18 12 7 8 9 10 13 18 22 24 25 28 32 33 34 35 35 32 33 28 35 41 29 29 28 28 30 34 36 36 37 38 39 41 41 43 46 49 53 57 56 58
17 22 20 19 11 12 11 14 17 21 22 30 24 21 26 32 26 33 27 25 34 34 35 32 28 30 32 36 36 38 38 40 39 41 42 44 47 51 55 58 57 60 63
17 10 19 21 19 16 19 19 19 20 23 23 22 22 27 29 29 29 28 30 34 35 34 32 33 36 38 39 40 42 41 41 42 43 45 48 52 56 60 61 61 61 64
26 20 24 20 21 22 21 24 25 22 24 25 25 23 28 31 31 34 33 35 36 37 40 40 40 40 41 41 43 44 42 43 44 46 50 53 58 60 63 63 64 65 67
33 31 26 22 12 21 22 26 30 31 27 26 26 27 28 30 32 35 36 39 39 39 41 43 43 44 42 43 43 42 43 45 48 51 54 58 61 63 65 64 66 68 70
31 26 22 22 21 12 13 18 24 29 30 28 27 29 31 33 35 36 38 39 40 41 42 43 43 43 43 43 44 45 47 51 54 56 59 61 65 67 66 67 70 71 72
33 24 23 26 24 23 20 18 21 24 27 29 31 33 36 38 39 40 42 42 42 42 42 43 43 43 44 45 47 49 52 55 57 59 61 65 68 68 67 69 71 73 74
38 33 26 26 31 29 27 26 25 25 27 30 32 33 34 36 39 41 42 42 43 44 46 45 45 46 47 49 51 53 56 58 60 63 66 70 69 70 71 70 71 73 74
34 31 26 28 27 30 31 31 31 31 31 33 34 35 36 37 39 40 41 43 45 47 48 47 47 49 51 52 54 56 58 61 65 68 71 71 72 74 73 72 73 74 76
32 31 31 31 31 32 32 31 33 35 36 36 37 39 40 41 40 40 42 45 47 48 48 49 50 52 54 55 57 58 61 65 67 70 72 72 71 71 72 74 77 80 82
31 33 31 30 31 34 36 36 36 38 38 38 40 40 40 39 39 41 43 44 46 47 47 48 50 53 55 57 58 62 64 65 68 71 72 74 75 75 76 78 80 83 86
35 34 34 32 34 36 37 37 37 38 38 40 42 42 41 41 42 44 45 47 48 49 50 52 53 55 56 59 63 66 67 69 71 73 74 77 78 78 78 81 83 86 88
39 38 37 39 39 40 40 39 39 40 41 42 41 40 41 43 45 47 48 52 52 52 55 57 58 59 61 64 66 68 69 72 76 78 79 79 80 80 84 85 85 88 92
39 40 42 41 40 40 39 40 42 43 42 42 43 44 46 47 49 51 54 55 55 57 59 61 64 65 64 64 67 70 74 78 80 82 81 81 82 84 85 85 89 93 96
51 47 46 46 43 43 43 43 43 46 46 47 47 47 48 49 51 54 56 57 59 61 63 61 60 64 69 74 76 78 81 83 84 82 81 81 83 84 86 90 94 97 98

GFSMW_500_spd_075.txt.gz
Wind_Speed
6 6 4 4 2 5 4 12 18 16 16 20 19 20 19 16 19 20 21 20 17 20 21 19 21 20 19 15 14 18 20 22 24 24 26 25 26 27 28 31 33 35 35
6 6 5 2 1 7 11 12 9 11 14 18 22 23 20 17 17 18 20 21 20 19 19 18 19 16 13 17 18 18 20 24 26 27 28 29 30 32 34 35 36 37 36
5 5 6 4 4 5 9 9 11 15 18 19 19 18 21 22 20 17 15 16 18 17 17 20 20 18 17 18 19 19 21 24 26 28 31 32 34 37 36 38 40 42 44
9 9 8 6 4 5 6 7 7 12 16 18 20 19 18 17 18 20 20 18 17 18 19 17 19 18 19 18 17 17 19 19 22 26 30 34 34 34 38 39 40 40 38
9 9 9 8 5 4 4 5 6 6 7 12 15 16 16 16 15 15 18 18 16 16 17 18 16 17 16 17 17 17 21 24 25 26 25 27 28 29 31 32 36 38 41
11 9 7 6 5 5 7 9 9 10 10 10 10 9 11 12 14 15 14 15 16 16 16 15 18 18 14 16 17 19 21 23 24 27 27 30 32 33 35 38 40 41 37
10 11 11 8 6 4 6 7 7 6 6 7 8 11 10 10 10 10 12 14 15 17 18 19 20 23 22 22 22 23 23 26 27 29 31 34 35 36 38 39 39 40 39
8 13 13 13 12 7 7 8 6 5 6 8 10 10 9 10 9 10 14 15 16 16 17 18 23 24 24 24 27 30 29 30 30 32 35 35 38 40 39 38 39 38 39
8 14 15 17 17 12 11 11 10 10 8 10 11 12 13 16 16 17 18 20 20 21 25 27 28 29 31 28 35 43 36 31 32 33 37 39 39 39 39 38 38 38 39
8 10 12 17 16 15 16 14 13 12 14 13 13 15 18 21 24 25 26 26 26 28 32 35 37 34 36 38 36 34 36 32 32 34 36 38 38 37 39 38 38 40 42
10 7 7 12 16 17 16 17 18 18 20 19 21 23 24 26 28 29 30 31 32 35 37 42 48 36 44 35 29 31 35 31 34 36 38 39 40 40 39 40 41 44 48
18 13 11 8 10 13 15 17 17 16 19 25 28 27 28 25 32 16 29 36 42 48 42 26 23 25 25 26 29 31 31 34 36 39 41 41 42 43 43 43 44 48 52
23 21 15 15 15 12 15 16 17 20 23 24 25 21 17 17 20 23 23 21 28 30 23 26 24 24 27 29 32 34 35 38 40 42 43 44 43 44 45 46 50 52 55
26 22 15 12 11 16 19 19 20 21 21 21 21 21 22 21 24 22 23 24 27 28 28 29 29 31 34 35 38 39 42 43 44 44 44 45 46 46 48 50 53 56 58
28 25 19 16 18 20 19 24 24 25 27 24 25 24 23 24 25 22 24 27 29 29 29 31 34 35 36 40 42 42 43 44 45 46 46 46 47 49 51 54 57 59 61
30 29 27 23 24 22 16 24 24 24 27 27 25 25 24 25 25 26 27 29 32 32 34 34 33 36 39 41 43 42 43 45 45 46 47 50 51 52 54 57 60 63 65
29 30 33 31 22 22 19 19 23 24 25 23 23 23 24 26 27 29 32 33 34 36 37 35 36 37 39 41 43 44 45 45 47 49 50 52 53 55 57 60 64 65 67
34 33 35 31 19 19 20 20 21 22 25 27 27 27 27 29 31 32 34 37 39 39 38 37 39 41 43 44 46 46 47 49 51 52 53 54 55 58 61 64 65 67 70
33 32 32 32 32 27 25 26 26 27 28 30 31 32 34 35 36 36 38 40 41 41 41 41 42 44 46 48 49 50 51 53 54 54 55 57 60 62 64 65 68 70 72
30 28 31 32 30 29 30 30 29 29 31 33 34 35 37 38 39 41 42 43 44 45 45 45 46 48 50 51 52 53 55 57 56 57 59 61 63 67 69 70 71 74 76
31 32 34 32 32 31 33 31 30 30 33 36 38 40 40 40 42 44 44 44 45 46 47 48 49 52 54 54 55 57 58 60 61 63 63 65 68 70 71 73 76 80 82
35 36 36 32 33 34 31 30 31 32 35 37 40 42 42 43 44 45 47 48 48 48 49 51 52 55 57 58 59 61 63 64 65 67 68 68 69 73 76 80 82 85 85
32 35 37 38 37 33 33 33 33 35 38 40 42 43 44 45 46 48 50 50 50 52 55 55 55 57 58 60 63 66 69 71 68 64 67 71 77 81 83 86 87 87 87
36 37 39 43 39 38 37 37 38 40 42 42 44 46 46 48 49 50 50 51 51 52 53 55 56 58 58 60 63 68 71 68 71 76 79 81 83 86 89 89 89 87 86
48 47 45 43 44 47 45 41 42 45 44 47 49 47 47 48 51 54 55 55 56 58 58 59 61 62 64 65 68 72 75 79 81 83 85 87 88 89 89 88 87 86 86
48 48 50 47 47 44 49 51 49 51 51 53 54 56 55 54 52 54 57 57 59 59 61 62 64 68 70 73 75 76 81 83 85 87 87 88 89 89 89 87 86 87 89

GFSMW_500_spd_078.txt.gz
Wind_Speed
10 10 10 7 6 10 12 11 16 15 15 19 23 23 26 19 22 25 22 22 24 25 27 27 24 22 24 24 18 17 13 15 19 21 24 24 25 27 28 28 30 32 34
8 9 9 6 4 6 5 6 12 13 15 22 23 22 21 19 20 25 25 27 30 28 27 24 25 26 22 21 19 18 17 21 21 23 26 27 27 29 31 32 35 38 41
5 7 8 3 2 2 3 7 6 8 17 22 24 24 25 24 21 22 28 24 22 21 22 24 22 22 20 18 20 19 20 21 21 25 25 26 28 31 34 36 39 43 45
9 8 7 4 2 2 1 7 6 6 4 13 22 20 17 15 20 21 22 19 19 19 19 19 21 21 20 21 21 22 20 19 19 20 22 24 28 29 33 35 37 36 35
9 8 8 6 2 3 4 4 9 9 5 8 14 15 15 17 17 19 19 19 18 17 16 17 18 20 21 22 20 19 21 21 24 25 25 28 29 32 35 33 33 35 37
11 9 8 7 4 4 5 6 8 11 11 11 13 14 14 15 14 13 14 16 16 16 17 20 21 20 20 21 21 22 23 24 26 28 30 31 33 35 37 38 37 37 38
13 13 11 8 7 4 5 7 7 5 6 8 9 11 14 16 15 15 15 15 16 17 18 19 21 22 24 24 25 26 26 27 29 33 32 36 35 37 40 40 41 40 41
12 16 15 13 11 6 7 8 8 8 8 7 7 8 9 11 11 11 13 16 17 18 19 21 23 24 26 26 26 27 28 32 33 35 37 37 37 40 41 42 42 43 43
14 15 16 17 17 14 13 11 11 11 11 11 12 12 12 13 15 15 16 18 17 18 20 23 24 26 28 30 29 30 33 35 36 39 44 43 40 42 42 42 44 45 44
15 14 12 17 20 20 19 16 15 15 14 13 14 13 14 17 18 18 17 18 21 21 23 26 28 29 31 36 39 38 39 37 37 36 45 35 38 41 41 43 44 44 44
18 14 12 16 16 17 19 19 18 18 16 16 19 20 21 24 25 22 22 19 25 26 28 30 34 36 43 44 42 45 49 49 40 40 40 36 40 43 44 46 45 44 44
23 18 13 13 13 15 17 19 21 21 21 20 23 24 26 28 20 22 21 27 18 19 34 30 41 41 44 29 26 25 28 33 33 36 42 42 44 46 49 47 47 48 49
21 21 17 17 19 19 17 20 21 21 21 22 23 26 21 17 20 10 13 15 18 18 17 14 20 17 28 22 29 31 29 31 34 37 39 42 46 47 48 50 50 49 51
25 25 26 21 25 21 17 18 20 22 25 24 23 22 22 23 18 16 19 18 22 21 20 23 22 23 25 28 32 31 34 36 37 39 43 46 48 48 50 49 50 52 53
28 25 27 26 21 22 20 20 24 27 27 27 24 23 26 26 24 23 22 24 25 25 25 28 25 27 31 33 34 34 34 39 40 43 46 48 49 49 51 52 52 54 55
32 28 26 23 19 20 20 21 17 24 29 30 29 27 26 26 28 28 28 26 26 27 28 28 30 31 34 35 37 37 38 41 43 46 47 49 50 51 52 53 55 56 58
28 26 25 19 19 21 21 22 21 23 26 25 24 22 22 24 25 27 27 27 29 30 31 32 34 37 39 39 40 41 41 43 45 47 49 50 51 53 55 56 58 60 62
34 35 33 32 29 24 25 25 22 25 24 23 23 23 24 25 27 29 30 32 34 35 36 37 38 40 42 41 41 42 45 46 47 49 51 52 53 55 58 60 63 64 65
29 31 32 31 28 29 26 26 22 26 27 27 28 28 29 31 32 33 35 36 36 38 39 41 43 44 44 44 44 46 48 49 51 52 53 54 57 59 62 64 67 69 71
30 30 27 29 30 28 27 27 24 24 26 29 30 32 33 33 35 36 38 40 41 42 42 43 44 45 46 47 48 50 53 54 55 56 57 59 61 64 67 69 68 68 68
31 27 27 27 30 31 31 28 28 28 27 29 32 33 33 35 37 40 42 44 45 46 47 47 48 49 49 50 52 54 56 58 59 60 60 61 63 65 64 65 67 71 76
29 27 27 29 33 35 31 29 29 30 32 33 34 35 36 37 40 43 44 46 47 48 49 50 51 51 52 54 56 57 58 61 63 64 64 64 67 69 70 73 75 78 81
34 31 31 30 31 32 32 33 34 36 36 37 39 41 41 42 43 46 48 49 50 51 51 53 53 53 55 57 60 62 62 65 67 68 72 74 76 79 82 82 81 82 84
34 30 32 34 35 35 36 37 36 39 41 44 46 47 47 46 49 51 51 51 53 55 55 57 58 59 61 63 65 65 67 71 74 76 78 81 83 82 81 82 85 87 86
35 39 40 40 41 43 42 44 46 45 47 49 47 46 52 54 55 57 57 59 60 60 61 58 63 64 63 65 68 69 74 78 81 82 81 79 81 83 86 86 85 83 83
37 37 40 42 43 47 44 45 45 49 50 50 55 56 57 57 59 57 52 54 58 61 58 57 60 61 64 68 72 78 81 79 77 78 81 84 86 86 84 81 82 83 85

GFSMW_500_spd_081.txt.gz
Wind_Speed
15 13 11 12 13 12 15 11 15 18 15 16 16 15 20 16 15 18 19 24 22 19 18 18 21 25 26 22 22 20 19 17 15 19 24 20 20 22 23 25 27 28 29
12 13 8 9 8 8 12 8 11 14 16 17 15 16 18 20 19 19 25 24 24 23 23 24 25 27 24 22 20 19 19 19 19 21 20 20 23 26 27 29 30 33 35
9 9 6 6 4 4 5 8 1 16 18 17 21 21 18 16 14 14 22 21 22 23 25 26 25 24 21 21 22 21 21 20 19 20 21 23 24 27 30 31 33 37 39
8 9 7 6 4 3 2 5 5 5 4 21 20 17 21 23 19 18 16 20 23 25 25 24 19 17 21 22 24 22 22 21 22 23 26 24 24 26 28 31 30 37 39
9 9 9 7 5 5 3 3 4 3 4 5 18 21 24 21 23 22 21 18 15 16 15 14 14 18 19 21 22 23 24 26 26 26 24 23 24 27 32 31 33 39 37
12 10 8 8 7 6 4 4 5 4 2 3 7 11 12 14 12 11 12 13 15 16 15 17 18 20 20 23 24 25 25 28 26 26 25 27 29 32 36 36 37 38 40
14 11 13 10 8 6 7 7 5 4 3 6 6 7 8 9 11 13 13 15 16 16 19 20 19 20 22 23 24 25 25 25 26 28 30 30 29 36 40 43 44 42 42
12 15 15 13 10 8 6 6 8 8 8 8 9 9 9 9 10 12 14 15 17 19 18 18 18 19 20 21 22 24 24 26 28 30 33 37 38 43 44 43 46 45 45
14 16 17 16 16 13 12 8 7 7 7 8 9 10 11 12 14 15 16 17 15 16 15 16 17 18 20 22 25 26 27 30 33 38 38 40 43 40 43 46 47 45 44
18 15 17 18 18 15 17 15 14 12 11 11 10 10 11 12 13 13 15 15 16 16 17 19 22 23 24 26 29 31 33 39 42 46 49 34 38 42 43 48 43 46 44
19 17 18 18 17 14 16 19 18 17 15 14 14 14 15 17 18 17 20 20 22 20 22 26 28 28 30 34 32 34 36 50 33 38 50 48 46 50 48 46 41 43 50
23 22 21 17 13 11 13 15 18 18 19 20 19 20 22 22 22 24 25 26 27 24 18 12 16 31 36 28 32 45 53 29 29 27 35 40 47 44 39 45 46 50 57
30 27 25 21 17 15 16 16 17 20 22 23 23 26 25 24 21 20 22 14 13 14 16 20 22 19 23 27 27 31 45 34 32 32 31 35 40 42 43 48 50 54 58
29 31 26 24 22 20 19 19 20 21 21 23 24 25 25 24 21 19 16 15 17 18 18 21 24 25 29 29 26 27 28 33 32 35 35 37 41 41 44 47 52 56 58
29 29 26 26 24 21 21 20 20 18 22 27 28 28 26 24 25 25 25 22 21 23 19 22 24 26 28 29 30 31 32 33 36 38 38 41 42 44 48 52 56 58 58
31 30 30 26 29 24 27 26 26 24 22 23 25 29 28 27 26 24 25 24 27 24 22 23 25 28 30 31 31 32 35 37 40 41 44 46 46 50 51 52 54 55 56
38 35 33 31 32 34 31 28 24 22 23 24 23 24 25 24 23 21 20 21 24 26 27 28 31 32 32 34 35 37 39 41 42 44 46 48 51 51 52 52 53 54 56
38 34 32 26 24 28 29 30 26 24 24 27 25 26 27 24 24 24 24 26 27 29 32 33 35 36 37 36 36 37 39 42 45 47 49 51 51 52 53 53 54 55 57
35 33 37 33 33 29 27 24 27 27 25 25 26 24 27 28 28 27 27 28 30 32 34 36 38 39 39 39 39 41 43 45 47 49 50 52 53 54 55 56 58 58 59
30 32 30 30 22 29 27 27 27 25 24 26 26 25 25 27 28 30 31 32 34 36 37 38 41 42 42 42 43 45 46 48 50 51 53 55 56 57 59 60 62 65 70
31 32 32 33 28 27 28 27 29 29 30 27 27 27 28 29 30 32 32 32 33 35 37 39 42 44 46 47 48 50 51 53 54 56 58 60 61 62 64 66 70 74 77
30 31 32 32 31 29 29 28 29 31 30 28 28 30 33 33 33 35 36 38 40 42 43 45 47 47 49 50 52 54 56 58 60 62 63 65 68 70 72 73 77 82 84
36 35 38 34 33 34 32 33 32 33 30 30 32 34 36 37 38 38 42 45 43 45 47 48 51 54 55 57 58 61 63 63 65 68 67 69 71 74 73 75 84 84 83
42 38 40 43 41 41 38 35 36 36 37 37 41 42 43 42 43 45 46 43 49 49 49 52 52 52 53 51 55 59 61 65 65 68 71 75 76 79 84 86 83 85 87
31 31 31 43 46 44 40 40 40 41 39 45 41 44 42 42 46 50 50 54 52 52 53 52 52 55 55 55 62 64 68 70 72 75 78 80 81 82 83 84 85 86 88
29 31 44 46 46 45 45 43 43 46 42 43 45 43 44 48 52 55 55 56 57 59 56 62 62 69 70 65 68 70 71 73 75 76 77 77 79 82 84 86 88 90 92

GFSMW_500_spd_084.txt.gz
Wind_Speed
19 25 23 17 14 12 13 16 14 17 17 22 18 17 17 16 12 21 28 28 23 22 21 18 18 19 22 23 23 23 24 22 23 21 19 18 21 22 24 21 19 21 24
18 23 18 11 11 9 11 16 11 10 16 17 17 16 14 13 14 15 19 25 21 19 17 15 14 16 18 18 22 23 23 24 23 21 21 19 19 21 21 22 25 26 29
17 21 10 7 8 7 9 9 8 9 13 19 21 15 14 13 17 13 17 15 16 19 20 19 15 14 17 19 23 25 24 25 21 23 22 19 18 23 24 25 29 32 35
14 15 9 7 6 6 8 6 5 6 8 19 19 16 21 14 15 8 11 18 19 18 17 17 17 19 23 23 23 26 23 20 19 20 22 22 23 26 25 28 31 33 34
13 14 8 7 8 9 8 7 5 2 5 7 21 25 22 17 17 15 15 14 19 20 18 18 19 16 14 18 20 20 21 22 22 25 24 24 26 28 30 30 30 33 34
18 12 10 7 8 8 9 7 7 5 3 4 9 18 16 16 16 18 17 18 18 15 14 13 11 10 12 15 17 19 21 24 25 26 27 27 28 28 31 31 31 31 44
17 11 11 8 9 8 8 7 5 4 2 1 4 6 8 7 9 12 11 10 11 10 10 10 10 13 18 19 20 21 22 22 23 25 25 28 29 31 34 33 33 36 40
18 13 12 9 10 11 8 6 7 5 5 5 6 7 9 8 7 7 7 8 9 11 10 9 13 17 18 19 20 20 20 23 24 26 28 30 32 36 39 39 39 41 42
19 17 15 11 11 13 13 8 6 7 7 6 6 6 6 7 9 10 10 9 9 9 9 12 15 17 19 20 22 22 23 26 28 30 33 35 37 41 44 45 47 42 43
21 17 17 15 12 14 14 12 12 11 8 9 9 10 10 11 11 12 12 12 14 14 16 18 21 22 23 24 26 26 26 29 30 33 35 42 45 46 44 52 47 51 48
23 22 22 18 15 14 14 14 13 13 13 14 13 13 12 12 12 12 13 15 18 19 22 23 24 25 26 28 30 30 30 36 36 37 43 39 45 40 41 49 52 46 44
23 24 24 22 16 17 15 14 13 14 16 17 16 17 16 14 13 12 17 22 24 26 27 26 26 24 23 28 36 38 38 30 34 36 40 46 36 34 33 43 39 39 44
23 24 23 23 22 23 19 13 10 13 16 18 19 20 21 17 17 19 17 18 25 24 26 31 29 26 24 27 27 30 30 36 34 35 27 31 32 35 35 38 41 44 48
30 29 27 26 27 26 25 23 18 18 21 23 22 23 22 21 21 21 19 19 21 22 20 19 23 25 23 23 24 26 28 28 30 30 30 33 36 37 39 40 43 45 47
33 32 31 30 29 29 29 27 23 20 21 24 26 26 28 27 25 25 24 22 23 25 26 25 26 25 23 23 27 29 31 32 33 32 34 37 40 41 42 45 48 50 50
38 33 31 32 29 29 26 26 30 30 27 26 28 29 32 35 34 32 28 28 28 25 23 26 28 22 24 29 31 32 35 37 38 39 40 43 44 45 48 49 52 55 57
43 40 34 29 29 25 25 27 29 29 30 28 30 27 25 24 24 25 26 28 28 26 26 27 28 28 30 32 35 37 40 41 43 45 46 47 48 50 52 54 57 59 61
43 45 39 35 29 30 29 31 32 28 29 29 30 29 26 26 26 27 27 28 28 27 28 29 32 33 35 37 39 41 44 46 48 48 49 51 53 54 56 59 61 63 64
46 52 45 44 43 32 31 33 35 34 33 32 29 29 30 29 28 30 32 31 31 32 33 35 36 38 39 40 42 43 45 47 49 50 52 53 55 56 59 61 63 64 64
47 53 53 47 42 40 45 43 37 33 33 32 28 27 26 29 29 30 30 31 32 34 35 35 36 37 38 39 40 42 45 47 49 50 52 53 55 56 59 62 65 67 69
46 50 58 47 37 32 33 36 35 35 34 31 30 28 31 29 30 31 31 31 32 34 34 35 36 38 39 40 42 44 47 50 51 54 55 56 58 61 64 66 68 72 73
42 48 50 44 37 34 34 40 42 37 36 34 33 30 32 33 32 32 31 33 34 36 37 38 41 42 43 45 46 48 52 53 53 55 57 57 58 62 65 68 69 73 77
36 47 47 43 41 37 33 34 39 37 36 36 42 39 38 36 38 38 37 39 39 38 41 45 45 45 48 51 51 51 51 53 55 58 61 64 67 71 72 72 74 78 80
39 36 49 44 47 41 40 41 43 42 42 43 41 42 42 43 44 44 44 40 43 43 45 48 49 52 54 53 58 59 58 62 65 65 64 70 74 74 74 76 77 78 79
39 44 40 43 47 46 48 48 48 48 47 48 45 45 49 49 47 44 51 48 49 50 50 51 54 55 58 59 62 62 63 68 72 74 71 71 73 76 77 76 78 81 83
29 36 49 51 49 49 46 48 54 55 52 53 51 52 55 53 53 59 53 50 53 57 55 60 61 62 65 66 64 62 61 64 68 71 74 77 77 76 77 78 80 84 87

GFSMW_500_spd_087.txt.gz
Wind_Speed
24 17 15 17 24 19 18 18 20 22 19 19 22 19 18 18 23 21 20 24 27 26 37 45 49 25 24 26 31 30 32 31 25 20 21 21 20 17 17 16 18 19 18
21 14 13 19 18 14 14 12 16 14 12 18 21 19 17 14 20 14 23 34 30 26 32 26 25 25 25 25 27 26 23 21 21 20 22 20 17 14 16 17 19 20 21
18 12 14 16 14 11 11 10 10 9 10 14 17 17 14 10 8 11 13 23 25 22 22 19 16 16 17 19 18 19 19 20 20 20 20 15 12 15 16 18 22 24 25
15 10 13 13 13 10 10 9 9 6 5 12 18 18 14 12 10 13 11 11 15 18 20 20 16 13 13 13 15 17 19 20 19 18 19 20 20 18 18 22 23 23 25
14 10 13 13 13 11 10 11 11 9 9 8 17 21 16 16 10 12 6 9 14 17 16 18 20 16 14 15 15 17 18 17 18 20 20 20 21 22 26 27 27 26 28
14 12 14 14 11 9 8 9 11 8 12 8 10 18 19 17 11 12 11 12 11 12 18 17 17 16 14 14 14 15 15 16 19 20 20 21 24 28 30 30 28 27 30
15 13 14 14 10 9 6 8 9 8 7 5 7 5 10 13 10 10 13 14 14 11 11 12 14 13 14 14 14 13 13 15 18 20 23 26 27 29 27 27 29 32 37
17 16 14 14 10 8 7 7 8 8 5 5 1 4 7 9 8 6 7 9 11 15 14 13 11 12 11 11 11 11 13 17 21 23 24 26 26 28 30 32 36 38 41
20 19 16 16 13 9 8 8 7 7 8 5 6 6 6 6 8 9 10 11 11 10 10 11 12 12 12 13 13 14 17 21 23 25 26 27 26 29 32 35 40 45 46
20 21 19 18 14 11 9 9 10 11 9 8 7 5 5 6 7 7 8 10 9 10 11 12 15 16 19 18 17 19 22 26 25 25 26 28 29 33 37 40 43 43 41
24 23 22 20 17 13 10 10 11 12 14 13 12 11 10 7 7 8 9 10 10 11 13 16 19 21 22 19 21 24 26 29 29 30 31 31 33 38 41 41 44 38 41
25 26 24 24 20 17 15 11 14 13 12 13 13 14 14 13 12 13 13 13 15 17 20 21 25 24 25 26 27 28 31 32 34 35 35 33 39 38 37 32 35 38 40
27 28 27 24 20 21 19 14 12 14 14 13 11 11 14 15 17 17 17 16 16 18 19 21 22 28 29 29 23 24 26 26 26 27 28 31 34 35 38 35 37 41 44
28 28 29 28 26 24 18 18 17 17 18 19 19 19 20 18 18 18 16 17 19 17 19 17 21 23 27 31 27 26 25 24 25 27 30 31 34 35 40 41 43 45 48
31 31 31 31 30 28 25 23 22 23 24 24 22 23 23 23 24 23 21 23 24 21 21 23 23 23 26 25 28 28 26 29 31 32 34 36 37 40 42 46 49 49 51
35 35 34 33 32 32 30 28 25 23 23 23 23 23 24 26 27 29 31 31 30 29 29 27 28 27 28 30 31 32 32 35 36 38 39 41 43 45 46 52 54 55 57
37 40 39 36 36 35 36 34 29 27 24 23 24 24 25 26 28 29 28 27 28 31 31 30 30 29 29 27 29 33 38 38 41 42 44 47 49 51 53 56 58 60 61
38 41 47 45 40 42 41 37 35 33 27 27 28 28 28 27 27 29 28 28 27 29 31 31 30 31 32 32 34 38 42 43 45 47 50 51 53 55 57 59 61 62 63
41 42 42 45 43 47 42 39 40 36 33 30 29 28 28 30 32 31 31 30 31 32 33 35 35 36 37 38 40 42 44 46 49 49 50 51 53 55 58 61 63 64 66
37 40 44 43 49 49 49 39 40 36 34 35 34 35 34 31 31 31 33 34 33 35 38 39 39 40 41 42 43 44 45 46 48 49 51 53 55 59 61 64 65 66 68
37 34 36 42 47 50 51 53 49 44 46 45 41 38 37 35 32 29 30 33 35 34 35 37 38 38 39 41 42 43 46 49 50 52 54 55 57 57 59 61 64 67 70
32 31 36 38 45 50 56 58 56 53 53 44 36 37 41 42 38 35 33 36 37 38 38 39 40 41 42 45 47 49 52 53 53 55 56 57 60 63 65 67 69 70 72
31 31 35 40 42 49 52 52 53 46 40 41 46 46 45 44 45 44 44 38 42 41 42 46 48 49 43 46 49 51 52 54 58 62 61 64 68 68 70 74 74 74 77
35 32 31 39 40 43 45 44 43 40 36 41 45 50 41 44 47 57 61 51 50 49 53 56 50 51 54 55 56 57 59 60 62 65 67 71 72 72 75 78 76 78 80
35 36 34 36 40 50 51 50 47 48 47 46 47 48 46 50 57 60 53 52 58 58 59 56 59 66 58 57 59 63 67 66 69 71 70 71 69 69 71 73 76 78 79
31 32 37 37 38 45 48 53 51 54 54 52 53 55 54 58 59 59 59 59 58 59 65 67 67 73 64 63 61 58 63 64 67 68 69 69 69 70 73 75 77 79 81

GFSMW_500_spd_093.txt.gz
Wind_Speed
30 24 18 27 21 17 18 19 17 16 19 22 23 21 22 23 25 21 23 19 22 23 23 24 26 28 31 32 35 37 39 36 30 27 28 29 32 24 23 20 16 14 13
31 22 14 24 16 16 17 16 14 14 17 19 20 16 18 20 22 18 22 24 26 19 23 24 26 30 23 24 26 32 36 35 30 30 29 32 29 22 20 17 15 15 15
29 21 13 23 16 15 16 13 13 13 15 18 20 15 15 18 20 20 20 25 24 19 23 23 25 23 22 21 22 28 39 43 35 28 23 25 23 19 19 17 17 18 18
27 19 12 20 18 15 15 13 14 14 13 14 13 14 16 18 20 19 26 23 20 22 26 28 23 26 26 25 33 38 41 45 35 23 24 22 20 19 20 18 17 14 13
26 21 15 19 21 14 15 14 12 14 14 14 14 13 16 18 19 16 17 20 21 13 20 27 27 24 31 37 38 38 42 32 23 21 20 20 21 20 18 17 15 14 16
22 22 14 20 20 14 14 12 10 12 14 12 12 14 16 18 19 15 10 13 14 12 18 28 28 30 31 32 34 32 25 21 20 21 19 19 19 22 19 16 17 18 20
22 16 9 20 15 14 12 10 9 10 13 11 10 14 7 12 11 11 13 8 9 13 15 17 21 22 21 23 24 22 22 22 22 17 17 16 17 17 16 17 23 22 23
24 16 10 15 13 15 12 10 9 9 11 12 7 7 10 7 12 12 11 12 11 12 12 21 24 23 23 24 24 24 22 25 22 17 19 21 18 17 19 21 23 22 24
27 19 12 15 16 15 14 11 8 7 8 10 5 4 3 3 6 5 9 14 17 16 15 17 21 24 23 23 23 23 24 21 19 19 20 17 18 19 20 20 22 25 26
28 22 15 15 18 18 15 13 11 8 7 8 7 2 3 1 2 3 4 5 9 14 17 15 16 16 17 20 22 21 20 18 18 20 21 20 21 21 21 23 26 28 31
22 27 18 18 18 19 16 15 13 10 8 4 6 7 4 3 2 3 3 5 8 11 14 16 18 18 19 19 20 22 23 22 22 21 19 19 22 25 25 28 32 34 36
22 27 18 15 17 17 17 16 14 12 10 7 4 4 9 8 8 7 6 6 8 11 12 13 14 13 13 14 17 19 19 20 21 22 25 24 28 30 33 35 37 38 38
27 29 19 16 16 17 19 19 17 15 13 12 10 6 4 6 8 11 12 12 12 13 14 15 16 15 16 19 21 21 22 22 25 27 28 29 34 36 35 37 37 39 39
22 19 21 20 16 18 19 20 21 20 18 16 15 13 12 11 9 9 12 16 18 18 19 19 18 18 18 16 20 23 26 28 29 30 33 35 35 37 40 40 38 39 40
25 25 27 23 19 21 23 21 24 23 21 20 19 18 17 16 13 13 13 17 19 20 21 22 23 22 21 19 19 22 26 27 31 37 38 37 38 39 40 40 39 39 43
24 20 23 29 27 20 24 24 25 25 25 23 22 24 22 20 20 19 17 16 18 22 26 26 26 27 26 25 25 26 28 29 30 33 35 41 42 41 41 42 43 45 48
27 29 32 27 27 25 25 26 27 29 28 27 25 26 26 25 24 23 22 21 21 21 22 25 28 28 30 30 30 32 33 31 33 37 39 40 43 41 43 45 48 45 51
37 40 40 37 34 33 32 31 28 30 33 34 31 29 28 31 30 29 27 27 28 26 23 22 25 26 25 27 29 31 31 31 33 36 38 41 41 42 44 40 45 54 57
40 45 50 49 43 40 41 37 37 33 30 31 32 30 32 34 36 34 32 31 32 32 28 29 30 30 29 28 29 32 34 34 36 39 42 43 43 48 50 48 55 49 61
44 41 42 48 49 47 42 44 43 43 43 42 38 41 38 38 38 38 36 33 32 32 31 34 33 31 31 31 30 32 35 38 40 41 42 45 47 49 52 55 56 58 62
42 47 43 41 42 40 44 45 45 44 44 44 46 45 47 45 44 42 40 38 35 36 38 37 37 36 33 35 34 35 39 41 44 46 46 47 47 50 53 59 62 64 66
29 40 44 40 39 43 46 47 48 48 48 46 44 42 43 46 50 50 49 46 43 43 45 44 42 42 40 40 39 42 44 46 47 49 49 51 53 52 64 62 66 68 71
40 37 41 52 41 37 41 47 44 46 48 47 46 45 43 46 47 43 49 57 55 49 50 53 50 47 45 43 45 46 50 50 54 53 57 52 65 69 62 68 69 72 74
18 19 26 26 29 35 36 35 41 45 48 48 46 48 46 48 48 50 52 51 53 59 55 54 55 56 53 61 50 53 56 58 64 60 65 65 58 69 77 72 70 71 75
27 23 26 28 29 32 35 37 37 41 43 47 48 50 50 50 50 51 52 51 52 55 62 62 59 54 59 58 58 69 61 54 65 59 62 61 73 72 73 71 70 70 70
33 29 29 27 26 26 28 25 29 37 38 40 41 44 46 47 52 51 49 48 47 48 52 47 51 54 54 51 58 65 71 61 69 59 55 62 67 67 66 67 66 66 70

GFSMW_500_spd_096.txt.gz
Wind_Speed
35 29 27 23 29 22 21 19 19 21 19 18 20 21 24 27 26 26 23 24 21 24 23 20 25 23 24 35 34 33 32 32 29 38 36 27 28 26 32 34 36 29 26
33 27 25 22 24 20 20 18 18 18 18 19 20 21 21 23 25 23 23 23 23 23 25 27 25 24 25 32 36 33 36 34 31 32 36 25 27 26 26 29 29 27 23
30 29 24 18 22 19 19 18 17 17 18 19 21 21 20 19 19 19 21 20 23 26 24 25 27 27 29 29 34 31 30 21 22 25 27 30 31 31 28 29 26 24 24
32 33 25 16 18 18 17 17 17 17 18 19 21 21 19 16 18 19 24 23 20 25 27 29 31 29 38 35 22 20 20 25 26 28 32 34 30 23 27 27 28 24 24
33 34 27 20 18 20 18 17 17 16 16 18 19 21 20 19 14 17 23 23 26 30 33 32 32 31 35 34 29 25 25 35 32 31 34 33 28 27 28 27 24 22 20
34 32 27 19 19 22 17 17 15 15 15 17 17 20 19 19 17 19 19 17 20 27 29 35 35 30 27 33 23 33 38 37 39 36 35 30 28 27 23 24 26 25 23
31 32 21 18 21 20 16 14 15 16 14 16 15 18 14 10 10 20 18 18 23 25 26 27 23 28 33 30 28 38 42 40 34 32 27 27 26 26 26 27 27 24 25
29 29 19 16 19 18 18 15 15 16 12 13 13 15 14 12 5 12 15 18 14 16 12 18 37 43 43 37 37 44 41 32 31 28 27 23 21 19 27 28 28 27 28
26 24 21 15 20 24 21 15 15 16 12 11 11 10 10 6 9 5 12 12 13 16 14 20 22 28 28 29 30 29 28 30 30 28 25 18 17 24 24 26 28 31 28
24 22 18 15 24 26 21 16 16 16 13 11 11 9 7 5 2 0 1 6 11 17 18 16 20 28 28 28 28 29 30 28 27 26 24 23 30 28 29 29 30 31 29
22 24 23 24 23 26 24 19 17 17 15 12 10 11 9 6 5 4 3 4 5 5 10 15 17 21 22 17 18 23 26 29 29 29 29 28 29 31 30 31 30 31 32
31 27 24 23 24 26 25 22 19 19 18 15 13 11 12 11 9 6 5 5 7 9 10 11 12 14 18 19 18 19 22 25 28 33 35 34 32 31 32 33 33 33 35
31 29 27 22 24 26 27 24 21 21 21 18 16 13 12 12 12 11 10 9 9 10 11 11 12 14 15 14 14 18 23 25 28 31 30 31 35 34 34 35 36 36 39
31 32 25 23 21 24 27 28 27 24 24 22 19 18 15 13 12 10 11 13 14 15 15 16 17 18 18 18 20 24 27 29 30 31 32 33 33 35 37 39 40 42 45
38 37 31 27 24 25 26 25 27 26 27 26 24 22 20 18 16 16 15 16 17 19 20 21 22 23 23 24 24 23 27 30 32 35 38 38 40 42 42 42 42 44 45
21 23 23 26 22 26 28 28 28 27 29 29 27 26 24 22 21 21 22 22 21 22 24 24 26 27 28 28 29 28 27 27 30 33 36 38 38 41 43 45 47 47 48
30 21 23 21 21 20 23 29 29 31 30 30 31 30 28 26 27 26 25 25 24 23 24 26 30 31 32 33 33 34 36 38 38 38 38 40 41 39 40 42 44 47 50
28 24 25 31 26 24 25 27 28 33 32 31 32 34 33 32 31 31 29 30 29 29 28 28 29 27 26 29 32 35 38 38 39 39 39 40 41 43 45 47 48 50 50
34 32 31 32 33 33 34 35 35 33 31 34 35 38 40 38 35 34 33 34 34 34 34 32 30 29 30 30 32 34 35 35 36 37 39 40 41 42 44 45 48 51 54
37 38 37 37 40 36 41 43 44 42 38 39 38 37 39 40 39 39 38 37 37 34 38 37 35 35 35 31 32 34 35 37 37 38 39 41 43 44 45 47 49 55 55
31 36 43 43 42 46 44 45 45 48 46 42 42 43 43 44 44 44 42 44 44 45 44 41 42 41 41 40 40 39 38 41 41 41 44 45 46 48 48 49 50 53 54
35 36 37 39 45 44 45 46 43 47 50 50 46 43 47 47 48 45 46 49 50 50 49 49 48 47 47 46 47 47 48 47 48 49 48 46 54 58 59 57 56 58 58
37 37 36 40 38 33 39 48 47 46 47 47 48 50 46 44 45 47 46 45 50 47 48 50 49 52 57 57 54 53 55 54 52 53 57 56 54 58 75 73 71 75 67
34 28 23 28 29 39 43 42 51 49 45 48 44 45 47 44 40 42 48 49 51 46 47 53 43 47 52 64 67 65 57 63 62 63 64 73 71 76 72 78 80 78 72
30 26 28 23 23 23 28 30 32 39 41 41 40 39 41 43 44 43 45 47 49 50 51 51 52 55 55 59 57 62 73 68 68 68 59 66 68 75 81 77 80 69 63
34 35 36 36 33 30 30 30 30 32 33 32 35 41 41 42 44 43 43 44 47 46 66 54 49 59 55 52 55 52 57 55 67 64 72 71 77 67 63 65 55 50 52

GFSMW_500_spd_099.txt.gz
Wind_Speed
38 37 41 35 29 29 31 27 28 21 22 23 21 21 21 23 28 29 31 27 22 22 18 23 33 35 29 25 30 32 29 29 32 33 34 33 35 35 31 30 31 37 45
42 39 38 38 27 26 28 27 26 20 22 23 21 22 22 24 25 25 25 25 23 24 22 27 29 26 22 26 27 35 33 30 30 30 32 30 34 34 25 23 24 23 31
38 41 36 33 26 22 27 28 23 20 21 23 23 24 22 23 22 24 21 23 22 25 32 28 29 30 29 25 27 33 36 32 32 32 29 27 27 25 26 27 29 29 29
36 42 35 33 24 21 26 28 21 19 22 24 23 24 23 24 21 20 18 21 23 26 24 24 26 31 28 32 30 31 35 36 34 32 19 19 25 27 27 32 30 29 31
40 44 38 34 26 25 26 28 23 20 22 22 22 22 21 21 21 25 20 21 24 24 23 27 30 30 28 31 36 30 31 31 23 21 27 30 29 30 30 30 32 31 35
43 43 39 35 31 28 27 29 23 21 21 20 20 21 20 20 23 24 22 24 27 25 29 33 32 35 34 33 37 28 33 28 26 27 33 33 32 31 32 33 31 34 36
42 42 34 31 30 29 26 29 24 20 21 18 18 19 18 17 20 18 20 23 27 27 26 31 34 36 34 41 43 37 33 26 30 33 37 36 34 33 31 28 28 29 24
44 42 32 35 28 31 28 28 22 21 20 17 16 17 16 14 16 16 16 19 20 16 18 25 30 33 34 37 35 31 34 28 31 38 41 37 32 33 31 27 24 26 30
42 40 34 31 24 29 24 24 22 22 19 16 15 16 14 13 11 12 12 16 13 13 13 22 29 32 34 35 35 41 49 37 36 36 41 33 31 31 32 33 32 33 35
42 36 34 28 24 26 25 23 19 22 19 17 16 15 15 11 10 6 3 7 10 17 18 20 21 25 32 34 39 40 41 42 40 40 33 31 29 29 30 27 28 33 35
40 37 35 31 28 27 25 21 21 23 21 18 17 17 15 12 11 10 6 6 5 6 10 13 15 17 23 29 37 37 33 31 29 30 31 32 32 28 29 29 31 36 37
43 39 34 34 27 21 24 23 25 24 22 20 18 18 17 14 13 12 12 9 6 5 7 6 8 8 12 28 22 28 26 23 25 28 30 32 34 32 34 33 34 37 39
41 39 40 33 24 22 26 26 27 27 25 23 22 19 20 17 15 15 16 14 10 9 9 8 10 10 11 11 14 16 16 19 21 26 31 33 38 39 38 38 38 39 40
38 39 32 31 27 24 25 28 27 30 28 26 25 22 21 20 16 14 15 15 16 15 13 13 14 15 15 16 18 18 18 20 24 27 31 33 35 37 38 40 41 41 41
40 37 35 36 35 29 32 32 30 34 31 28 27 25 24 24 21 17 17 15 14 16 18 19 19 20 20 21 22 23 24 26 28 31 32 34 36 37 39 41 42 44 46
40 40 35 31 34 34 32 33 31 30 33 30 29 31 28 27 27 25 23 21 20 20 20 20 21 22 24 26 26 26 27 28 28 30 34 37 40 41 43 45 47 49 51
33 44 39 37 31 27 29 31 30 31 33 34 33 33 32 31 31 31 29 26 26 25 24 23 23 24 25 27 29 31 33 34 35 35 36 36 38 40 42 44 45 48 50
11 19 27 30 30 32 30 29 33 35 32 32 31 35 35 34 33 33 33 32 31 29 28 28 28 27 25 27 28 32 36 37 39 41 42 44 45 46 46 47 47 49 51
22 16 25 33 29 30 27 28 27 29 30 32 32 31 35 37 38 37 35 36 37 35 33 33 33 32 32 31 32 35 35 33 33 36 38 40 41 42 44 45 47 48 49
28 28 29 27 24 29 29 31 32 33 36 34 34 33 37 39 36 40 40 40 40 39 40 37 37 38 38 39 38 39 39 38 37 37 40 43 45 45 46 47 48 47 51
27 27 30 32 30 28 32 33 35 34 38 39 39 38 39 39 42 41 44 46 43 43 43 41 42 43 44 46 43 45 45 46 45 44 44 44 45 46 47 50 49 49 51
27 29 31 25 27 31 34 36 38 42 43 39 41 38 35 36 37 44 46 47 45 42 45 50 48 48 49 51 51 50 51 52 52 52 48 51 54 55 55 56 56 55 62
22 29 28 35 35 34 32 33 37 41 43 44 43 45 43 38 36 38 44 46 49 48 46 48 41 47 38 54 53 54 54 52 53 56 60 66 63 62 66 64 75 71 63
28 28 30 31 33 36 36 38 38 35 35 35 39 44 45 45 43 43 42 44 46 46 45 43 47 52 43 50 55 56 56 46 54 55 59 72 66 76 68 66 72 78 72
17 20 23 33 35 32 28 29 27 30 33 36 36 36 37 40 43 41 36 37 41 41 43 42 53 44 42 46 50 52 53 53 57 61 64 61 67 83 75 74 72 80 81
24 22 22 24 29 32 29 28 28 32 32 31 32 36 37 34 35 36 37 38 38 37 42 43 46 52 49 60 58 60 64 66 66 69 62 63 64 67 62 67 68 57 54

GFSMW_500_spd_102.txt.gz
Wind_Speed
42 43 42 37 34 33 31 35 34 31 29 27 26 20 19 20 21 23 23 28 27 25 25 24 23 22 29 33 33 39 33 29 25 26 29 29 30 30 29 30 36 35 26
46 48 45 37 32 33 30 40 40 33 28 27 26 20 20 21 22 23 22 28 23 22 24 24 20 15 24 30 36 40 29 27 28 29 31 30 30 32 30 37 40 21 20
46 42 39 35 31 31 28 38 38 35 27 28 27 21 21 21 23 24 23 25 21 22 24 23 22 24 27 26 30 37 32 31 28 29 32 29 30 35 35 37 33 33 26
41 39 37 35 30 30 28 40 40 34 27 29 25 21 20 20 23 23 23 24 20 21 26 22 29 17 24 24 25 26 28 32 32 31 28 28 29 19 26 23 24 27 29
37 38 38 35 36 35 32 38 39 33 26 30 23 20 19 21 22 24 22 26 21 20 23 26 24 25 30 30 27 27 24 25 28 31 29 29 20 19 20 24 27 29 31
40 41 40 41 37 35 33 38 37 34 27 29 22 19 19 19 20 24 24 26 19 21 24 28 25 25 24 27 23 21 26 25 25 30 27 29 27 25 30 28 29 31 35
44 44 45 41 37 35 35 38 37 34 30 26 21 18 18 18 19 20 25 18 18 21 26 27 27 29 27 28 31 31 32 27 31 27 28 24 24 31 29 30 32 35 35
45 45 48 41 36 37 37 38 34 35 31 26 21 19 17 16 18 18 20 13 16 19 26 30 28 31 32 34 36 36 43 36 37 32 28 26 27 34 31 32 36 35 32
49 46 45 37 37 39 33 35 33 35 30 26 21 18 16 15 16 16 14 9 13 21 23 28 29 33 31 35 33 30 34 42 34 26 29 27 26 33 33 35 34 34 26
46 39 39 40 42 41 38 34 33 30 32 25 21 18 16 15 16 14 11 5 7 11 18 15 15 21 25 27 31 34 35 39 34 37 30 30 32 37 37 33 34 31 29
41 35 36 41 47 42 35 33 31 28 31 25 21 19 16 14 14 15 11 8 7 9 13 9 13 16 21 30 37 36 37 28 29 34 34 36 37 34 31 32 35 35 33
37 28 34 44 42 36 29 30 29 30 30 26 22 21 18 15 14 15 14 9 7 7 9 9 7 9 12 20 22 28 30 23 30 32 31 28 27 27 29 29 31 33 30
33 29 37 34 39 33 34 33 31 32 30 27 24 24 21 18 15 14 16 15 12 9 9 9 8 7 6 6 8 19 14 12 17 22 20 16 22 26 30 31 33 35 36
33 31 31 38 38 37 34 35 33 32 31 29 26 26 24 21 19 15 16 15 16 15 12 11 11 11 9 9 10 9 13 15 16 17 18 20 22 25 30 34 37 40 41
29 36 38 43 44 41 36 34 30 30 30 30 28 29 26 24 23 20 20 16 15 16 13 12 13 15 15 15 15 16 18 20 21 22 22 24 26 30 34 37 41 43 45
34 42 44 36 41 33 32 34 30 30 29 30 30 29 29 29 28 26 25 23 20 20 19 18 16 14 17 19 20 20 22 24 25 26 27 29 31 34 36 39 41 42 44
31 42 42 36 37 34 33 34 30 29 28 31 33 33 31 32 33 31 28 28 26 25 24 23 22 21 18 18 20 23 24 26 27 28 30 30 32 34 36 38 40 41 43
20 43 41 42 37 34 36 32 30 32 30 30 32 31 35 36 35 34 33 32 32 30 29 29 29 28 25 24 23 24 25 26 28 30 33 35 37 39 42 44 45 47 49
9 18 41 46 40 31 30 27 29 32 33 36 30 29 28 32 32 35 37 36 37 36 35 35 33 32 32 33 32 32 32 30 29 31 32 34 36 39 41 42 44 45 48
19 14 14 33 41 40 30 31 32 32 32 33 24 24 24 22 26 27 28 32 37 39 38 38 37 38 38 38 39 40 40 39 37 37 38 38 39 40 40 42 44 47 48
17 18 12 13 18 23 23 26 27 31 34 31 28 29 29 31 33 35 37 37 38 38 40 42 42 42 41 43 45 48 49 45 44 47 46 46 44 45 47 48 47 46 48
15 16 21 21 20 26 29 26 31 34 34 35 35 35 34 36 36 33 32 34 39 42 42 41 42 42 38 40 40 47 51 56 52 53 53 55 53 52 53 53 55 59 58
16 18 15 20 22 24 31 27 30 33 34 37 39 38 39 35 35 37 36 36 34 34 36 38 42 45 48 47 45 43 49 54 62 71 63 67 55 61 54 55 62 69 69
9 10 18 32 23 22 26 28 31 32 33 36 33 33 32 32 30 31 32 33 35 36 38 40 40 41 43 44 53 49 51 47 58 53 49 56 58 60 59 68 71 68 66
13 16 17 12 11 15 22 27 29 29 29 29 32 29 27 28 28 29 29 29 31 33 36 37 39 42 41 45 45 49 58 48 46 51 50 54 61 64 67 64 67 74 67
21 21 22 21 16 14 19 21 24 28 29 24 24 26 29 30 29 27 29 29 31 31 31 34 38 39 41 44 46 51 50 49 52 58 57 66 55 61 67 69 78 71 69

GFSMW_500_spd_105.txt.gz
Wind_Speed
45 46 47 46 44 39 36 31 32 31 30 30 31 31 28 25 25 23 23 23 22 25 27 24 22 20 23 21 27 34 32 37 33 32 33 33 35 31 25 28 30 28 32
45 46 48 48 46 43 39 35 35 32 32 34 32 33 29 26 25 24 23 23 25 26 27 25 22 20 24 22 31 33 32 40 31 33 33 31 30 31 29 28 30 31 32
43 46 47 47 47 44 40 36 36 33 35 35 32 33 30 25 26 24 22 24 24 23 26 25 21 22 21 19 22 27 32 38 35 34 30 29 28 31 32 34 36 36 34
43 44 46 49 47 43 41 36 35 33 38 37 35 35 30 26 25 23 22 25 25 21 26 25 22 22 20 17 20 24 26 32 32 36 27 27 34 35 39 39 39 31 30
42 41 42 43 43 41 40 35 35 35 39 38 36 35 31 26 24 23 23 26 27 24 26 25 20 25 22 16 15 23 34 36 33 27 29 30 31 31 31 24 25 28 27
41 40 41 39 38 37 36 31 33 37 37 36 36 36 31 27 22 22 23 26 25 27 26 25 19 27 18 19 16 23 27 26 23 22 22 29 28 24 22 23 26 25 27
45 46 45 43 40 40 37 32 33 38 36 36 38 38 29 26 20 21 22 22 25 27 23 24 22 20 26 21 17 27 24 25 21 21 23 23 23 22 23 26 29 28 28
47 47 46 45 45 42 42 33 37 40 38 38 38 37 30 24 19 19 17 19 24 19 21 22 21 23 26 23 23 24 28 32 25 27 23 22 25 22 23 27 30 28 29
47 50 49 48 47 45 43 35 40 45 40 40 39 33 30 23 20 18 14 16 16 14 17 17 20 25 29 31 28 29 32 26 23 27 37 32 18 21 19 23 31 31 30
48 48 48 47 48 47 40 39 41 46 42 43 40 32 29 23 21 17 12 12 13 8 9 15 20 24 29 33 32 32 32 29 27 25 23 24 29 25 23 22 28 34 34
50 50 46 51 47 41 38 44 45 46 45 45 33 33 30 25 21 17 11 10 11 9 9 10 14 14 15 21 22 26 27 28 29 30 31 28 23 25 27 30 33 31 31
46 50 48 40 35 36 41 46 47 44 44 38 35 33 30 26 21 18 12 11 11 12 7 7 3 7 11 10 17 26 31 34 34 37 30 23 24 30 31 30 25 25 27
40 39 40 26 30 32 42 46 45 42 36 33 34 33 31 28 22 19 14 11 10 12 12 9 4 5 6 5 6 14 19 24 27 31 20 20 23 23 22 19 19 23 28
30 20 27 28 28 33 44 47 39 34 31 32 33 34 31 29 24 20 18 14 11 11 13 13 10 7 6 6 9 6 12 15 11 9 11 12 14 18 19 18 19 25 29
28 27 25 28 29 34 41 43 39 35 32 33 34 35 33 29 26 23 21 18 15 11 12 13 13 14 14 13 11 11 12 13 13 14 16 17 20 22 23 24 26 29 33
26 18 13 22 38 28 44 42 40 33 34 31 34 34 32 31 29 27 25 21 19 18 15 12 12 14 15 16 17 16 16 15 16 17 18 20 21 22 23 25 27 31 35
22 11 33 28 37 38 43 40 36 34 33 35 36 37 34 32 31 30 28 26 25 23 22 20 17 16 15 15 16 18 20 20 20 20 22 24 26 26 28 29 31 34 36
27 24 30 36 44 42 41 41 39 35 34 33 33 34 32 32 32 32 31 29 28 28 27 27 26 25 24 22 21 20 20 21 21 22 24 26 29 32 34 37 38 39 41
26 27 20 33 38 49 42 39 37 36 33 35 34 40 32 31 33 33 36 32 30 31 32 31 31 31 30 31 30 30 28 27 28 29 31 31 32 32 36 37 37 39 41
16 19 6 34 29 35 45 36 43 34 39 37 24 19 22 20 29 33 33 38 36 31 28 30 32 33 34 34 36 36 37 36 36 36 40 41 41 41 43 43 43 45 45
18 18 18 15 30 22 15 28 41 46 46 33 25 28 31 26 22 23 23 26 27 27 29 29 32 34 34 36 37 39 41 41 41 42 46 51 52 50 50 52 54 52 53
15 14 12 13 16 20 26 35 30 27 27 29 32 33 33 28 28 27 27 30 32 32 34 36 37 37 39 39 40 39 40 39 39 44 43 46 44 45 53 61 66 67 61
11 11 10 8 18 14 14 17 16 21 23 25 28 30 31 28 26 28 31 33 34 38 37 37 37 37 39 40 41 41 42 42 44 47 49 51 52 51 52 49 63 66 67
6 11 14 10 20 17 21 24 23 26 28 25 25 30 31 31 29 27 27 28 29 31 33 37 39 40 39 39 41 44 45 45 44 50 52 52 52 49 45 51 51 59 52
12 12 13 8 12 18 14 13 16 18 22 24 25 26 26 27 27 29 28 27 28 31 32 34 36 38 39 41 41 42 39 49 51 56 49 51 60 56 54 52 55 58 60
18 17 17 14 11 7 6 8 14 21 24 28 29 28 27 26 25 23 22 23 24 28 31 31 32 35 37 39 41 42 44 43 46 48 50 52 52 52 52 51 49 49 52

GFSMW_500_spd_111.txt.gz
Wind_Speed
49 47 48 51 44 42 41 40 38 35 34 36 38 36 36 35 36 36 32 28 29 30 29 30 30 30 29 26 29 27 25 33 29 37 38 38 40 35 35 37 38 39 36
48 49 51 48 45 45 44 43 41 38 36 37 38 38 38 37 36 36 34 31 29 31 31 31 31 32 31 28 30 27 26 18 21 36 34 40 40 35 35 37 35 38 37
50 49 48 45 45 45 45 43 43 40 40 38 36 39 39 37 38 35 38 31 29 32 31 32 32 33 32 28 28 24 23 25 23 32 24 38 38 35 35 39 36 34 34
52 48 48 46 44 44 45 45 43 41 41 40 37 38 38 37 38 38 39 31 30 31 31 31 33 35 32 30 29 24 26 24 23 30 28 28 34 40 36 39 40 37 36
49 49 48 47 45 46 47 46 44 44 44 41 38 38 40 39 40 40 38 31 27 30 31 32 33 37 33 32 30 31 26 24 23 27 36 37 35 37 30 33 41 38 37
47 46 47 47 48 48 46 44 44 43 44 42 40 39 41 42 42 40 38 32 27 29 30 32 34 35 34 34 34 30 28 29 27 29 28 40 32 31 27 32 39 37 38
41 43 47 49 49 48 44 42 42 42 42 40 39 39 41 44 43 43 39 32 29 28 29 31 33 33 36 37 33 28 30 31 33 24 24 30 24 23 23 30 35 33 36
40 42 46 48 47 46 43 41 40 41 42 41 40 39 40 44 44 44 41 35 29 28 28 31 32 33 31 28 25 27 22 22 20 25 20 17 22 24 21 19 23 21 23
39 42 46 47 46 45 43 42 40 42 45 43 40 39 41 45 45 46 44 36 29 27 27 30 30 29 25 22 23 26 28 23 17 23 15 20 17 18 19 15 20 23 21
37 41 43 43 46 46 45 43 42 43 44 40 40 39 42 45 46 47 47 36 29 27 26 29 28 23 21 20 23 27 28 26 23 22 18 12 18 17 22 18 19 23 24
35 38 40 42 45 46 47 42 42 43 43 42 42 42 44 45 48 50 49 37 30 27 27 27 25 19 18 22 25 27 30 28 30 25 19 19 20 19 23 26 26 22 24
31 34 38 42 45 46 48 46 44 43 46 45 43 43 44 44 50 51 49 37 30 28 27 27 23 19 18 19 25 27 29 31 34 34 30 30 25 21 23 23 28 24 26
31 35 37 39 42 43 43 43 42 43 45 47 45 43 44 45 53 52 49 37 31 29 29 27 23 22 16 16 18 22 22 24 23 24 23 29 26 27 29 33 29 30 27
34 36 37 39 40 39 40 44 44 45 45 44 42 41 45 48 55 53 47 39 33 30 30 26 25 22 17 13 13 12 12 14 22 24 28 26 30 28 34 35 36 32 32
34 36 36 39 41 42 43 46 47 43 45 43 43 48 54 55 55 52 44 38 36 31 31 26 25 23 21 17 14 13 12 9 11 17 27 28 30 28 28 27 31 29 31
35 37 39 42 43 45 48 49 46 47 37 39 43 49 54 55 53 46 43 37 37 34 32 28 24 22 22 21 18 16 14 11 11 11 11 12 14 15 18 18 20 22 23
38 39 41 44 49 46 42 39 32 29 36 39 43 50 51 46 44 46 44 38 36 37 34 30 26 21 19 18 16 15 15 15 16 16 16 16 17 19 20 22 25 26 28
35 35 37 41 39 32 30 31 33 35 34 36 45 47 47 48 48 49 38 39 38 36 35 31 29 25 23 19 16 15 14 14 14 14 13 15 17 20 24 27 27 27 28
32 34 36 36 38 38 33 35 35 28 33 37 45 46 46 44 45 43 38 39 39 36 34 31 28 27 26 25 24 22 22 22 21 19 18 20 22 23 25 26 26 26 27
31 31 26 26 28 30 33 34 37 34 37 37 43 47 47 43 33 32 36 38 38 38 35 31 31 31 30 27 26 27 26 27 27 26 25 26 26 26 27 27 29 30 31
27 28 23 20 20 17 20 28 37 44 36 37 38 36 44 39 35 34 35 37 38 43 46 45 41 39 33 34 30 31 31 30 29 28 28 28 30 28 27 30 32 33 34
23 20 17 16 11 5 9 11 42 39 45 41 43 51 45 42 39 36 37 40 31 35 38 37 38 39 36 35 32 31 31 31 32 32 24 23 23 36 34 34 36 38 40
15 13 15 15 11 4 5 6 14 36 38 37 35 49 51 48 43 42 45 51 31 18 23 24 25 28 30 31 30 31 33 35 37 37 37 39 43 43 37 41 48 45 44
15 8 5 9 13 11 11 12 10 15 31 31 34 25 20 22 30 38 29 31 29 27 25 24 25 28 31 30 32 36 38 39 40 42 42 43 44 46 46 50 50 52 56
13 12 7 4 8 9 3 13 13 12 15 29 26 31 34 33 31 33 29 26 25 26 26 27 29 30 32 34 38 41 43 44 43 44 47 49 49 47 51 50 51 55 57
21 14 13 11 10 12 10 3 11 16 14 14 22 29 32 34 29 28 27 28 28 28 29 30 32 35 36 39 41 42 41 40 40 40 41 43 45 47 49 49 50 52 54

GFSMW_500_spd_114.txt.gz
Wind_Speed
52 49 49 45 46 48 42 39 39 35 32 29 32 34 35 30 36 35 33 33 32 33 32 27 26 28 30 30 29 29 32 32 30 29 31 32 30 39 34 31 19 23 30
50 50 48 50 50 52 45 42 43 39 36 32 32 36 36 33 36 37 34 32 31 34 32 28 26 28 31 32 30 29 32 31 30 33 29 36 35 37 39 35 27 29 31
51 49 50 53 53 49 45 46 44 42 39 36 33 36 33 35 36 35 36 34 34 32 32 30 28 28 31 32 32 29 32 31 28 23 22 30 40 33 36 35 31 28 34
53 51 50 56 53 44 46 47 44 40 40 37 37 35 34 36 37 37 36 36 36 31 33 31 28 29 30 32 34 30 29 29 28 26 30 19 30 32 34 34 31 28 32
53 53 56 56 52 49 48 48 43 41 42 42 40 37 36 37 37 38 36 35 38 33 33 30 28 28 30 32 35 33 29 31 29 30 25 24 28 26 30 27 30 32 34
61 60 59 57 53 51 52 48 45 43 42 42 42 39 37 35 36 39 37 35 37 35 33 30 30 28 29 32 36 35 33 33 30 29 25 25 26 30 29 28 31 33 34
61 60 62 51 54 55 53 50 47 43 44 43 41 39 37 36 37 39 39 34 36 35 33 30 30 28 29 32 37 38 35 27 29 31 28 35 31 28 31 33 32 29 27
48 39 51 58 59 54 52 52 48 45 44 42 39 38 37 36 36 37 35 32 34 35 33 29 30 29 29 32 36 35 28 24 25 29 29 23 29 27 27 29 28 25 23
37 44 53 55 48 47 51 51 47 44 43 40 38 37 39 35 36 38 35 32 34 36 34 29 31 28 28 31 34 27 24 24 23 20 19 17 27 30 28 25 28 24 25
38 40 45 48 41 42 45 47 45 42 42 39 38 37 41 39 39 37 37 33 35 39 33 30 30 28 28 30 30 23 22 22 23 25 22 21 22 20 17 16 19 20 23
35 31 30 30 38 42 42 41 42 41 42 41 41 36 40 39 38 38 38 35 36 39 35 30 31 28 27 28 27 25 23 22 24 27 24 22 18 16 14 14 19 20 22
23 30 34 35 39 40 39 39 41 39 41 39 40 40 39 41 39 40 40 39 37 39 37 30 31 27 26 28 25 25 26 28 27 29 29 31 28 21 17 17 17 25 27
27 29 31 31 34 37 38 38 39 41 40 42 42 43 42 43 41 41 39 41 40 40 37 30 32 28 28 29 25 25 23 27 28 30 33 35 33 31 26 18 17 26 29
25 25 26 27 29 33 35 37 40 39 39 40 40 42 43 41 42 42 40 43 41 40 38 31 31 28 28 28 23 22 18 13 16 26 28 29 30 30 25 24 24 29 31
23 22 23 25 29 31 34 36 37 37 39 39 40 40 39 41 36 37 41 44 43 41 39 33 30 29 29 27 24 21 16 17 16 14 19 27 29 25 26 30 32 32 32
22 21 23 24 26 29 33 35 38 39 42 43 45 43 43 42 43 42 46 47 43 41 37 35 32 30 29 26 24 23 19 17 16 13 9 8 24 26 21 20 16 16 12
21 22 25 27 29 32 36 38 42 44 45 45 46 45 44 44 46 49 49 46 43 42 38 37 34 32 29 26 21 19 19 20 19 17 14 12 13 14 16 16 17 19 21
22 25 27 29 31 36 41 43 44 47 47 42 36 33 36 39 39 41 43 42 42 42 40 41 37 35 30 27 23 21 20 18 17 17 18 18 18 19 19 19 19 21 20
25 25 27 29 33 37 39 38 37 39 38 43 36 30 33 37 36 39 41 44 44 45 43 42 37 35 32 32 30 28 26 24 22 21 20 19 19 19 19 19 19 20 22
24 27 30 32 30 34 37 39 37 31 33 37 29 25 26 33 35 40 44 44 45 44 47 38 37 37 36 35 35 34 32 31 29 27 27 25 24 25 25 25 26 26 27
26 26 25 28 30 33 30 35 31 27 31 29 29 23 26 31 41 41 40 42 48 59 41 39 38 39 39 40 38 35 32 32 32 30 29 29 30 30 29 30 31 30 30
25 26 26 28 27 25 25 16 12 17 35 43 37 30 34 32 32 35 34 48 46 38 37 41 42 45 47 44 40 41 39 38 33 33 32 30 30 29 31 31 33 33 34
25 23 20 22 21 22 18 14 9 10 27 41 42 42 37 44 39 43 47 44 39 36 39 43 39 41 42 50 49 48 41 38 36 31 30 32 33 34 35 35 34 34 42
21 17 16 10 6 5 8 9 8 5 6 23 33 45 54 57 46 51 54 46 42 41 39 37 33 34 35 39 40 45 41 39 32 32 29 31 32 33 40 40 40 46 50
18 17 18 16 10 10 9 10 6 7 7 4 24 29 32 40 41 38 44 42 48 47 37 31 30 27 27 34 34 33 35 36 35 37 39 41 44 45 46 45 46 50 49
19 19 22 18 16 15 13 12 8 5 8 12 12 14 23 30 32 34 36 36 35 34 36 34 33 32 34 36 36 38 36 37 38 39 42 45 46 47 45 43 43 44 45

GFSMW_500_spd_117.txt.gz
Wind_Speed
52 51 51 46 43 41 42 43 39 37 33 28 31 35 36 35 30 34 31 30 28 31 30 31 28 26 28 27 24 23 24 26 30 29 31 29 26 29 34 30 31 29 21
56 53 48 50 48 45 45 45 38 37 38 35 29 34 38 37 30 33 36 31 30 31 32 32 29 27 28 28 27 24 24 25 32 31 33 34 33 35 32 26 30 33 25
55 55 49 51 47 46 47 47 41 40 42 37 34 34 38 36 31 33 36 36 34 32 35 33 29 28 29 30 29 26 25 27 31 32 30 24 22 20 33 38 34 35 31
48 46 53 56 51 51 48 48 46 44 44 40 38 34 34 34 34 36 37 36 35 32 33 32 29 27 28 31 29 28 27 28 30 33 29 27 23 27 26 35 34 35 34
55 48 53 62 55 49 51 54 45 46 45 44 41 37 34 32 34 37 37 38 38 32 31 31 28 25 29 31 31 29 28 30 30 33 33 29 26 25 22 29 30 31 29
45 44 48 52 62 57 52 50 46 49 46 43 42 39 37 33 34 38 40 39 38 33 32 31 28 25 28 31 32 28 30 33 31 33 35 32 27 27 20 25 33 29 30
52 60 57 59 64 59 58 55 52 43 43 46 43 43 40 37 34 36 40 38 37 32 32 33 29 24 26 30 32 28 31 33 32 28 30 30 27 26 29 26 28 29 29
49 57 58 56 58 61 56 57 49 51 45 47 45 44 44 39 37 37 38 36 34 30 32 34 27 23 25 29 30 27 31 31 31 26 23 27 22 31 25 27 30 32 28
40 42 40 37 40 47 52 51 53 53 51 46 47 45 44 42 37 38 37 35 32 30 29 31 25 22 25 28 29 27 29 28 29 24 22 23 21 21 27 33 32 29 32
42 37 33 38 41 41 44 49 52 52 49 48 48 46 44 39 41 38 37 36 32 33 32 30 29 24 24 27 28 27 27 26 27 23 21 22 22 21 23 30 34 28 33
42 41 42 38 36 38 44 45 48 47 44 43 43 43 42 36 43 39 39 39 35 34 34 32 31 25 24 27 28 28 27 25 25 23 26 26 26 23 21 25 22 28 32
45 31 32 34 36 35 40 50 51 49 48 42 40 43 40 38 42 40 39 41 38 34 35 31 31 26 25 28 28 29 26 25 26 24 27 29 28 28 25 18 19 18 21
25 27 37 33 32 34 34 36 37 38 36 38 39 37 36 38 40 40 40 41 38 37 40 33 34 29 26 28 29 29 26 26 25 25 26 30 28 31 29 30 15 14 20
28 35 38 28 23 26 28 32 35 40 36 36 36 39 43 42 44 42 42 44 42 39 43 36 34 30 26 30 29 28 24 25 21 21 18 28 29 32 31 31 30 25 23
29 29 23 24 26 27 27 29 31 35 34 37 39 40 42 42 40 41 43 42 42 42 43 39 37 30 28 31 30 28 24 24 20 21 19 14 22 28 29 31 36 31 28
20 22 23 26 25 25 28 31 29 32 36 38 38 39 39 40 39 38 38 41 40 43 44 41 38 32 30 31 31 28 25 24 21 22 18 15 10 23 32 33 32 35 31
20 21 23 24 24 25 25 25 29 31 34 35 38 39 39 40 41 41 42 41 43 45 45 44 39 35 31 32 32 26 25 23 24 24 22 18 14 11 21 29 24 22 24
20 20 22 24 24 25 27 28 30 32 35 37 40 43 46 45 43 44 46 48 50 48 47 43 39 36 33 32 32 27 26 23 24 23 22 21 19 17 18 17 16 18 20
21 22 24 25 25 28 30 31 34 37 38 39 41 43 41 34 32 32 38 45 47 48 44 43 39 37 34 32 33 29 29 25 25 23 22 21 20 20 20 21 23 24 25
25 26 26 27 27 26 29 32 35 38 39 41 39 40 34 33 32 29 34 36 37 37 41 40 39 38 35 40 35 32 33 32 31 29 28 26 25 23 24 24 24 25 26
27 27 27 27 26 27 29 29 32 30 34 33 29 29 30 24 25 30 35 35 35 37 40 40 41 39 39 43 37 35 38 39 39 37 34 33 33 32 30 30 30 30 31
26 26 24 23 26 27 28 29 28 29 28 31 27 24 31 28 24 26 34 34 35 36 43 43 42 40 49 47 39 39 42 44 44 41 38 36 37 36 36 35 34 34 33
23 22 22 22 21 20 21 24 28 23 24 15 18 32 39 39 25 26 32 37 30 36 42 47 42 47 54 45 40 43 44 47 44 43 41 40 42 37 36 34 34 35 36
23 22 21 20 18 17 17 16 14 14 13 13 10 14 33 38 41 31 33 39 42 39 39 45 51 55 50 40 43 47 51 42 48 50 51 48 41 37 32 34 30 33 37
22 21 19 20 19 20 19 18 18 13 9 6 2 9 16 30 38 36 40 46 49 39 47 41 38 38 38 42 42 45 41 36 41 32 43 40 39 32 38 40 39 42 46
18 19 19 19 19 22 23 24 24 14 11 9 6 5 8 19 29 38 46 47 41 39 40 35 37 43 44 35 33 30 32 32 31 40 50 43 41 47 45 42 43 45 46

GFSMW_500_spd_120.txt.gz
Wind_Speed
54 55 51 50 46 39 39 40 37 37 33 28 28 33 33 35 31 29 32 32 32 31 30 29 29 29 26 27 23 24 24 22 23 23 24 25 26 28 29 23 30 27 27
56 56 53 52 49 45 42 41 39 40 37 34 31 34 37 35 33 30 30 30 33 34 32 32 30 30 27 28 25 24 25 25 25 25 26 25 26 27 23 23 33 33 28
52 55 53 52 50 48 48 47 45 45 42 40 37 35 35 33 35 34 32 34 38 37 33 33 32 30 27 29 28 25 26 27 26 27 27 27 25 27 24 23 23 26 25
51 53 55 54 51 51 52 48 47 45 44 44 41 38 37 37 35 37 37 37 37 38 35 33 33 31 28 29 28 26 26 28 28 28 28 30 25 27 25 25 26 26 32
52 51 48 54 57 56 55 56 46 41 50 44 45 39 36 37 34 34 38 38 38 39 39 34 33 32 31 30 28 25 26 29 29 29 30 31 32 29 28 26 30 25 32
49 50 53 51 52 53 55 57 53 47 48 45 45 42 41 38 36 36 37 38 39 41 40 37 33 34 33 31 29 26 26 29 29 30 31 30 32 30 29 25 26 22 29
53 51 42 45 50 49 50 51 52 55 52 51 46 48 48 42 39 36 39 39 40 42 41 38 35 34 36 32 29 25 26 28 30 30 28 28 29 30 25 26 27 25 30
48 53 48 45 47 47 50 49 51 52 51 50 45 47 49 47 44 38 39 40 40 40 40 37 35 35 37 31 30 25 25 28 29 30 27 25 26 24 21 26 26 25 29
58 57 54 51 51 48 49 52 55 56 51 48 48 48 50 49 50 42 40 41 41 40 39 35 34 34 34 30 31 25 26 27 28 28 27 24 24 20 18 22 29 32 33
47 49 52 51 55 58 60 62 61 63 62 57 49 48 52 50 50 43 41 43 42 40 38 36 33 34 33 30 30 26 26 27 27 27 27 25 24 20 19 20 24 26 33
43 47 56 55 47 47 52 51 50 49 46 47 44 45 52 51 51 47 45 46 43 41 38 37 35 36 35 31 30 27 27 27 26 26 27 24 25 27 24 26 26 26 32
47 47 48 40 36 33 36 42 40 44 42 46 42 42 47 49 47 46 45 47 44 41 39 39 37 38 35 34 32 28 28 27 26 27 27 26 26 27 29 28 29 15 27
43 39 41 39 38 42 44 38 41 43 46 51 42 43 45 44 40 43 49 46 44 41 40 40 40 40 36 34 34 31 29 27 26 27 26 27 28 28 28 30 28 23 24
18 30 35 39 39 38 43 42 46 46 46 40 37 36 35 38 41 41 41 43 42 41 40 40 41 43 38 39 36 32 29 27 27 26 24 25 24 21 27 30 28 26 29
21 21 22 28 32 34 38 37 32 33 33 35 35 36 36 38 38 39 42 41 41 40 41 43 44 46 41 40 37 34 29 27 28 26 25 24 22 21 21 28 29 31 28
18 20 20 19 22 22 26 29 35 38 33 34 34 34 36 39 41 41 43 42 43 43 44 44 46 46 42 42 40 35 29 28 28 27 25 25 21 21 19 28 30 32 33
22 19 18 19 20 23 25 29 32 34 37 38 35 38 40 41 42 41 41 41 40 41 42 43 45 45 44 44 40 36 30 29 30 28 25 27 23 22 21 17 25 36 33
15 17 20 23 25 27 30 30 31 33 33 32 35 39 40 42 42 41 41 40 41 41 42 44 46 48 48 46 41 36 31 30 31 28 25 25 23 23 22 20 17 18 27
16 21 23 25 28 30 30 30 31 33 32 32 34 36 39 41 41 42 44 48 48 48 48 53 52 51 49 46 40 36 32 31 32 29 27 24 23 24 24 22 21 20 19
17 19 21 24 26 29 29 30 32 33 34 36 37 39 39 41 43 45 47 46 45 48 53 53 59 51 49 43 40 35 33 34 34 32 30 25 24 24 23 22 22 24 25
22 24 24 24 27 28 30 33 34 36 38 39 38 42 43 41 42 38 35 29 33 40 38 44 49 46 45 44 36 38 37 38 36 35 34 32 29 29 29 27 27 27 28
26 27 26 28 28 28 29 31 32 33 34 34 32 35 36 33 34 28 25 28 30 36 35 42 38 37 43 40 39 38 41 39 40 38 38 37 36 35 35 33 33 33 34
26 28 28 27 26 26 28 26 24 24 27 27 25 25 27 29 27 30 29 32 30 34 36 38 38 41 43 40 38 42 42 42 42 41 41 41 40 39 38 37 37 40 41
26 27 26 25 23 24 23 24 23 22 22 24 21 24 21 27 33 33 30 29 30 33 42 30 32 40 43 46 49 43 42 46 48 43 41 42 41 40 38 42 43 46 46
26 25 24 23 22 21 20 23 24 23 25 28 19 17 19 12 19 34 37 35 35 37 38 39 41 48 45 43 46 46 43 51 53 46 43 45 44 41 43 48 50 49 41
21 20 19 18 19 17 17 17 19 25 26 18 16 14 7 4 11 20 34 33 41 42 45 46 49 42 41 45 49 52 50 36 36 30 36 47 44 42 33 36 34 41 41

GFSMW_500_spd_123.txt.gz
Wind_Speed
65 65 62 60 58 50 42 38 40 38 38 38 36 32 32 31 32 32 33 33 34 32 31 31 29 28 28 28 27 26 24 23 26 24 26 26 27 26 26 26 28 24 19
69 67 63 61 59 56 48 40 41 39 38 36 34 33 35 33 34 36 36 33 33 34 34 36 33 31 30 29 28 28 26 25 26 25 25 26 25 28 28 23 22 20 18
66 69 71 70 66 64 57 47 42 43 42 41 38 34 37 41 41 36 36 35 35 37 38 39 35 32 30 30 29 30 29 27 27 25 25 26 26 28 29 26 22 22 21
63 68 72 74 75 70 62 59 48 48 46 47 44 42 41 48 43 43 41 33 37 39 41 40 36 34 32 31 31 33 31 29 29 27 26 26 27 30 28 31 26 25 22
61 65 68 70 67 63 62 64 50 49 50 50 48 49 50 50 44 40 34 36 39 42 43 42 39 36 34 33 33 35 33 32 31 29 25 27 29 32 34 29 29 27 28
58 62 62 60 63 60 60 57 48 49 49 49 47 46 50 42 36 34 35 37 38 41 42 42 40 38 34 34 35 37 36 35 33 29 26 26 28 33 34 30 29 27 29
48 53 57 59 56 57 57 52 52 50 51 53 51 49 52 45 41 39 39 39 40 41 40 41 40 39 35 35 37 38 39 36 35 30 27 26 27 31 32 31 25 25 23
37 40 41 44 48 48 52 51 49 48 49 48 46 46 50 48 46 43 45 41 43 44 45 42 40 40 39 37 37 40 39 36 35 31 28 26 27 29 29 28 24 24 25
45 44 44 46 47 48 50 49 46 45 45 45 42 41 43 46 50 52 50 46 49 42 47 45 43 42 41 41 38 40 37 36 34 32 29 26 26 26 27 26 21 23 27
39 42 46 46 45 47 48 47 46 48 46 45 46 47 48 49 49 51 55 47 47 46 46 48 45 41 42 41 39 38 37 35 34 34 31 27 26 26 25 24 22 23 23
35 42 46 46 54 52 54 52 51 53 54 52 53 54 55 59 60 62 60 54 47 49 47 48 46 43 41 42 39 37 38 38 35 35 32 29 27 26 25 25 27 26 29
34 35 40 47 55 46 51 50 50 52 52 57 57 63 66 63 63 64 60 58 52 49 49 48 47 46 41 43 40 37 40 39 35 36 33 30 28 27 27 27 28 32 30
36 38 43 45 43 47 47 49 52 50 50 43 49 44 41 47 52 51 54 54 52 50 52 50 45 45 43 42 42 38 40 41 38 37 34 32 29 28 29 27 29 32 31
27 30 31 32 40 40 36 34 33 35 37 40 40 44 47 45 44 44 46 45 48 48 47 48 42 43 45 43 43 41 40 41 40 38 35 34 29 29 28 29 25 31 30
33 31 38 34 33 40 39 39 41 42 43 44 46 47 40 43 44 42 42 42 46 47 49 47 46 44 47 44 44 41 40 41 41 40 36 34 29 31 28 26 22 26 29
40 36 19 24 19 20 20 28 33 35 41 44 46 44 39 37 39 42 45 41 41 39 42 46 46 44 44 43 45 42 42 43 44 41 37 34 30 31 29 27 25 23 25
22 23 19 20 25 19 20 22 25 26 31 31 34 35 39 36 36 37 36 40 39 40 42 42 42 42 44 46 46 44 44 45 45 42 39 34 31 33 33 31 25 21 23
16 14 16 18 20 21 22 23 26 28 32 31 33 34 34 37 38 43 40 37 38 39 39 40 42 43 43 44 47 45 44 46 45 43 41 35 32 33 33 33 24 23 26
10 11 16 18 20 23 26 28 30 33 34 35 36 35 35 36 36 38 39 36 36 36 37 40 41 42 44 44 48 47 45 46 45 44 39 36 33 32 33 33 26 25 26
19 17 19 20 22 24 25 27 30 33 34 35 35 35 35 34 34 37 39 39 40 41 43 43 45 46 48 49 50 50 46 47 45 43 40 36 35 33 32 29 24 22 23
15 18 22 25 27 27 26 28 30 32 33 35 37 36 37 38 38 37 39 40 42 45 47 48 50 52 50 41 47 41 46 44 43 43 39 36 37 36 33 31 27 24 23
17 20 22 24 24 26 28 31 32 32 35 38 38 39 38 40 41 41 43 46 46 48 47 42 43 47 48 57 62 62 46 46 45 42 40 38 39 39 37 35 32 31 28
20 19 18 21 26 28 29 30 32 33 34 37 36 39 42 41 43 42 45 45 40 39 36 26 28 41 50 54 46 37 40 49 46 40 42 41 38 42 40 39 37 36 33
27 27 27 30 33 32 30 30 31 32 33 32 31 26 28 34 34 37 39 37 36 36 37 32 30 30 47 36 40 47 49 48 45 42 40 44 43 42 40 39 37 35 36
27 27 29 29 29 29 28 29 29 30 30 29 32 33 33 29 26 27 32 37 37 35 37 28 34 30 30 38 30 41 47 44 47 45 48 46 42 46 45 46 36 35 36
22 22 23 26 24 24 24 23 23 24 23 23 21 24 30 25 20 20 19 31 42 37 36 37 43 38 41 40 44 35 44 49 45 55 41 44 47 52 47 44 37 33 35

GFSMW_500_spd_129.txt.gz
Wind_Speed
75 76 70 69 70 73 72 71 68 61 54 46 42 41 40 36 36 37 37 38 36 35 36 35 35 33 30 28 25 26 25 26 24 21 21 21 20 20 22 25 25 24 23
91 88 83 76 76 73 74 75 71 65 57 48 44 41 40 41 38 40 39 39 39 39 41 37 37 38 36 33 29 28 27 27 27 25 23 21 23 24 23 26 28 27 24
108 100 97 83 81 81 76 76 73 68 60 49 46 44 45 44 38 36 37 39 41 42 42 40 43 42 39 37 34 29 28 29 29 29 26 22 24 25 25 26 29 29 27
86 97 99 90 87 86 84 81 75 72 63 52 48 46 47 43 37 38 40 41 45 48 45 48 49 47 45 39 38 34 30 30 29 31 29 25 25 27 26 28 31 31 31
50 71 69 76 90 86 86 84 78 71 65 58 49 47 49 46 41 40 43 46 49 51 49 52 59 56 45 43 38 36 35 31 31 31 30 31 27 28 29 28 30 30 34
32 57 62 61 88 83 83 82 77 73 67 60 52 51 49 49 45 44 47 49 51 51 51 55 47 38 45 42 40 39 35 31 31 31 31 33 33 29 31 29 29 29 30
21 34 40 53 79 77 77 78 76 74 69 63 55 53 51 51 48 51 51 52 52 53 53 51 50 45 45 46 43 35 32 33 32 31 31 33 35 34 33 31 30 28 29
4 23 41 47 55 68 74 74 74 70 69 62 57 53 52 54 54 53 52 54 55 57 56 51 47 52 52 47 37 34 32 34 34 33 31 32 34 36 35 33 30 29 28
12 22 33 42 40 49 61 64 67 66 66 59 60 58 57 56 53 55 57 58 58 57 56 52 49 42 42 40 35 36 35 37 36 35 33 33 34 35 36 35 31 30 27
14 23 31 30 35 38 56 49 61 65 65 60 61 60 56 54 56 58 55 57 59 58 55 48 44 44 46 41 39 42 39 41 41 40 38 35 36 37 35 36 32 31 29
13 15 25 27 27 36 47 61 39 39 52 62 62 51 55 47 53 51 50 53 54 52 46 42 45 43 40 41 42 42 42 44 47 45 42 38 37 38 34 35 34 32 30
17 18 21 25 30 35 39 47 54 59 49 41 41 45 45 46 44 42 41 42 42 42 41 41 42 40 42 45 46 49 48 46 50 50 46 41 39 38 37 35 36 32 33
18 16 22 27 32 35 37 41 44 47 49 50 51 48 45 43 43 46 43 41 41 47 50 49 47 49 49 51 52 53 54 51 50 51 48 43 42 39 39 37 38 34 34
15 11 12 21 30 37 31 33 41 39 45 51 50 42 42 43 48 41 45 48 50 52 53 53 54 55 52 50 53 52 51 54 55 51 50 44 42 41 42 40 39 35 35
19 20 12 12 14 26 31 37 37 45 37 29 23 33 43 48 47 41 39 38 42 49 50 51 51 51 51 51 52 52 47 52 54 52 50 44 44 44 44 42 40 36 35
22 24 25 28 22 17 20 28 35 28 27 26 28 34 36 32 27 26 29 35 37 42 44 46 45 46 50 50 50 48 46 45 49 52 53 50 46 46 44 42 40 38 37
15 23 26 25 26 25 22 25 26 28 29 31 28 29 32 28 27 30 28 31 33 39 47 52 50 48 47 48 43 42 44 46 47 48 51 48 46 46 44 43 41 40 37
2 10 20 30 19 25 33 28 32 21 20 21 21 20 23 25 25 27 30 28 32 35 37 40 43 45 46 43 42 44 42 44 47 45 44 46 45 44 44 44 44 41 40
10 12 6 7 4 5 6 9 8 11 16 14 18 22 25 26 27 28 28 27 28 32 34 36 37 37 42 44 43 44 45 44 43 49 45 46 45 45 45 46 44 43 41
6 5 3 4 5 6 6 8 10 13 15 17 20 22 24 25 26 28 29 30 32 33 32 33 35 34 36 43 44 46 45 45 41 39 42 45 46 43 46 46 45 46 41
10 10 8 9 11 13 15 15 18 18 20 21 23 22 23 30 31 32 32 33 35 36 34 35 37 32 35 37 39 44 50 46 44 44 45 43 45 46 49 48 47 46 41
14 15 15 15 15 16 17 16 18 19 19 21 23 26 28 30 33 36 39 40 40 41 41 39 35 35 39 35 38 41 41 42 44 45 45 45 46 45 47 47 45 44 41
22 20 19 21 21 22 22 23 23 24 25 25 27 30 32 33 36 39 42 45 46 47 51 48 46 41 40 39 33 40 40 42 43 44 40 48 49 42 43 46 47 46 44
24 25 28 28 29 29 29 30 31 32 32 34 35 36 35 38 44 45 46 49 52 53 54 56 53 49 44 42 38 34 39 44 44 45 42 42 41 42 49 53 48 47 47
26 28 29 30 31 32 34 36 37 36 36 37 36 36 36 36 36 40 47 51 54 53 53 52 53 53 48 42 39 31 32 30 33 38 46 41 44 48 46 43 43 44 47
30 29 30 31 30 30 31 33 34 36 36 35 34 34 35 37 34 34 36 39 41 39 39 38 35 37 39 37 33 34 29 34 35 40 44 50 50 46 43 42 42 44 48

GFSMW_500_spd_132.txt.gz
Wind_Speed
79 82 75 74 70 69 71 70 73 71 69 66 62 54 49 41 37 36 37 39 37 36 36 36 36 36 31 33 31 29 28 27 28 24 21 21 21 20 20 20 22 22 21
90 90 92 87 84 77 77 75 73 76 75 68 64 56 52 44 40 40 41 40 38 38 40 41 41 39 35 35 35 34 32 31 31 29 26 23 22 22 24 23 24 24 23
81 90 88 103 96 90 83 81 76 78 78 72 67 58 57 52 47 44 41 37 40 41 41 43 45 42 41 40 41 41 37 36 34 32 29 25 23 24 26 25 25 26 26
38 42 58 86 99 100 90 88 81 80 79 77 71 65 58 52 46 44 41 39 40 43 43 44 45 46 44 44 46 47 45 41 36 34 31 28 25 25 25 28 26 26 28
48 54 52 53 61 91 89 92 92 85 82 79 74 69 59 54 50 52 47 42 42 45 46 46 47 48 49 51 52 54 55 48 43 35 32 29 27 28 28 27 28 28 29
50 42 42 36 41 66 84 91 94 90 85 76 74 70 62 59 55 53 49 44 44 47 48 48 42 51 52 52 47 47 50 51 47 38 30 30 29 28 30 30 31 28 28
31 36 29 23 20 42 61 84 92 88 82 74 72 70 67 59 54 56 54 51 46 47 47 48 49 48 51 44 40 42 38 46 43 34 30 31 31 30 29 31 31 30 30
23 26 16 9 22 36 42 67 81 80 74 72 71 70 68 66 57 56 55 50 48 48 48 48 51 51 52 48 45 41 37 44 44 44 30 32 32 31 30 30 32 31 30
16 15 5 15 24 30 38 62 71 73 73 72 70 70 69 53 53 54 54 50 51 53 50 52 53 51 53 52 49 44 35 35 44 38 29 32 33 33 31 31 33 34 31
8 6 6 8 8 23 43 60 70 71 71 69 64 72 65 60 50 56 55 54 52 55 52 50 52 55 50 48 51 42 34 38 38 35 35 36 33 34 34 35 36 34 33
9 12 9 11 13 20 36 54 64 60 67 51 59 58 57 57 51 52 54 56 53 52 52 52 54 53 51 52 48 39 42 41 41 43 44 41 37 37 37 39 39 35 34
7 5 6 6 15 23 31 48 59 55 60 69 63 56 53 58 53 52 54 51 53 59 55 50 49 45 42 43 39 42 44 44 46 45 46 44 44 44 41 40 41 39 36
4 9 6 4 14 15 23 27 44 45 53 58 59 61 61 60 56 51 60 60 56 49 48 53 45 43 42 41 44 46 46 45 46 47 48 48 49 46 46 44 45 42 40
10 4 11 13 13 13 22 32 39 46 41 44 52 50 55 51 44 45 49 49 44 42 41 45 47 44 44 44 48 47 47 49 48 49 49 50 51 52 50 47 46 45 44
13 11 10 8 8 24 22 25 29 31 30 36 36 40 41 42 48 48 46 47 43 38 41 43 50 50 50 49 49 52 51 48 53 54 53 52 51 54 54 49 47 47 46
19 17 17 13 12 12 17 21 26 42 35 43 38 42 40 46 34 42 42 44 36 30 32 35 39 42 46 47 51 50 50 47 45 47 50 51 52 51 52 47 50 48 46
13 14 15 16 19 22 24 22 21 19 31 28 22 25 24 26 28 29 29 28 28 29 30 34 38 43 47 49 50 53 53 50 48 49 50 46 49 48 49 49 50 50 47
16 12 3 8 18 23 26 24 18 16 20 21 22 21 25 26 24 28 29 32 33 33 31 32 33 34 36 40 47 50 55 56 53 51 53 49 47 48 46 50 53 50 41
12 13 13 10 6 2 12 13 17 19 18 18 19 21 28 22 21 25 28 31 34 32 31 30 31 32 33 35 39 41 43 50 52 50 51 50 48 46 45 47 47 47 45
10 10 9 7 8 8 7 3 8 9 8 8 11 15 17 21 24 27 30 28 27 28 30 31 32 32 37 38 35 38 39 41 49 51 50 48 48 46 48 45 44 45 39
12 12 12 11 9 7 9 10 10 10 12 14 16 19 22 24 25 26 26 29 31 32 33 34 34 35 35 34 40 47 40 41 41 50 52 50 47 44 47 49 47 37 46
20 18 17 16 15 15 14 13 14 14 15 18 20 22 25 26 27 28 30 31 32 32 34 35 40 42 41 38 38 37 41 44 42 41 49 50 47 46 43 43 45 45 46
28 27 26 25 24 22 22 22 21 21 21 22 24 27 29 29 30 32 33 33 35 36 36 37 41 45 47 48 45 43 40 40 45 45 44 45 48 49 46 47 52 46 46
29 30 31 31 32 33 33 31 32 31 31 32 33 34 36 37 38 38 40 41 42 45 48 47 47 47 52 54 54 48 47 43 41 42 44 42 45 44 45 48 47 54 46
33 31 31 32 33 35 37 38 39 40 40 40 40 41 41 40 40 41 41 40 40 41 44 48 49 54 56 55 54 57 53 49 45 42 42 45 45 45 49 47 45 42 42
27 31 36 37 37 37 36 38 39 40 41 43 43 44 44 44 44 44 44 42 42 44 46 47 49 50 46 46 50 52 49 43 45 43 40 42 47 43 45 51 51 48 45

GFSMW_500_spd_135.txt.gz
Wind_Speed
68 68 70 69 67 69 68 66 70 67 67 62 65 67 64 57 54 51 43 38 37 36 34 33 34 37 35 32 31 31 31 29 29 29 27 25 24 24 21 23 21 22 22
72 74 76 77 78 76 76 74 75 72 72 68 65 68 70 63 54 53 46 44 43 37 32 37 39 40 40 37 32 35 35 35 33 34 32 29 27 27 25 24 24 22 24
69 69 75 80 82 87 76 82 81 82 78 73 68 73 74 68 60 60 52 47 44 39 36 40 43 42 43 41 38 37 38 39 39 39 38 35 31 31 28 27 26 24 24
49 53 58 61 64 66 73 71 76 88 87 80 76 76 75 72 66 57 54 46 46 43 41 40 45 45 43 45 42 41 41 41 41 43 41 41 39 33 30 28 30 26 25
47 51 56 61 65 61 61 61 63 86 93 91 83 78 78 75 70 62 57 51 48 46 46 45 46 47 46 46 47 44 41 41 43 46 49 48 41 37 35 32 30 29 27
42 49 52 56 63 70 73 77 82 72 91 94 89 78 78 77 75 67 61 57 49 48 50 50 51 48 44 45 42 47 45 46 49 39 42 50 50 42 36 36 33 30 28
45 40 37 44 51 56 62 66 71 78 87 99 91 80 79 78 75 69 62 61 52 50 53 55 54 48 43 41 40 45 38 43 35 37 44 42 40 42 40 34 31 32 29
36 36 31 34 29 24 32 38 46 46 77 96 88 64 80 78 77 72 67 64 57 55 56 60 55 51 46 44 44 44 39 38 41 43 39 33 30 33 36 35 34 33 29
32 30 29 27 21 16 13 12 28 41 61 90 87 72 77 80 79 74 68 63 62 63 60 59 56 51 49 44 40 42 42 42 44 40 34 27 37 46 38 31 34 35 30
26 36 41 25 17 17 13 15 16 24 48 82 85 80 76 78 77 75 68 66 67 69 63 61 57 53 48 43 42 42 45 46 44 40 35 34 34 32 33 31 35 37 33
28 29 27 14 24 10 5 9 13 23 43 72 76 75 74 77 78 77 70 68 52 55 56 54 52 49 46 45 46 44 46 47 44 44 37 36 33 37 37 38 37 39 38
29 24 17 23 10 12 5 3 13 27 46 63 60 55 71 71 70 74 66 70 51 42 46 49 50 47 46 48 45 48 49 46 44 39 40 39 39 39 44 42 42 44 44
21 24 16 18 12 9 24 4 17 31 38 53 50 63 63 55 74 76 73 58 54 45 46 44 48 50 51 52 53 51 44 43 41 41 42 44 45 42 44 47 46 47 47
20 16 19 19 11 6 8 14 20 39 31 55 42 61 61 59 63 58 59 42 48 46 47 51 51 52 58 56 52 48 46 46 44 42 44 45 48 50 46 45 46 47 51
27 17 16 18 11 4 15 9 14 40 31 36 53 49 48 51 51 64 52 48 47 49 51 51 49 50 46 45 46 48 47 48 48 48 48 46 49 49 51 56 51 50 50
26 26 15 12 10 7 8 13 21 15 25 25 29 35 41 48 52 56 59 51 52 56 51 48 48 41 44 45 43 46 49 50 51 54 51 49 45 45 48 50 51 53 53
18 22 24 17 9 13 14 6 19 24 21 26 30 37 33 36 38 41 43 46 46 42 50 54 56 42 38 36 36 41 42 43 47 49 49 50 49 47 46 48 47 48 51
17 14 14 19 14 12 15 18 18 18 30 23 33 36 37 35 42 49 50 50 50 49 46 37 36 37 36 37 38 38 38 41 43 48 54 56 59 58 56 55 51 50 50
16 16 16 14 14 13 7 8 15 17 18 15 18 22 31 37 26 28 28 25 30 32 35 33 38 40 39 37 39 40 37 37 38 40 43 45 51 57 57 58 55 51 50
14 14 15 14 13 13 14 13 8 8 15 12 12 14 20 31 36 36 26 20 26 30 34 37 39 41 41 40 39 39 39 40 40 41 36 44 45 46 53 56 56 53 50
20 18 16 18 17 13 13 13 13 12 11 8 11 13 14 14 16 18 21 24 25 27 30 33 36 39 42 39 39 37 37 39 36 39 42 42 43 42 47 54 56 53 50
30 28 26 23 21 20 20 19 18 16 16 16 16 16 17 19 21 23 24 26 28 31 33 36 38 39 40 40 41 43 42 42 39 40 42 39 44 47 44 48 55 54 51
32 33 33 33 31 31 29 27 26 24 24 24 23 24 26 27 28 29 30 30 32 35 37 38 37 38 40 42 45 47 50 49 48 45 45 47 43 45 49 46 47 52 53
35 37 36 34 34 36 37 37 37 36 35 34 33 34 34 34 35 35 36 39 40 40 42 43 45 47 47 47 49 50 50 51 53 53 50 48 47 48 50 48 46 49 49
27 28 30 34 36 38 38 38 40 43 43 43 43 44 44 44 44 45 46 46 45 45 47 46 47 50 52 54 55 55 56 57 56 55 53 53 50 50 49 50 48 45 50
30 29 28 28 28 30 33 39 43 43 43 43 44 47 49 50 51 51 51 52 52 52 52 51 50 50 49 49 51 51 53 57 59 60 61 57 54 52 51 51 49 45 44

GFSMW_500_spd_138.txt.gz
Wind_Speed
62 63 64 64 64 64 62 63 62 61 65 65 64 61 58 59 65 62 59 51 48 42 44 41 38 33 32 31 31 31 27 29 28 27 26 27 27 26 27 27 27 24 24
63 66 67 69 69 69 70 69 67 67 68 72 68 67 63 60 66 66 63 56 49 44 44 44 38 35 39 34 31 32 31 30 30 29 31 27 28 29 30 29 30 30 27
65 67 68 70 71 71 74 74 73 73 73 73 77 72 69 66 66 72 66 62 53 48 47 45 41 38 43 38 35 36 35 34 31 32 32 30 32 34 33 33 32 33 30
57 63 67 63 64 60 61 64 62 60 65 72 75 81 76 72 65 73 68 68 60 52 47 44 44 42 41 44 42 37 37 39 33 32 34 35 38 39 38 37 34 34 34
55 56 54 51 54 51 58 64 66 68 66 66 67 80 81 79 71 69 72 73 66 55 49 45 47 45 43 46 44 42 41 40 36 29 33 39 39 33 36 39 40 38 37
47 46 45 49 50 56 55 50 51 60 68 69 65 71 86 84 79 71 75 73 69 60 55 49 49 48 49 45 43 46 45 40 35 26 31 36 33 33 38 41 34 41 37
37 34 39 41 48 47 51 58 59 56 60 63 69 59 69 88 84 72 74 75 73 66 58 51 50 50 51 47 45 46 44 36 30 29 34 31 31 33 36 33 29 34 41
38 37 43 41 41 50 58 59 59 51 45 51 63 63 57 88 88 75 78 74 74 69 62 55 52 53 52 52 49 48 55 37 32 34 31 33 32 31 31 27 28 32 33
32 36 39 35 35 44 43 48 48 39 40 31 43 62 70 74 92 84 68 68 79 73 68 61 56 58 59 60 53 50 47 39 34 34 35 33 36 34 29 30 31 31 34
29 32 36 37 41 42 41 46 28 26 29 16 23 43 61 69 86 92 56 78 84 70 70 65 62 67 65 55 54 51 48 42 38 36 39 36 36 37 31 32 29 26 34
30 27 31 28 34 40 31 30 25 27 23 17 25 38 61 72 74 89 64 63 74 63 69 68 63 63 62 48 52 53 47 45 40 38 37 40 38 36 33 33 31 28 31
34 28 24 28 32 36 37 17 15 17 19 15 17 37 43 58 72 87 62 79 58 70 73 71 65 66 73 76 63 54 49 43 38 40 41 39 39 39 32 35 35 34 36
34 33 26 28 28 33 29 14 5 18 21 11 13 31 45 58 74 54 79 96 70 77 83 75 67 82 67 71 69 53 42 40 42 44 46 41 38 36 35 37 39 41 42
25 32 33 25 23 27 26 19 2 14 13 11 7 26 46 63 44 36 74 61 74 68 86 79 73 73 47 37 32 38 37 41 40 42 46 41 41 43 42 41 40 45 49
25 28 29 31 22 18 21 22 16 8 11 9 10 28 43 59 38 42 60 69 73 52 49 70 88 58 36 38 42 45 39 45 45 45 39 43 46 48 44 43 43 45 49
21 23 25 28 30 23 19 16 15 6 11 19 12 22 44 53 33 32 29 69 47 46 70 37 43 38 35 38 43 43 42 41 41 41 40 41 44 46 46 48 51 52 50
18 17 17 19 22 25 22 20 17 18 18 16 12 26 23 28 42 33 30 34 32 28 32 34 40 41 46 48 49 50 42 41 39 41 44 45 45 48 49 50 51 49 47
18 17 17 16 16 20 23 23 17 14 15 19 16 22 18 28 31 29 27 43 37 38 42 40 40 45 53 46 44 47 48 40 40 41 42 42 43 47 50 51 52 53 53
20 19 17 17 16 15 16 17 19 15 14 17 13 17 22 26 21 33 30 38 35 32 37 41 43 45 46 48 44 38 37 41 42 41 38 37 37 40 43 47 49 51 52
27 25 23 21 20 19 18 16 14 15 14 12 15 13 19 28 27 28 27 22 21 28 42 39 44 40 44 38 35 36 39 41 39 39 39 40 37 39 41 41 42 43 44
32 31 31 29 27 25 23 22 19 16 15 15 13 13 16 14 12 16 23 21 30 37 35 28 30 32 31 35 36 39 41 43 42 44 44 44 42 39 41 42 44 44 46
34 35 35 35 35 33 30 28 26 25 22 19 17 17 16 16 17 17 16 19 22 24 25 26 27 29 33 37 38 40 42 46 49 51 48 47 44 45 44 42 40 45 44
35 33 34 35 37 37 36 37 36 33 31 29 26 25 24 24 24 23 25 27 29 30 31 33 34 36 37 39 42 45 45 47 48 49 48 50 52 53 54 49 47 46 47
35 34 33 32 32 33 37 40 41 43 42 40 39 38 36 35 34 33 34 35 36 37 38 39 39 40 41 42 43 45 48 49 51 53 54 53 53 54 55 55 50 48 50
32 33 34 34 34 33 31 31 33 36 41 45 48 49 49 47 46 45 44 45 44 44 45 46 47 48 48 50 50 51 53 55 57 58 58 58 58 58 57 57 55 51 50
29 31 32 34 35 37 38 38 37 36 35 36 38 41 47 52 55 55 56 55 55 55 55 55 56 56 56 57 57 57 59 60 62 62 61 62 63 63 63 63 61 59 59